     2.11           OBSERVATION DATA    G (GPS)             RINEX VERSION / TYPE
teqc 2010Oct21 OPUS Account 20111028 20:27:28UTC            PGM / RUN BY / DATE
Y 1527                                                      MARKER NAME
3080                                                        MARKER NUMBER
CSMIDDLETON NGS                                             OBSERVER / AGENCY
4624K01631 TRIMBLE NETR5 4.41                               REC # / TYPE / VERS
12481390 TRM41249.00 NONE                                   ANT # / TYPE
  -702492.4498 -5595563.6845  2969369.9180                  APPROX POSITION XYZ
        2.0000        0.0000        0.0000                  ANTENNA: DELTA H/E/N
     1     1                                                WAVELENGTH FACT L1/2
     5    L1    L2    C1    P1    P2                        # / TYPES OF OBSERV
    15                                                      LEAP SECONDS
  2011     8    27     0     0    0.0000000     GPS         TIME OF FIRST OBS
                                                            END OF HEADER
 11  8 27  0  0  0.0000000  0  9G04G10G12G05G17G25G09G02G30
 115323450.62518  89862585.88955  21945306.883                    21945317.902
 109740702.76918  85512377.02456  20882937.023                    20882947.020
 112040983.09818  87304725.91817  21320687.703                    21320697.172
 113910807.82017  88761771.25317  21676486.344                    21676497.414
 122555388.02717  95497770.64216  23321514.680                    23321526.727
 125588657.15817  97861340.32516  23898732.023                    23898745.816
 125672970.15416  97927044.74053  23914779.250                    23914795.352
 108570955.52718  84600863.19756  20660340.742                    20660347.953
 126426030.46416  98513854.70153  24058077.586                    24058089.445
 11  8 27  0  0 30.0000000  0  9G04G10G12G05G17G25G09G02G30
 115401538.320 8  89923433.43845  21960166.719                    21960177.977
 109752936.860 8  85521910.10746  20885265.406                    20885275.402
 111986782.606 8  87262491.802 7  21310374.023                    21310383.543
 113826837.338 8  88696339.818 7  21660506.961                    21660518.102
 122609427.823 7  95539879.475 6  23331798.375                    23331810.973
 125491955.023 7  97785988.063 6  23880329.844                    23880343.609
 125752161.747 6  97988752.30843  23929848.859                    23929864.961
 108574907.556 8  84603942.71646  20661092.492                    20661100.066
 126326459.720 6  98436267.19843  24039129.570                    24039141.816
 11  8 27  0  1  0.0000000  0  9G04G10G12G05G17G25G09G02G30
 115479725.258 7  89984358.30945  21975045.508                    21975056.391
 109765799.991 8  85531933.35246  20887712.758                    20887723.309
 111933043.143 7  87220616.920 7  21300147.398                    21300157.035
 113743221.942 8  88631185.081 7  21644595.188                    21644606.715
 122663636.271 7  95582119.721 6  23342113.281                    23342126.543
 125395466.012 7  97710801.898 6  23861968.547                    23861982.445
 125831464.075 6  98050546.16043  23944940.148                    23944955.723
 108579122.174 8  84607226.85546  20661894.555                    20661902.340
 126227140.819 6  98358875.92743  24020229.195                    24020242.109
 11  8 27  0  1 30.0000000  0  9G04G10G12G05G17G25G09G02G30
 115558009.748 7  90045359.19945  21989942.391                    21989953.453
 109779291.731 8  85542446.41846  20890280.203                    20890290.414
 111879766.829 8  87179102.940 7  21290009.320                    21290018.969
 113659964.524 8  88566309.274 7  21628751.570                    21628762.918
 122718013.944 7  95624491.830 6  23352462.320                    23352474.227
 125299192.794 7  97635783.883 6  23843648.594                    23843662.648
 125910873.609 6  98112423.54843  23960051.586                    23960066.996
 108583598.305 8  84610714.76746  20662746.617                    20662754.133
 126128076.555 6  98281683.04643  24001378.141                    24001389.844
 11  8 27  0  2  0.0000000  0  9G04G10G12G05G17G25G09G02G30
 115636390.052 8  90106434.73945  22004857.281                    22004868.551
 109793411.909 8  85553449.18446  20892966.977                    20892977.691
 111826955.866 7  87137951.579 7  21279959.398                    21279969.301
 113577067.583 8  88501714.364 7  21612977.359                    21612988.344
 122772561.015 7  95666995.945 6  23362841.852                    23362854.074
 125203138.109 7  97560936.111 6  23825369.859                    23825383.426
 125990387.392 6  98174382.19443  23975183.016                    23975197.977
 108588334.673 8  84614405.45846  20663647.570                    20663655.313
 126029269.693 6  98204690.77643  23982576.188                    23982587.516
 11  8 27  0  2 30.0000000  0  9G04G10G12G05G17G25G09G02G30
 115714864.290 7  90167583.47045  22019791.063                    22019801.602
 109808160.085 8  85564941.29446  20895773.656                    20895783.953
 111774612.686 8  87097164.719 7  21269998.930                    21270008.590
 113494534.078 8  88437402.655 7  21597271.484                    21597282.836
 122827278.484 7  95709632.838 6  23373254.484                    23373266.996
 125107304.575 7  97486260.681 6  23807133.734                    23807146.988
 126070001.954 6  98236419.40843  23990332.914                    23990348.309
 108593330.430 8  84618298.26746  20664598.469                    20664606.047
 125930723.271 6  98127901.39943  23963823.383                    23963834.637
 11  8 27  0  3  0.0000000  0  9G04G10G12G05G17G25G09G02G30
 115793430.646 7  90228803.99345  22034740.977                    22034752.457
 109823535.493 8  85576922.15346  20898699.438                    20898709.559
 111722738.951 7  87056743.659 7  21260127.773                    21260137.129
 113412366.305 8  88373375.927 7  21581635.281                    21581646.730
 122882166.544 7  95752402.658 6  23383699.406                    23383711.527
 125011694.661 7  97411759.499 6  23788939.594                    23788953.418
 126149713.724 6  98298532.33543  24005501.945                    24005517.117
 108598583.744 8  84622391.76946  20665598.430                    20665605.559
 125832439.697 6  98051316.85143  23945120.703                    23945132.590
 11  8 27  0  3 30.0000000  0  9G04G10G12G05G17G25G09G02G30
 115872087.473 7  90290095.00845  22049709.188                    22049720.199
 109839538.081 8  85589391.72346  20901744.547                    20901754.875
 111671337.140 8  87016690.336 7  21250346.219                    21250355.902
 113330567.412 8  88309636.625 7  21566069.477                    21566080.371
 122937225.732 7  95795305.830 6  23394176.359                    23394189.313
 124916311.298 7  97337434.877 6  23770788.461                    23770802.570
 126229519.733 6  98360718.65744  24020688.734                    24020704.449
 108604093.847 8  84626685.37046  20666646.664                    20666654.227
 125734422.263 6  97974939.64843  23926468.258                    23926480.059
 11  8 27  0  4  0.0000000  0  9G04G10G12G05G17G25G09G02G30
 115950832.779 7  90351454.96645  22064693.961                    22064705.277
 109856167.007 8  85602349.34346  20904909.195                    20904919.504
 111620409.154 8  86977006.219 7  21240655.016                    21240664.488
 113249139.671 8  88246186.550 7  21550574.000                    21550585.176
 122992456.739 7  95838342.889 6  23404686.578                    23404699.590
 124821156.882 7  97263288.624 6  23752681.047                    23752694.801
 126309416.285 6  98422975.53144  24035892.813                    24035908.215
 108609859.197 8  84631177.87146  20667743.742                    20667751.195
 125636673.398 7  97898771.73143  23907867.766                    23907878.820
 11  8 27  0  4 30.0000000  0  9G04G10G12G05G17G25G09G02G30
 116029664.721 7  90412882.42345  22079695.508                    22079706.809
 109873421.971 8  85615794.78946  20908192.461                    20908202.887
 111569956.981 8  86937692.864 7  21231054.156                    21231063.902
 113168086.314 8  88183028.196 7  21535149.773                    21535161.379
 123047859.770 7  95881513.993 6  23415229.578                    23415241.848
 124726234.310 7  97189323.027 6  23734618.172                    23734631.391
 126389400.425 6  98485300.64944  24051113.156                    24051128.582
 108615878.698 8  84635868.40146  20668888.938                    20668896.859
 125539196.286 6  97822815.59043  23889317.625                    23889329.793
 11  8 27  0  5  0.0000000  0  9G04G10G12G05G17G25G09G02G30
 116108582.047 7  90474376.42645  22094712.680                    22094723.566
 109891302.469 8  85629727.64746  20911595.219                    20911605.754
 111519982.709 8  86898751.901 7  21221544.063                    21221553.762
 113087409.503 8  88120163.254 7  21519797.859                    21519808.680
 123103435.596 7  95924819.750 6  23425806.164                    23425818.004
 124631546.217 7  97115540.171 6  23716599.266                    23716613.023
 126469468.956 6  98547691.54644  24066349.648                    24066365.719
 108622151.509 8  84640756.32946  20670082.688                    20670090.336
 125441993.632 6  97747073.34043  23870820.906                    23870832.824
 11  8 27  0  5 30.0000000  0  9G04G10G12G05G17G25G09G02G30
 116187582.805 7  90535935.42045  22109746.047                    22109757.207
 109909807.688 8  85644147.31346  20915116.359                    20915126.473
 111470488.482 8  86860185.003 7  21212125.734                    21212135.410
 113007111.995 8  88057593.874 7  21504517.656                    21504528.527
 123159184.700 7  95968260.548 6  23436414.133                    23436426.805
 124537095.245 7  97041942.084 7  23698626.180                    23698640.066
 126549618.165 6  98610145.30343  24081601.977                    24081617.469
 108628676.058 8  84645840.41246  20671324.406                    20671332.070
 125345068.289 6  97671547.16643  23852375.883                    23852387.941
 11  8 27  0  6  0.0000000  0  9G04G10G12G05G17G25G09G02G30
 116266665.080 7  90597557.95345  22124794.680                    22124806.336
 109928936.720 8  85659053.05746  20918756.688                    20918766.602
 111421476.182 8  86821993.631 7  21202799.461                    21202808.652
 112927196.276 8  87995321.977 7  21489310.516                    21489320.906
 123215107.496 7  96011836.686 6  23447056.094                    23447068.648
 124442883.864 7  96968530.697 7  23680698.070                    23680711.867
 126629844.899 6  98672659.48943  24096867.680                    24096884.563
 108635451.027 8  84651119.62746  20672613.641                    20672621.117
 125248422.813 6  97596239.04443  23833985.438                    23833997.004
 11  8 27  0  6 30.0000000  0  9G04G10G12G05G17G25G09G02G30
 116345827.281 7  90659242.74745  22139859.148                    22139870.113
 109948689.250 8  85674444.65546  20922515.258                    20922525.625
 111372948.122 8  86784179.590 7  21193564.555                    21193574.105
 112847665.384 8  87933349.950 7  21474175.727                    21474186.453
 123271204.377 7  96055548.488 6  23457730.805                    23457743.520
 124348915.127 7  96895308.355 7  23662816.203                    23662829.938
 126710145.964 6  98735231.58643  24112149.031                    24112166.027
 108642475.542 8  84656593.29546  20673950.133                    20673957.664
 125152060.461 6  97521151.57243  23815647.922                    23815659.387
 11  8 27  0  7  0.0000000  0  9G04G10G12G05G17G25G09G02G30
 116425067.887 7  90720988.63845  22154938.164                    22154949.324
 109969064.671 8  85690321.61446  20926392.633                    20926403.004
 111324906.286 8  86746744.426 7  21184422.727                    21184432.148
 112768521.705 8  87871679.645 7  21459115.336                    21459126.039
 123327476.219 7  96099396.610 6  23468439.711                    23468452.090
 124255191.560 7  96822277.070 7  23644981.539                    23644995.395
 126790518.097 6  98797859.06744  24127443.273                    24127459.961
 108649748.535 8  84662260.58346  20675334.078                    20675341.754
 125055983.900 6  97446286.77143  23797365.992                    23797376.594
 11  8 27  0  7 30.0000000  0  9G04G10G12G05G17G25G09G02G30
 116504385.027 7  90782794.18045  22170031.461                    22170042.281
 109990062.343 8  85706683.44146  20930388.164                    20930398.387
 111277352.429 8  86709689.511 7  21175373.414                    21175382.813
 112689767.784 8  87810313.054 7  21444128.461                    21444139.645
 123383922.976 7  96143381.037 6  23479180.656                    23479192.758
 124161715.710 7  96749438.848 6  23627192.914                    23627207.250
 126870957.856 6  98860539.21843  24142751.328                    24142767.207
 108657268.298 8  84668120.16346  20676765.195                    20676772.375
 124960195.787 6  97371646.76043  23779137.086                    23779149.383
 11  8 27  0  8  0.0000000  0  9G04G10G12G05G17G25G09G02G30
 116583777.079 7  90844658.09545  22185139.219                    22185150.219
 110011681.618 8  85723529.64346  20934502.461                    20934512.855
 111230288.717 8  86673016.517 7  21166417.078                    21166426.559
 112611406.228 8  87749252.196 7  21429216.938                    21429227.688
 123440545.515 7  96187502.448 6  23489955.016                    23489968.684
 124068490.517 7  96676795.915 6  23609452.977                    23609466.715
 126951462.369 6  98923269.82343  24158070.523                    24158087.008
 108665034.225 8  84674171.56346  20678243.102                    20678250.918
 124864699.181 6  97297233.91643  23760965.219                    23760977.016
 11  8 27  0  8 30.0000000  0  9G04G10G12G05G17G25G09G02G30
 116663242.330 7  90906579.04745  22200261.227                    22200272.066
 110033921.839 8  85740859.70146  20938734.414                    20938744.715
 111183717.071 8  86636726.968 7  21157555.180                    21157564.758
 112533439.814 8  87688499.236 7  21414379.922                    21414391.211
 123497344.002 7  96231760.951 6  23500764.289                    23500776.559
 123975518.516 7  96604350.297 6  23591760.633                    23591775.148
 127032028.345 6  98986048.27843  24173402.133                    24173417.848
 108673044.820 8  84680413.61046  20679767.375                    20679774.973
 124769496.851 6  97223050.31643  23742848.844                    23742860.688
 11  8 27  0  9  0.0000000  0  9G04G10G12G05G17G25G09G02G30
 116742779.132 7  90968555.75045  22215396.492                    22215407.605
 110056782.085 8  85758672.90846  20943084.766                    20943094.762
 111137639.090 8  86600822.081 7  21148786.633                    21148795.852
 112455871.040 8  87628056.139 7  21399619.242                    21399630.477
 123554319.178 7  96276157.145 6  23511606.125                    23511617.543
 123882802.312 7  96532103.965 6  23574117.766                    23574130.902
 127112652.232 6  99048871.89743  24188744.781                    24188760.340
 108681298.865 8  84686845.35046  20681338.047                    20681345.699
 124674591.488 6  97149098.10843  23724788.680                    23724800.484
 11  8 27  0  9 30.0000000  0  9G04G10G12G05G17G25G09G02G30
 116822385.719 7  91030586.83745  22230545.414                    22230556.383
 110080261.131 8  85776968.28546  20947552.609                    20947562.922
 111092056.713 8  86565303.377 7  21140112.406                    21140122.223
 112378702.414 8  87567924.832 7  21384934.813                    21384945.559
 123611471.112 6  96320691.065 6  23522481.555                    23522494.613
 123790344.666 7  96460059.115 6  23556523.609                    23556536.980
 127193330.870 7  99111738.20343  24204097.055                    24204113.234
 108689795.017 8  84693465.75246  20682954.859                    20682962.059
 124579985.929 6  97075379.51943  23706785.742                    23706797.457
 11  8 27  0 10  0.0000000  0  9G04G10G12G05G17G25G09G02G30
 116902060.548 7  91092671.09145  22245707.398                    22245717.945
 110104358.550 8  85795745.51746  20952138.250                    20952148.191
 111046972.190 8  86530172.629 7  21131533.336                    21131542.672
 112301936.514 8  87508107.349 7  21370326.750                    21370337.559
 123668800.508 6  96365363.291 6  23533391.914                    23533403.480
 123698148.206 7  96388217.816 6  23538978.648                    23538992.914
 127274060.939 7  99174644.57743  24219459.695                    24219475.668
 108698532.098 8  84700273.89046  20684617.102                    20684624.953
 124485683.086 6  97001896.80143  23688840.539                    23688852.590
 11  8 27  0 10 30.0000000  0  9G04G10G12G05G17G25G09G02G30
 116981801.911 7  91154807.20945  22260881.109                    22260892.148
 110129073.109 8  85815003.64846  20956841.281                    20956851.160
 111002387.342 8  86495431.223 7  21123049.078                    21123058.324
 112225576.083 8  87448605.810 7  21355795.531                    21355806.367
 123726307.756 6  96410174.081 6  23544334.469                    23544347.617
 123606215.591 7  96316582.117 6  23521484.234                    23521498.133
 127354839.347 7  99237588.65443  24234831.555                    24234847.500
 108707508.989 8  84707268.89146  20686325.586                    20686333.633
 124391685.654 7  96928652.07244  23670953.430                    23670965.855
 11  8 27  0 11  0.0000000  0  9G04G10G12G05G17G25G09G02G30
 117061608.385 7  91216994.04845  22276067.828                    22276079.027
 110154404.467 8  85834742.39446  20961661.469                    20961671.961
 110958304.337 8  86461080.866 7  21114660.063                    21114669.695
 112149623.283 7  87389421.911 7  21341342.125                    21341353.117
 123783993.696 6  96455124.129 6  23555311.930                    23555324.750
 123514549.800 7  96245154.305 6  23504041.203                    23504054.473
 127435662.754 7  99300567.77443  24250212.000                    24250227.316
 108716724.683 8  84714449.97046  20688079.211                    20688086.758
 124297996.769 6  96855647.75944  23653125.242                    23653137.215
 11  8 27  0 11 30.0000000  0  9G04G10G12G05G17G25G09G02G30
 117141477.877 7  91279229.99045  22291266.445                    22291277.926
 110180350.977 8  85854960.48546  20966598.820                    20966608.898
 110914724.273 8  86427122.408 7  21106367.484                    21106376.855
 112074080.522 8  87330557.520 7  21326966.477                    21326977.129
 123841858.483 6  96500213.540 6  23566323.320                    23566335.625
 123423152.814 7  96173935.962 6  23486648.492                    23486662.934
 127516527.788 7  99363579.29943  24265600.211                    24265616.258
 108726177.404 8  84721815.74546  20689878.078                    20689885.789
 124204618.569 6  96782885.57544  23635355.828                    23635367.719
 11  8 27  0 12  0.0000000  0  9G04G10G12G05G17G25G09G02G30
 117221409.462 7  91341514.32445  22306477.234                    22306488.211
 110206912.474 8  85875657.78246  20971653.188                    20971663.605
 110871649.659 7  86393557.811 7  21098170.289                    21098179.723
 111998950.906 7  87272015.056 7  21312669.859                    21312680.613
 123899902.286 6  96545442.439 6  23577368.820                    23577381.172
 123332028.068 7  96102929.755 7  23469308.273                    23469322.070
 127597431.562 6  99426620.99243  24280995.594                    24281011.770
 108735866.520 8  84729365.72346  20691721.930                    20691729.512
 124111554.631 6  96710368.25744  23617646.672                    23617658.133
 11  8 27  0 12 30.0000000  0  9G04G10G12G05G17G25G09G02G30
 117301401.359 7  91403845.64645  22321698.867                    22321710.039
 110234087.599 7  85896833.23246  20976824.547                    20976834.848
 110829082.235 8  86360388.413 7  21090070.227                    21090079.789
 111924236.555 8  87213796.190 7  21298452.148                    21298462.844
 123958125.785 6  96590811.353 6  23588447.914                    23588461.105
 123241177.976 7  96032137.538 6  23452020.133                    23452033.543
 127678370.681 6  99489690.19343  24296397.875                    24296414.910
 108745790.895 8  84737099.01146  20693610.234                    20693617.770
 124018807.609 6  96638097.89043  23599997.320                    23600008.570
 11  8 27  0 13  0.0000000  0  9G04G10G12G05G17G25G09G02G30
 117381451.842 7  91466222.62345  22336932.273                    22336942.820
 110261875.498 8  85918486.17546  20982112.391                    20982122.652
 110787023.766 8  86327615.615 7  21082066.641                    21082076.027
 111849940.190 8  87155903.011 7  21284314.023                    21284324.617
 124016529.258 6  96636320.528 6  23599562.195                    23599574.840
 123150605.149 7  95961561.375 7  23434784.711                    23434797.871
 127759342.018 6  99552784.50343  24311806.250                    24311823.410
 108755948.897 8  84745014.34746  20695543.695                    20695550.758
 123926380.167 6  96566076.58043  23582408.039                    23582420.480
 11  8 27  0 13 30.0000000  0  9G04G10G12G05G17G25G09G02G30
 117461559.425 7  91528644.08945  22352176.172                    22352187.457
 110290275.126 8  85940615.78446  20987516.523                    20987526.809
 110745475.941 8  86295240.711 7  21074160.016                    21074169.609
 111776064.016 8  87098337.266 7  21270255.594                    21270266.531
 124075113.160 6  96681970.272 6  23610710.266                    23610723.102
 123060312.366 7  95891203.439 6  23417602.273                    23417615.824
 127840342.429 6  99615901.43543  24327220.297                    24327237.336
 108766339.492 8  84753110.92646  20697520.398                    20697528.055
 123834275.022 6  96494306.46243  23564881.781                    23564893.449
 11  8 27  0 14  0.0000000  0  9G04G10G12G05G17G25G09G02G30
 117541722.240 7  91591108.59045  22367430.906                    22367441.879
 110319285.398 8  85963221.22046  20993037.234                    20993047.668
 110704440.634 8  86263265.168 7  21066351.688                    21066360.836
 111702610.529 8  87041100.875 7  21256277.836                    21256288.730
 124133878.211 7  96727761.172 6  23621892.891                    23621905.898
 122970302.301 7  95821065.805 7  23400474.063                    23400487.559
 127921368.828 6  99679038.65543  24342639.305                    24342656.660
 108776961.518 8  84761387.83746  20699541.984                    20699549.418
 123742495.083 6  96422789.69043  23547415.922                    23547427.922
 11  8 27  0 14 30.0000000  0  9G04G10G12G05G17G25G09G02G30
 117621938.933 7  91653615.07545  22382695.617                    22382706.512
 110348904.869 8  85986301.36146  20998673.586                    20998683.984
 110663918.997 8  86231689.884 7  21058640.375                    21058649.492
 111629582.431 8  86984195.961 7  21242381.242                    21242392.070
 124192824.048 6  96773692.946 6  23633109.875                    23633122.488
 122880577.157 7  95751150.190 7  23383399.875                    23383413.828
 128002417.672 6  99742193.32343  24358063.438                    24358079.410
 108787813.062 8  84769843.58746  20701606.586                    20701614.141
 123651042.820 6  96351528.27343  23530013.352                    23530024.957
 11  8 27  0 15  0.0000000  0  9G04G10G12G05G17G25G09G02G30
 117702208.077 7  91716162.43844  22397970.117                    22397981.152
 110379133.079 8  86009855.83846  21004425.813                    21004436.098
 110623913.458 8  86200516.764 7  21051027.469                    21051037.066
 111556981.538 8  86927623.934 7  21228565.703                    21228576.340
 124251951.851 6  96819766.501 6  23644361.883                    23644375.090
 122791140.144 7  95681459.101 6  23366380.180                    23366393.156
 128083486.145 6  99805363.34543  24373489.586                    24373507.199
 108798894.030 8  84778478.11246  20703715.484                    20703722.688
 123559921.406 6  96280524.66944  23512673.734                    23512685.020
 11  8 27  0 15 30.0000000  0  9G04G10G12G05G17G25G09G02G30
 117782527.848 7  91778749.23145  22413254.547                    22413265.742
 110409967.886 8  86033882.98146  21010293.203                    21010303.309
 110584425.580 8  86169746.998 7  21043513.586                    21043522.191
 111484810.098 8  86871386.531 7  21214831.789                    21214842.266
 124311261.361 6  96865981.637 6  23655648.242                    23655660.582
 122701993.555 7  95611994.293 6  23349416.500                    23349429.926
 128164570.713 6  99868545.88643  24388920.094                    24388936.633
 108810202.174 8  84787289.65646  20705867.219                    20705875.039
 123469133.272 6  96209780.75043  23495397.313                    23495408.359
 11  8 27  0 16  0.0000000  0  9G04G10G12G05G17G25G09G02G30
 117862896.906 7  91841374.44145  22428548.672                    22428559.383
 110441408.470 8  86058382.17346  21016276.414                    21016286.258
 110545456.875 8  86139381.793 7  21036097.758                    21036107.129
 111413071.115 8  86815486.127 7  21201180.297                    21201190.816
 124370753.202 6  96912338.860 6  23666969.320                    23666982.039
 122613140.275 7  95542758.078 7  23332508.500                    23332521.629
 128245668.367 6  99931738.61743  24404352.469                    24404369.438
 108821736.846 8  84796277.71446  20708062.125                    20708069.805
 123378681.352 7  96139298.85543  23478184.406                    23478195.988
 11  8 27  0 16 30.0000000  0  9G04G10G12G05G17G25G09G02G30
 117943314.103 7  91904037.15144  22443850.961                    22443862.008
 110473454.425 7  86083353.07146  21022374.273                    21022384.141
 110507009.496 8  86109422.813 7  21028781.648                    21028790.719
 111341767.382 8  86759924.862 7  21187611.141                    21187621.930
 124430428.120 6  96958838.729 6  23678324.273                    23678337.359
 122524583.387 7  95473752.817 6  23315655.836                    23315669.035
 128326776.064 6  99994939.20644  24419787.219                    24419803.516
 108833497.578 8  84805441.92946  20710300.602                    20710307.746
 123288568.882 6  96069081.41244  23461037.430                    23461048.234
 11  8 27  0 17  0.0000000  0  9G04G10G12G05G17G25G09G02G30
 118023777.561 7  91966735.91845  22459162.727                    22459174.238
 110506104.260 8  86108794.52546  21028587.477                    21028597.617
 110469084.649 8  86079870.999 7  21021565.180                    21021574.375
 111270900.648 8  86704704.126 7  21174125.953                    21174136.500
 124490286.164 6  97005481.291 6  23689715.727                    23689728.281
 122436324.986 7  95404980.146 6  23298861.375                    23298874.258
 128407890.582 6 100058145.06843  24435223.445                    24435239.715
 108845482.043 8  84814780.48046  20712580.836                    20712588.238
 123198798.074 7  95999130.17943  23443954.305                    23443965.176
 11  8 27  0 17 30.0000000  0  9G04G10G12G05G17G25G09G02G30
 118104285.750 7  92029469.52245  22474483.195                    22474494.203
 110539356.559 7  86134705.42846  21034915.422                    21034925.301
 110431684.310 8  86050727.892 7  21014447.547                    21014456.910
 111200473.388 8  86649825.831 7  21160723.813                    21160734.520
 124550327.682 6  97052266.823 6  23701141.352                    23701153.180
 122348367.871 7  95336442.224 6  23282123.438                    23282136.574
 128489008.840 6 100121353.82543  24450659.703                    24450676.512
 108857689.417 8  84824292.73146  20714904.250                    20714911.270
 123109371.806 7  95929447.45444  23426936.688                    23426947.992
 11  8 27  0 18  0.0000000  0  9G04G10G12G05G17G25G09G02G30
 118184837.350 7  92092236.96444  22489811.375                    22489822.473
 110573210.013 8  86161084.76446  21041357.000                    21041367.410
 110394809.540 8  86021994.319 7  21007430.664                    21007439.871
 111130487.880 8  86595291.752 7  21147406.172                    21147416.457
 124610553.018 6  97099195.579 6  23712602.273                    23712614.727
 122260714.720 7  95268141.196 7  23265443.266                    23265456.813
 128570127.585 6 100184563.01143  24466095.766                    24466112.777
 108870118.451 8  84833977.70846  20717269.289                    20717276.664
 123020292.863 7  95860035.38244  23409985.000                    23409996.410
 11  8 27  0 18 30.0000000  0  9G04G10G12G05G17G25G09G02G30
 118265430.759 7  92155036.97944  22505147.992                    22505158.750
 110607663.405 8  86187931.57846  21047913.555                    21047923.855
 110358462.289 8  85993671.801 7  21000513.922                    21000522.973
 111060946.397 8  86541103.669 7  21134172.898                    21134183.113
 124670962.572 6  97146267.884 6  23724097.164                    23724110.531
 122173368.137 7  95200079.026 7  23248821.852                    23248835.371
 128651243.654 6 100247770.11043  24481530.984                    24481549.379
 108882767.762 8  84843834.32246  20719676.188                    20719683.895
 122931563.963 6  95790896.06344  23393100.625                    23393112.164
 11  8 27  0 19  0.0000000  0  9G04G10G12G05G17G25G09G02G30
 118346064.738 7  92217868.60444  22520492.164                    22520503.004
 110642715.319 8  86215244.76346  21054583.711                    21054593.922
 110322644.315 8  85965761.708 7  20993697.773                    20993707.176
 110991851.410 8  86487263.510 7  21121024.258                    21121034.750
 124731556.861 7  97193484.153 6  23735628.547                    23735641.039
 122086330.869 7  95132257.865 7  23232259.070                    23232272.016
 128732354.040 6 100310972.78043  24496967.133                    24496983.961
 108895636.460 8  84853861.89446  20722124.555                    20722132.211
 122843188.079 6  95722031.81543  23376283.250                    23376294.449
 11  8 27  0 19 30.0000000  0  9G04G10G12G05G17G25G09G02G30
 118426737.442 7  92280730.38744  22535844.039                    22535855.004
 110678364.370 8  86243023.24946  21061367.617                    21061377.465
 110287356.951 8  85938265.086 7  20986982.914                    20986992.336
 110923205.077 8  86433772.945 7  21107961.406                    21107972.043
 124792335.961 7  97240844.430 6  23747193.648                    23747206.844
 121999605.427 7  95064679.681 7  23215755.922                    23215769.145
 128813455.662 6 100374168.61843  24512399.891                    24512416.871
 108908723.342 8  84864059.47546  20724615.320                    20724622.484
 122755167.691 6  95653444.58144  23359533.859                    23359544.926
 11  8 27  0 20  0.0000000  0  9G04G10G12G05G17G25G09G02G30
 118507447.973 7  92343621.65545  22551202.195                    22551213.523
 110714609.603 8  86271266.29946  21068264.406                    21068274.566
 110252602.063 8  85911183.368 7  20980369.438                    20980378.777
 110855009.741 8  86380633.802 7  21094984.008                    21094994.527
 124853300.513 6  97288349.220 6  23758794.875                    23758808.711
 121913194.671 7  94997346.723 7  23199312.492                    23199325.770
 128894545.540 6 100437355.34243  24527830.688                    24527848.195
 108922027.391 8  84874426.28446  20727146.766                    20727154.723
 122667505.838 6  95585136.77044  23342851.555                    23342863.703
 11  8 27  0 20 30.0000000  0  9G04G10G12G05G17G25G09G02G30
 118588194.446 7  92406540.91744  22566568.156                    22566579.617
 110751448.925 8  86299972.27146  21075274.891                    21075285.188
 110218380.600 8  85884517.312 7  20973857.281                    20973866.168
 110787267.600 8  86327847.796 8  21082092.914                    21082103.543
 124914450.315 6  97335998.343 6  23770431.961                    23770444.520
 121827100.911 7  94930260.765 7  23182929.219                    23182942.516
 128975620.389 6 100500530.30543  24543259.188                    24543276.723
 108935546.776 8  84884960.88846  20729719.719                    20729726.863
 122580204.857 6  95517110.11843  23326238.938                    23326250.676
 11  8 27  0 21  0.0000000  0  9G04G10G12G05G17G25G09G02G30
 118668975.661 7  92469487.26444  22581939.633                    22581951.074
 110788881.379 8  86329140.41946  21082397.914                    21082408.160
 110184694.544 8  85858268.460 7  20967446.930                    20967456.203
 110719980.849 8  86275416.649 7  21069288.531                    21069298.773
 124975786.158 6  97383792.450 6  23782102.930                    23782116.438
 121741326.996 7  94863423.989 7  23166606.586                    23166619.719
 129056677.060 6 100563691.09543  24558683.914                    24558701.387
 108949280.530 8  84895662.53746  20732333.086                    20732340.527
 122493267.709 6  95449367.00544  23309695.297                    23309706.680
 11  8 27  0 21 30.0000000  0  9G04G10G12G05G17G25G09G02G30
 118749790.229 7  92532459.58444  22597318.672                    22597330.211
 110826905.480 8  86358769.58746  21089633.922                    21089644.020
 110151545.411 7  85832437.982 7  20961138.578                    20961148.215
 110653152.104 8  86223342.385 7  21056571.648                    21056581.754
 125037308.405 6  97431731.812 6  23793811.016                    23793823.777
 121655875.662 7  94796838.602 7  23150346.398                    23150359.063
 129137712.497 6 100626835.39143  24574104.305                    24574121.688
 108963227.808 8  84906530.57146  20734987.211                    20734994.199
 122406697.284 7  95381909.57844  23293221.664                    23293232.637
 11  8 27  0 22  0.0000000  0  9G04G10G12G05G17G25G09G02G30
 118830636.675 7  92595456.73844  22612703.445                    22612714.461
 110865519.503 8  86388858.43046  21096981.961                    21096991.930
 110118934.463 8  85807026.870 7  20954933.375                    20954942.621
 110586783.060 8  86171626.328 7  21043942.063                    21043952.434
 125099016.908 6  97479816.339 6  23805553.516                    23805566.719
 121570749.416 7  94730506.503 7  23134147.156                    23134159.758
 129218723.796 6 100689960.82543  24589520.430                    24589538.430
 108977387.113 8  84917563.82746  20737681.695                    20737689.023
 122320495.927 6  95314739.79244  23276818.102                    23276829.527
 11  8 27  0 22 30.0000000  0  9G04G10G12G05G17G25G09G02G30
 118911513.682 7  92658477.73444  22628093.781                    22628105.027
 110904722.092 8  86419405.90246  21104441.836                    21104452.035
 110086863.222 8  85782036.310 7  20948830.070                    20948839.590
 110520876.244 8  86120270.442 7  21031400.523                    21031410.855
 125160912.136 6  97528046.310 6  23817331.898                    23817344.695
 121485950.815 7  94664429.719 6  23118010.148                    23118023.164
 129299707.823 6 100753064.95843  24604932.695                    24604949.805
 108991757.129 8  84928761.26746  20740415.633                    20740423.406
 122234666.562 7  95247859.83144  23260485.141                    23260496.059
 11  8 27  0 23  0.0000000  0  9G04G10G12G05G17G25G09G02G30
 118992419.745 7  92721521.35144  22643489.563                    22643501.238
 110944511.543 8  86450410.66846  21112013.828                    21112023.730
 110055333.081 8  85757467.393 7  20942829.820                    20942839.570
 110455433.662 8  86069276.303 8  21018946.742                    21018957.055
 125222994.360 6  97576422.018 6  23829146.211                    23829158.859
 121401482.467 7  94598610.242 6  23101935.914                    23101948.805
 129380661.565 6 100816145.56643  24620336.641                    24620355.105
 109006336.881 8  84940122.14946  20743190.156                    20743197.859
 122149211.731 7  95181271.73444  23244223.344                    23244234.703
 11  8 27  0 23 30.0000000  0  9G04G10G12G05G17G25G09G02G30
 119073353.573 7  92784586.62744  22658891.422                    22658902.438
 110984886.699 8  86481871.83146  21119696.406                    21119707.059
 110024345.247 8  85733321.046 7  20936933.805                    20936942.941
 110390457.525 8  86018645.616 7  21006582.195                    21006592.422
 125285263.949 6  97624943.709 6  23840994.906                    23841008.527
 121317347.167 7  94533050.287 7  23085926.055                    23085939.211
 129461581.964 6 100879200.12743  24635735.289                    24635753.883
 109021125.303 8  84951645.62246  20746004.461                    20746011.621
 122064134.232 7  95114977.69544  23228033.281                    23228045.262
 11  8 27  0 24  0.0000000  0  9G04G10G12G05G17G25G09G02G30
 119154313.840 7  92847672.47244  22674297.461                    22674308.422
 111025845.972 8  86513788.15746  21127490.789                    21127501.227
 109993901.133 8  85709598.379 7  20931140.148                    20931149.141
 110325950.237 8  85968380.276 7  20994306.672                    20994317.141
 125347721.003 6  97673611.495 6  23852880.430                    23852893.016
 121233547.547 7  94467751.912 7  23069979.664                    23069992.398
 129542466.028 7 100942226.35543  24651127.336                    24651145.715
 109036120.983 8  84963330.60146  20748858.086                    20748865.125
 121979436.916 7  95048979.85244  23211915.938                    23211927.617
 11  8 27  0 24 30.0000000  0  9G04G10G12G05G17G25G09G02G30
 119235299.316 7  92910777.98244  22689708.266                    22689719.645
 111067387.646 8  86546158.29046  21135396.180                    21135406.184
 109964002.735 8  85686300.939 7  20925450.617                    20925459.563
 110261913.525 8  85918481.611 7  20982120.938                    20982131.469
 125410366.074 6  97722425.782 6  23864801.633                    23864814.473
 121150086.181 7  94402717.114 7  23054097.438                    23054109.906
 129623310.713 6 101005221.88443  24666512.891                    24666530.184
 109051322.915 8  84975176.28946  20751750.875                    20751758.152
 121895122.310 7  94983280.24943  23195871.664                    23195882.734
 11  8 27  0 25  0.0000000  0  9G04G10G12G05G17G25G09G02G30
 119316308.338 7  92973901.85244  22705123.984                    22705135.250
 111109509.802 8  86578980.76545  21143411.891                    21143421.746
 109934650.606 8  85663429.174 7  20919864.984                    20919874.391
 110198349.548 8  85868951.318 7  20970025.273                    20970035.543
 125473199.190 6  97771386.620 6  23876758.578                    23876770.598
 121066965.499 7  94337947.760 7  23038279.820                    23038292.809
 129704112.735 6 101068184.23043  24681888.945                    24681907.094
 109066729.762 8  84987181.66046  20754682.906                    20754689.961
 121811192.952 7  94917880.81244  23179900.414                    23179911.563
 11  8 27  0 25 30.0000000  0  9G04G10G12G05G17G25G09G02G30
 119397339.997 7  93037043.35944  22720543.320                    22720554.895
 111152211.360 7  86612254.72345  21151537.570                    21151547.828
 109905846.537 8  85640984.464 7  20914383.953                    20914393.059
 110135260.761 8  85819791.299 7  20958019.852                    20958029.969
 125536220.880 6  97820494.392 6  23888750.914                    23888764.078
 120984188.369 7  94273446.156 7  23022527.781                    23022541.695
 129784869.355 6 101131111.15443  24697256.133                    24697274.672
 109082340.472 8  84999345.88046  20757653.250                    20757660.332
 121727651.766 7  94852783.86744  23164002.914                    23164013.875
 11  8 27  0 26  0.0000000  0  9G04G10G12G05G17G25G09G02G30
 119478392.892 7  93100201.42144  22735967.539                    22735978.926
 111195490.545 7  86645978.76546  21159773.367                    21159783.410
 109877591.773 8  85618967.798 7  20909007.117                    20909016.102
 110072648.960 8  85771002.956 7  20946104.984                    20946115.273
 125599431.106 6  97869749.051 6  23900778.977                    23900792.746
 120901757.293 7  94209214.190 7  23006842.195                    23006854.930
 129865577.481 6 101194000.31243  24712614.523                    24712633.250
 109098153.709 8  85011667.91246  20760662.445                    20760669.898
 121644501.395 7  94787991.44644  23148180.234                    23148191.031
 11  8 27  0 26 30.0000000  0  9G04G10G12G05G17G25G09G02G30
 119559465.595 7  93163374.92644  22751395.930                    22751407.070
 111239345.642 7  86680151.58545  21168118.469                    21168128.809
 109849887.220 8  85597379.863 7  20903735.109                    20903744.445
 110010516.364 8  85722588.028 7  20934281.414                    20934291.523
 125662830.194 6  97919150.880 6  23912844.078                    23912857.203
 120819674.835 7  94145253.872 7  22991222.242                    22991235.008
 129946234.089 6 101256849.27543  24727963.078                    24727981.441
 109114168.296 8  85024146.83146  20763710.086                    20763717.359
 121561744.215 7  94723505.39244  23132431.820                    23132442.926
 11  8 27  0 27  0.0000000  0  9G04G10G12G05G17G25G09G02G30
 119640556.854 7  93226562.87644  22766826.688                    22766837.711
 111283774.904 8  86714771.79445  21176573.148                    21176583.402
 109822734.523 8  85576221.950 7  20898567.984                    20898577.191
 109948864.905 8  85674548.011 7  20922549.500                    20922560.027
 125726418.592 6  97968700.270 6  23924944.273                    23924956.969
 120737943.661 7  94081567.333 7  22975668.914                    22975681.461
 130026836.308 6 101319655.88043  24743301.516                    24743320.133
 109130383.238 8  85036781.87446  20766795.664                    20766802.836
 121479383.259 7  94659328.08844  23116758.945                    23116769.973
 11  8 27  0 27 30.0000000  0  9G04G10G12G05G17G25G09G02G30
 119721665.271 7  93289764.21444  22782260.703                    22782272.414
 111328776.341 8  86749837.86746  21185136.438                    21185146.867
 109796134.766 8  85555494.910 7  20893506.469                    20893515.703
 109887696.484 8  85626884.382 7  20910909.453                    20910919.402
 125790196.220 6  98018397.088 6  23937081.016                    23937093.961
 120656566.255 7  94018156.433 7  22960183.453                    22960196.395
 130107380.967 6 101382417.61743  24758629.141                    24758647.453
 109146797.348 8  85049572.10446  20769919.141                    20769926.422
 121397420.865 7  94595461.34644  23101162.008                    23101173.449
 11  8 27  0 28  0.0000000  0  9G04G10G12G05G17G25G09G02G30
 119802789.974 7  93352978.23244  22797698.563                    22797709.965
 111374348.493 8  86785348.64446  21193808.469                    21193818.613
 109770089.549 8  85535199.961 7  20888549.875                    20888559.102
 109827013.418 8  85579598.961 8  20899361.828                    20899372.414
 125854163.474 6  98068241.652 6  23949253.781                    23949266.727
 120575545.286 7  93955023.299 7  22944765.461                    22944778.602
 130187865.456 6 101445132.48642  24773944.891                    24773963.492
 109163409.364 8  85062516.54846  20773080.164                    20773087.055
 121315859.782 7  94531907.32044  23085641.023                    23085652.398
 11  8 27  0 28 30.0000000  0  9G04G10G12G05G17G25G09G02G30
 119883929.324 7  93416203.66744  22813138.938                    22813150.625
 111420489.380 8  86821302.60345  21202589.266                    21202598.887
 109744599.531 8  85515337.653 7  20883699.156                    20883708.566
 109766817.525 8  85532693.141 7  20887906.688                    20887916.898
 125918320.444 6  98118234.049 6  23961461.828                    23961475.336
 120494883.254 7  93892169.831 7  22929416.211                    22929428.449
 130268286.668 6 101507798.00142  24789249.148                    24789267.027
 109180218.159 8  85075614.32546  20776279.133                    20776285.902
 121234702.582 7  94468667.98744  23070197.953                    23070208.828
 11  8 27  0 29  0.0000000  0  9G04G10G12G05G17G25G09G02G30
 119965082.332 7  93479439.74644  22828581.992                    22828593.309
 111467197.373 8  86857698.45445  21211476.875                    21211487.613
 109719665.965 8  85495908.930 7  20878954.484                    20878963.680
 109707110.563 8  85486168.311 7  20876545.125                    20876554.973
 125982667.355 6  98168374.480 6  23973707.203                    23973720.137
 120414582.659 7  93829598.023 7  22914135.359                    22914148.039
 130348641.570 6 101570411.93542  24804539.609                    24804558.570
 109197222.373 8  85088864.36746  20779514.477                    20779521.527
 121153951.839 7  94405745.34844  23054831.609                    23054841.969
 11  8 27  0 29 30.0000000  0  9G04G10G12G05G17G25G09G02G30
 120046247.533 7  93542685.33544  22844026.836                    22844038.602
 111514470.869 8  86894534.95445  21220473.055                    21220483.023
 109695290.161 8  85476914.835 7  20874315.953                    20874324.602
 109647894.679 8  85440026.128 7  20865276.789                    20865286.305
 126047204.456 6  98218663.105 6  23985988.180                    23986001.406
 120334646.202 7  93767309.962 7  22898923.750                    22898936.480
 130428927.501 6 101632972.10443  24819818.453                    24819836.758
 109214421.231 8  85102266.08146  20782787.445                    20782794.785
 121073610.216 7  94343141.53244  23039542.773                    23039553.777
 11  8 27  0 30  0.0000000  0  9G04G10G12G05G17G25G09G02G30
 120127423.691 7  93605939.45344  22859474.781                    22859486.027
 111562307.588 8  86931810.33045  21229576.125                    21229585.719
 109671473.080 8  85458356.114 7  20869783.813                    20869792.910
 109589171.894 8  85394268.194 7  20854101.875                    20854111.980
 126111931.931 6  98269100.052 6  23998305.703                    23998318.563
 120255076.204 7  93705307.463 7  22883782.094                    22883794.328
 130509141.326 6 101695476.11043  24835082.953                    24835101.133
 109231813.152 8  85115818.23546  20786096.688                    20786104.016
 120993680.212 7  94280858.46344  23024332.484                    23024343.164
 11  8 27  0 30 30.0000000  0  9G04G10G12G05G17G25G09G02G30
 120208609.801 7  93669201.31744  22874923.828                    22874934.844
 111610705.827 7  86969523.25445  21238785.836                    21238796.008
 109648215.702 8  85440233.513 7  20865358.219                    20865366.938
 109530944.313 8  85348896.126 7  20843021.844                    20843031.477
 126176850.060 6  98319685.567 6  24010658.914                    24010672.191
 120175875.410 7  93643592.621 7  22868710.250                    22868723.262
 130589280.015 6 101757921.57242  24850333.070                    24850351.543
 109249397.247 8  85129520.13046  20789442.930                    20789450.352
 120914164.421 7  94218898.14444  23009200.656                    23009211.711
 11  8 27  0 31  0.0000000  0  9G04G10G12G05G17G25G09G02G30
 120289804.998 7  93732470.28944  22890374.086                    22890386.125
 111659664.461 8  87007672.85445  21248102.617                    21248112.598
 109625520.077 8  85422548.647 7  20861039.023                    20861047.746
 109473214.096 8  85303911.598 7  20832035.617                    20832045.570
 126241959.655 6  98370420.277 6  24023049.086                    24023062.223
 120097047.016 7  93582167.982 7  22853709.602                    22853722.855
 130669341.377 6 101820306.74843  24865568.680                    24865586.648
 109267173.029 8  85143371.39346  20792825.727                    20792833.082
 120835066.272 7  94157263.25244  22994149.031                    22994159.785
 11  8 27  0 31 30.0000000  0  8G04G10G12G05G17G25G02G30
 120371009.147 7  93795746.21144  22905827.156                    22905838.527
 111709182.255 7  87046258.15845  21257525.094                    21257535.684
 109603387.912 8  85405302.830 7  20856827.672                    20856836.621
 109415983.646 8  85259316.519 7  20821144.898                    20821155.172
 126307261.086 6  98421304.470 6  24035474.891                    24035488.871
 120018594.148 7  93521035.965 7  22838780.766                    22838793.805
 109285139.938 8  85157371.58746  20796244.547                    20796251.793
 120756388.965 7  94095956.31144  22979177.484                    22979188.117
 11  8 27  0 32  0.0000000  0  8G04G10G12G05G17G25G02G30
 120452219.200 7  93859026.73744  22921281.094                    22921292.637
 111759255.731 7  87085276.46245  21267054.305                    21267064.203
 109581818.395 8  85388495.438 7  20852722.992                    20852731.945
 109359253.899 8  85215111.588 7  20810350.031                    20810359.777
 126372753.382 6  98472337.404 6  24047937.500                    24047951.215
 119940517.673 7  93460197.219 7  22823923.211                    22823935.766
 109303295.087 8  85171518.46446  20799699.555                    20799706.586
 120678133.250 7  94034977.89644  22964285.758                    22964296.539
 11  8 27  0 32 30.0000000  0  8G04G10G12G05G17G25G02G30
 120533434.051 7  93922310.99544  22936735.695                    22936747.426
 111809882.813 7  87124726.13545  21276687.789                    21276698.270
 109560812.691 8  85372127.388 7  20848725.695                    20848734.527
 109303025.910 8  85171297.629 7  20799650.008                    20799659.859
 126438436.594 6  98523519.108 6  24060437.273                    24060450.496
 119862820.167 7  93399653.779 7  22809138.203                    22809150.676
 109321637.356 8  85185811.14446  20803189.930                    20803197.316
 120600301.702 7  93974330.00844  22949473.945                    22949486.254
 11  8 27  0 33  0.0000000  0  8G04G10G12G05G17G25G02G30
 120614652.913 7  93985598.37544  22952190.992                    22952202.746
 111861061.813 7  87164605.88145  21286427.016                    21286436.941
 109540371.931 8  85356199.543 7  20844835.844                    20844844.863
 109247302.195 8  85127876.618 8  20789045.617                    20789055.797
 126504311.099 6  98574849.835 6  24072972.586                    24072986.152
 119785504.567 7  93339407.918 7  22794425.453                    22794438.449
 109340166.421 8  85200249.38246  20806715.836                    20806722.996
 120522897.416 7  93914015.02744  22934745.445                    22934756.074
 11  8 27  0 33 30.0000000  0  8G04G10G12G05G17G25G02G30
 120695874.402 7  94048887.80644  22967647.148                    22967658.969
 111912790.615 7  87204914.05445  21296270.641                    21296280.602
 109520497.365 8  85340712.897 7  20841053.797                    20841062.852
 109192084.413 8  85084849.836 7  20778538.563                    20778548.605
 126570376.944 6  98626329.713 6  24085544.711                    24085558.367
 119708572.936 7  93279461.264 7  22779785.344                    22779798.137
 109358880.598 8  85214831.86746  20810276.773                    20810284.047
 120445922.335 7  93854034.51044  22920097.242                    22920107.887
 11  8 27  0 34  0.0000000  0  8G04G10G12G05G17G25G02G30
 120777097.317 7  94112178.36644  22983102.883                    22983115.086
 111965067.409 7  87245649.21945  21306218.711                    21306228.633
 109501189.095 8  85325667.509 7  20837379.633                    20837388.520
 109137374.324 8  85042218.662 7  20768127.164                    20768137.051
 126636634.317 6  98677958.804 6  24098153.078                    24098166.520
 119632027.959 7  93219815.860 7  22765219.023                    22765232.234
 109377778.693 8  85229557.66246  20813873.227                    20813880.582
 120369379.307 7  93794390.69844  22905531.477                    22905542.480
 11  8 27  0 34 30.0000000  0  8G04G10G12G05G17G25G02G30
 120858320.724 6  94175469.29444  22998559.695                    22998570.961
 112017890.224 8  87286809.85945  21316270.422                    21316280.234
 109482448.843 8  85311064.720 7  20833813.336                    20833822.359
 109083173.758 8  84999984.514 7  20757813.156                    20757822.953
 126703083.259 6  98729737.177 6  24110798.219                    24110811.109
 119555872.233 7  93160473.804 7  22750727.711                    22750740.332
 109396859.781 8  85244426.05146  20817504.141                    20817511.535
 120293270.765 7  93735085.40944  22891048.734                    22891060.074
 11  8 27  0 35  0.0000000  0  8G04G10G12G05G17G25G02G30
 120939543.550 6  94238759.76144  23014015.563                    23014027.250
 112071256.672 8  87328394.09646  21326425.719                    21326436.035
 109464277.013 8  85296904.870 7  20830355.680                    20830364.344
 109029484.325 8  84958148.653 8  20747596.258                    20747606.441
 126769723.818 7  98781664.830 6  24123479.641                    24123492.266
 119480108.070 7  93101436.831 7  22736309.727                    22736322.785
 109416122.687 8  85259436.11546  20821169.594                    20821177.129
 120217599.148 7  93676120.57344  22876648.438                    22876659.430
 11  8 27  0 35 30.0000000  0  8G04G10G12G05G17G25G02G30
 121020764.462 7  94302048.75544  23029471.617                    23029483.426
 112125164.878 8  87370400.49245  21336684.469                    21336694.461
 109446674.939 8  85283188.980 7  20827006.078                    20827014.711
 108976307.691 8  84916712.376 7  20737476.898                    20737487.086
 126836556.164 7  98833741.959 6  24136197.352                    24136210.363
 119404738.084 8  93042707.005 7  22721967.727                    22721979.602
 109435566.267 8  85274586.96646  20824869.563                    20824876.711
 120142366.968 7  93617498.17344  22862332.078                    22862343.332
 11  8 27  0 36  0.0000000  0  8G04G10G12G05G17G25G02G30
 121101982.554 7  94365335.54844  23044927.188                    23044938.723
 112179612.715 8  87412827.37245  21347045.453                    21347055.734
 109429643.164 8  85269917.476 7  20823764.859                    20823773.777
 108923645.744 8  84875677.154 8  20727455.773                    20727465.895
 126903580.349 6  98885968.563 6  24148951.148                    24148964.738
 119329764.591 7  92984286.147 7  22707700.406                    22707712.848
 109455189.250 8  85289877.60846  20828603.773                    20828611.094
 120067576.659 7  93559220.09144  22848100.016                    22848111.609
 11  8 27  0 36 30.0000000  0  8G04G10G12G05G17G25G02G30
 121183196.400 7  94428619.02844  23060381.617                    23060392.891
 112234598.088 8  87455673.09945  21357508.523                    21357518.730
 109413182.239 8  85257090.785 7  20820632.430                    20820641.547
 108871499.915 8  84835044.098 8  20717532.469                    20717542.508
 126970796.405 6  98938344.684 6  24161742.219                    24161755.418
 119255189.999 7  92926176.122 7  22693509.203                    22693522.020
 109474990.235 8  85305306.95846  20832371.523                    20832379.289
 119993230.508 7  93501288.07244  22833952.375                    22833963.355
 11  8 27  0 37  0.0000000  0  8G04G10G12G05G17G25G02G30
 121264405.389 7  94491898.75044  23075835.141                    23075846.859
 112290119.079 8  87498936.20445  21368074.281                    21368084.031
 109397293.423 8  85244709.895 7  20817608.820                    20817617.852
 108819872.156 8  84794814.739 8  20707708.352                    20707718.121
 127038204.651 6  98990870.562 6  24174569.266                    24174582.953
 119181017.011 7  92868379.023 7  22679394.344                    22679407.027
 109494968.956 8  85320874.79346  20836173.594                    20836181.004
 119919331.354 7  93443704.38044  22819889.672                    22819900.207
 11  8 27  0 37 30.0000000  0  8G04G10G12G05G17G25G02G30
 121345608.297 7  94555173.73344  23091287.391                    23091299.016
 112346173.369 8  87542614.87045  21378740.867                    21378750.855
 109381977.412 8  85232775.347 7  20814693.953                    20814703.504
 108768763.911 8  84754990.193 7  20697982.836                    20697992.379
 127105805.357 6  99043546.356 6  24187433.648                    24187446.875
 119107248.012 7  92810896.730 7  22665356.414                    22665369.520
 109515124.119 8  85336580.12146  20840009.055                    20840016.426
 119845881.409 7  93386470.70444  22805912.641                    22805923.605
 11  8 27  0 38  0.0000000  0  8G04G10G12G05G17G25G02G30
 121426804.137 7  94618443.21244  23106738.547                    23106750.516
 112402759.409 8  87586707.87845  21389508.727                    21389518.961
 109367235.171 8  85221287.893 7  20811888.961                    20811898.020
 108718177.191 8  84715572.025 8  20688356.055                    20688366.066
 127173598.468 6  99096372.114 6  24200334.180                    24200346.914
 119033885.509 7  92753731.181 7  22651396.594                    22651409.359
 109535454.742 8  85352422.18246  20843877.766                    20843885.117
 119772883.396 7  93329589.17244  22792022.109                    22792032.387
 11  8 27  0 38 30.0000000  0  8G04G10G12G05G17G25G02G30
 121507991.945 7  94681706.40044  23122187.828                    23122199.785
 112459874.467 8  87631213.10745  21400377.031                    21400387.316
 109353067.085 8  85210247.826 7  20809192.836                    20809201.805
 108668113.522 8  84676561.443 8  20678829.398                    20678839.293
 127241583.760 6  99149347.660 6  24213271.063                    24213284.465
 118960931.753 7  92696884.144 7  22637513.367                    22637525.969
 109555959.320 8  85368399.78746  20847779.695                    20847787.551
 119700339.314 7  93273061.37944  22778216.805                    22778227.559
 11  8 27  0 39  0.0000000  0  8G04G10G12G05G17G25G02G30
 121589170.635 7  94744962.52244  23137636.086                    23137647.738
 112517516.501 7  87676128.97345  21411346.328                    21411356.461
 109339473.869 8  85199655.719 7  20806606.195                    20806615.047
 108618574.164 8  84637959.399 8  20669402.328                    20669412.215
 127309761.501 6  99202473.101 6  24226245.438                    24226258.438
 118888389.288 7  92640357.602 7  22623709.273                    22623722.039
 109576636.988 8  85384512.26246  20851714.555                    20851721.777
 119628251.831 7  93216889.35844  22764498.984                    22764509.652
 11  8 27  0 39 30.0000000  0  8G04G10G12G05G17G25G02G30
 121670338.957 7  94808210.53744  23153081.844                    23153093.293
 112575683.107 7  87721453.58945  21422415.008                    21422425.117
 109326456.134 8  85189512.027 7  20804129.063                    20804137.652
 108569560.571 8  84599767.051 8  20660075.328                    20660085.492
 127378131.600 6  99255748.468 6  24239255.859                    24239268.809
 118816260.242 7  92584153.207 7  22609983.391                    22609996.461
 109597486.264 8  85400758.46246  20855681.813                    20855689.156
 119556623.013 7  93161074.74944  22750868.586                    22750879.797
 11  8 27  0 40  0.0000000  0  8G04G10G12G05G17G25G02G30
 121751496.290 7  94871450.02244  23168525.688                    23168536.707
 112634372.364 8  87767185.46245  21433582.922                    21433593.402
 109314014.790 8  85179817.480 7  20801761.531                    20801770.492
 108521074.828 8  84561986.014 8  20650848.828                    20650858.711
 127446694.035 6  99309173.701 6  24252302.156                    24252315.797
 118744547.292 7  92528273.035 7  22596336.891                    22596349.691
 109618506.574 8  85417137.93246  20859682.117                    20859689.699
 119485455.518 7  93105619.59744  22737325.953                    22737337.227
 11  8 27  0 40 30.0000000  0  8G04G10G12G05G17G25G02G30
 121832641.179 7  94934679.78944  23183966.953                    23183978.262
 112693581.720 7  87813322.61245  21444850.344                    21444860.898
 109302150.136 8  85170572.305 7  20799503.805                    20799512.559
 108473117.870 8  84524617.015 8  20641722.797                    20641732.934
 127515449.011 6  99362748.993 6  24265386.320                    24265399.531
 118673252.619 7  92472718.784 7  22582770.211                    22582783.098
 109639696.557 8  85433649.61946  20863714.250                    20863721.840
 119414751.529 7  93050525.66744  22723871.570                    22723882.254
 11  8 27  0 41  0.0000000  0  8G04G10G12G05G17G25G02G30
 121913772.676 6  94997899.11344  23199406.055                    23199416.895
 112753308.714 7  87859863.12545  21456215.984                    21456226.035
 109290862.687 8  85161776.893 7  20797355.695                    20797364.723
 108425691.147 8  84487661.181 8  20632697.750                    20632707.090
 127584396.367 6  99416474.164 6  24278506.570                    24278520.105
 118602378.438 7  92417492.219 7  22569283.109                    22569296.203
 109661054.877 8  85450292.46646  20867778.594                    20867786.469
 119344513.222 7  92995794.58044  22710505.281                    22710516.164
 11  8 27  0 41 30.0000000  0  8G04G10G12G05G17G25G02G30
 121994890.016 7  95061107.41044  23214841.805                    23214853.316
 112813551.769 7  87906805.77145  21467680.000                    21467690.391
 109280153.630 8  85153432.179 7  20795317.922                    20795326.934
 108378796.690 8  84451120.103 8  20623774.195                    20623783.770
 127653536.236 6  99470349.355 5  24291663.180                    24291676.344
 118531927.552 7  92362595.473 7  22555877.070                    22555889.324
 109682580.983 7  85467066.06846  20871874.797                    20871882.363
 119274743.337 7  92941428.50544  22697228.461                    22697239.152
 11  8 27  0 42  0.0000000  0  8G04G10G12G05G17G25G02G30
 122075992.372 7  95124304.01644  23230274.875                    23230286.547
 112874308.108 8  87954148.36045  21479241.477                    21479251.742
 109270023.370 8  85145538.488 7  20793390.164                    20793398.918
 108332435.546 8  84414994.594 8  20614951.992                    20614961.863
 127722868.542 6  99524374.490 6  24304857.203                    24304870.063
 118461902.150 7  92308030.265 7  22542551.516                    22542563.699
 109704274.002 8  85483969.72346  20876002.641                    20876010.594
 119205444.068 7  92887429.13444  22684040.969                    22684052.039
 11  8 27  0 42 30.0000000  0  8G04G10G12G05G17G25G02G30
 122157078.660 7  95187488.08444  23245705.359                    23245717.305
 112935575.742 7  88001889.36745  21490900.438                    21490910.922
 109260472.019 8  85138095.884 7  20791572.867                    20791581.871
 108286609.426 8  84379285.986 8  20606231.313                    20606241.203
 127792393.400 6  99578549.658 6  24318087.539                    24318100.398
 118392304.660 7  92253798.522 7  22529307.188                    22529320.305
 109726132.520 8  85501002.33846  20880162.422                    20880169.887
 119136617.744 7  92833798.30144  22670943.805                    22670954.461
 11  8 27  0 43  0.0000000  0  8G04G10G12G05G17G25G02G30
 122238147.958 7  95250658.92144  23261132.266                    23261144.254
 112997352.442 7  88050027.05645  21502656.117                    21502666.281
 109251500.138 8  85131104.822 7  20789865.023                    20789874.359
 108241319.563 8  84343995.238 8  20597612.945                    20597622.387
 127862110.798 6  99632874.881 6  24331354.188                    24331368.090
 118323137.296 7  92199901.912 7  22516144.711                    22516156.871
 109748155.532 8  85518163.12446  20884353.266                    20884360.809
 119068266.591 7  92780537.71844  22657936.656                    22657947.555
 11  8 27  0 43 30.0000000  0  8G04G10G12G05G17G25G02G30
 122319199.138 7  95313815.64144  23276555.906                    23276567.402
 113059635.502 7  88098559.31345  21514508.320                    21514518.164
 109243108.377 8  85124565.789 7  20788268.406                    20788277.164
 108196567.190 8  84309123.304 8  20589096.492                    20589106.148
 127932020.716 6  99687350.103 5  24344657.172                    24344670.801
 118254402.391 7  92146342.293 7  22503064.852                    22503077.418
 109770342.065 8  85535451.33546  20888575.148                    20888582.648
 119000392.849 7  92727649.15344  22645021.258                    22645032.027
 11  8 27  0 44  0.0000000  0  8G04G10G12G05G17G25G02G30
 122400231.384 6  95376957.59944  23291975.625                    23291987.672
 113122422.696 8  88147484.39545  21526455.898                    21526466.359
 109235296.985 8  85118479.004 7  20786781.891                    20786790.844
 108152353.811 8  84274671.379 8  20580683.320                    20580692.766
 128002122.915 6  99741975.152 5  24357996.961                    24358011.133
 118186102.068 7  92093121.309 7  22490067.930                    22490080.281
 109792690.788 8  85552865.91946  20892828.203                    20892835.504
 118932998.626 7  92675134.18845  22632196.242                    22632207.074
 11  8 27  0 44 30.0000000  0  9G04G10G12G05G17G25G29G02G30
 122481243.983 6  95440084.23744  23307392.383                    23307403.629
 113185711.881 7  88196800.63945  21538499.484                    21538509.664
 109228066.777 8  85112845.075 7  20785406.109                    20785415.227
 108108681.057 8  84240640.706 8  20572372.555                    20572382.215
 128072417.644 7  99796750.264 5  24371374.484                    24371386.598
 118118238.960 7  92040241.013 7  22477154.078                    22477166.473
 129559971.68816 100955880.40616  24654453.578                    24654465.297
 109815201.064 8  85570406.39046  20897111.844                    20897119.215
 118866086.569 7  92622994.97945  22619463.531                    22619475.023
 11  8 27  0 45  0.0000000  0  9G04G10G12G05G17G25G29G02G30
 122562235.865 6  95503194.72244  23322804.422                    23322816.156
 113249500.753 7  88246506.24645  21550638.398                    21550648.422
 109221418.099 8  85107664.297 7  20784140.781                    20784150.059
 108065549.793 8  84207031.981 8  20564164.992                    20564174.500
 128142904.879 7  99851675.439 5  24384787.516                    24384800.500
 118050815.169 7  91987703.049 7  22464323.656                    22464335.551
 129479889.731 6 100893479.045 6  24639214.172                    24639226.605
 109837871.800 8  85588071.88946  20901425.898                    20901433.406
 118799658.599 7  92571232.97344  22606822.852                    22606833.254
 11  8 27  0 45 30.0000000  0  9G04G10G12G05G17G25G29G02G30
 122643206.528 6  95566288.66744  23338212.563                    23338224.598
 113313787.236 8  88296599.61345  21562871.828                    21562882.020
 109215351.613 8  85102937.167 7  20782986.625                    20782995.859
 108022962.023 8  84173846.760 8  20556060.570                    20556070.227
 128213584.918 6  99906750.776 6  24398237.367                    24398250.770
 117983833.526 7  91935509.604 7  22451577.758                    22451589.672
 129399727.050 6 100831014.688 6  24623959.766                    24623972.504
 109860702.451 8  85605862.01046  20905770.555                    20905777.660
 118733717.500 7  92519850.32944  22594274.477                    22594284.680
 11  8 27  0 46  0.0000000  0  9G04G10G12G05G17G25G29G02G30
 122724154.647 6  95629365.06644  23353616.297                    23353628.543
 113378568.203 8  88347078.28345  21575198.836                    21575209.664
 109209866.910 8  85098663.379 7  20781942.672                    20781951.938
 107980918.248 8  84141085.420 8  20548059.773                    20548069.496
 128284457.122 6  99961975.899 6  24411723.508                    24411737.328
 117917295.526 7  91883661.860 7  22438915.836                    22438928.336
 129319483.188 6 100768487.073 6  24608689.625                    24608702.293
 109883691.112 8  85623775.24246  20910144.781                    20910152.305
 118668264.812 7  92468848.24745  22581819.414                    22581829.668
 11  8 27  0 46 30.0000000  0  9G04G10G12G05G17G25G29G02G30
 122805079.382 6  95692423.22444  23369015.641                    23369027.938
 113443841.250 8  88397940.39345  21587620.188                    21587630.488
 109204964.907 8  85094843.648 7  20781009.547                    20781018.965
 107939419.832 8  84108749.045 8  20540163.016                    20540172.508
 128355521.377 7 100017350.657 6  24425247.250                    24425260.516
 117851203.624 7  91832161.723 7  22426339.188                    22426351.344
 129239159.049 6 100705896.894 6  24593404.883                    24593417.148
 109906837.001 7  85641811.00246  20914549.641                    20914556.859
 118603302.816 6  92418228.56744  22569457.438                    22569468.254
 11  8 27  0 47  0.0000000  0  9G04G10G12G05G17G25G29G02G30
 122885979.480 6  95755462.18144  23384411.234                    23384422.672
 113509603.555 8  88449183.73745  21600134.625                    21600144.332
 109200645.000 8  85091477.483 7  20780187.781                    20780196.930
 107898467.733 8  84076838.362 8  20532370.148                    20532379.695
 128426777.266 6 100072874.802 6  24438806.328                    24438819.574
 117785559.638 7  91781010.620 7  22413847.211                    22413859.453
 129158754.917 6 100643244.371 6  24578104.070                    24578116.863
 109930138.445 7  85659967.97246  20918983.477                    20918990.852
 118538833.285 7  92367992.61944  22557188.977                    22557199.523
 11  8 27  0 47 30.0000000  0  9G04G10G12G05G17G25G29G02G30
 122966854.581 7  95818481.65444  23399801.664                    23399813.168
 113575853.371 8  88500806.96745  21612740.852                    21612750.902
 109196907.866 8  85088565.440 7  20779476.836                    20779485.348
 107858063.748 8  84045354.786 8  20524681.828                    20524691.223
 128498225.148 6 100128548.504 6  24452403.039                    24452415.938
 117720366.199 7  91730210.590 7  22401441.203                    22401453.762
 129078271.914 6 100580530.407 6  24562789.008                    24562800.879
 109953595.417 8  85678246.12846  20923447.258                    20923454.582
 118474858.817 7  92318142.43445  22545014.586                    22545025.449
 11  8 27  0 48  0.0000000  0  9G04G10G12G05G17G25G29G02G30
 123047703.340 7  95881480.62044  23415185.922                    23415198.094
 113642587.791 8  88552807.81245  21625440.250                    21625450.652
 109193753.876 8  85086107.783 7  20778876.883                    20778885.789
 107818208.315 8  84014298.657 8  20517097.258                    20517106.566
 128569864.810 6 100184371.652 6  24466035.086                    24466048.695
 117655625.213 7  91679763.133 7  22389121.758                    22389133.762
 128997710.386 6 100517755.261 6  24547458.813                    24547470.387
 109977206.530 8  85696644.39346  20927940.602                    20927947.691
 118411381.294 7  92268679.47845  22532936.055                    22532946.180
 11  8 27  0 48 30.0000000  0  9G04G10G12G05G17G25G29G02G30
 123128525.330 7  95944458.73344  23430566.633                    23430577.906
 113709804.884 8  88605184.76645  21638231.383                    21638241.590
 109191183.383 8  85084104.811 7  20778387.344                    20778396.590
 107778903.253 8  83983671.380 8  20509617.563                    20509627.035
 128641696.197 6 100240344.186 6  24479704.211                    24479717.871
 117591339.241 7  91629670.226 7  22376888.047                    22376900.109
 128917071.132 6 100454919.533 6  24532113.070                    24532125.270
 110000970.987 8  85715162.15546  20932462.313                    20932469.574
 118348403.009 7  92219605.56944  22520951.008                    22520962.063
 11  8 27  0 49  0.0000000  0  9G04G10G12G05G17G25G29G02G30
 123209319.690 7  96007415.29744  23445940.961                    23445952.633
 113777501.495 8  88657935.36345  21651113.508                    21651123.793
 109189196.103 8  85082556.283 7  20778009.242                    20778018.008
 107740149.352 8  83953473.588 8  20502243.000                    20502252.219
 128713718.961 6 100296465.850 6  24493409.516                    24493422.750
 117527510.121 7  91579933.312 7  22364741.563                    22364754.309
 128836354.589 6 100392023.620 6  24516753.398                    24516766.570
 110024887.559 7  85733798.44446  20937013.602                    20937020.977
 118285925.900 7  92170922.16844  22509062.453                    22509073.270
 11  8 27  0 49 30.0000000  0  9G04G10G12G05G17G25G29G02G30
 123290086.436 6  96070350.36644  23461310.836                    23461322.473
 113845676.120 8  88711058.44445  21664086.945                    21664096.977
 109187793.185 8  85081463.106 7  20777742.188                    20777751.332
 107701948.493 8  83923706.725 8  20494973.156                    20494982.574
 128785934.089 6 100352737.377 6  24507151.602                    24507165.340
 117464141.081 7  91530554.903 7  22352682.867                    22352695.441
 128755562.369 6 100329068.719 6  24501379.164                    24501392.004
 110048956.084 8  85752553.14146  20941593.875                    20941601.172
 118223952.995 7  92122631.66744  22497269.672                    22497279.504
 11  8 27  0 50  0.0000000  0  8G04G10G12G05G25G29G02G30
 123370824.031 6  96133262.70744  23476673.602                    23476685.926
 113914325.731 7  88764551.63945  21677150.328                    21677160.676
 109186974.310 7  85080825.029 7  20777586.352                    20777595.691
 107664301.225 8  83894371.247 8  20487808.875                    20487818.797
 117401233.520 7  91481536.094 7  22340711.688                    22340724.563
 128674694.494 6 100266054.904 6  24485990.234                    24486003.199
 110073174.871 8  85771424.92646  20946202.352                    20946209.703
 118162485.692 7  92074735.12445  22485572.523                    22485583.125
 11  8 27  0 50 30.0000000  0  8G04G10G12G05G25G29G02G30
 123451531.746 6  96196151.77544  23492031.984                    23492044.359
 113983447.812 7  88818413.00145  21690303.703                    21690313.855
 109186739.575 8  85080642.135 7  20777541.758                    20777550.645
 107627208.692 8  83865468.011 8  20480751.070                    20480760.281
 117338789.627 7  91432878.577 7  22328829.164                    22328841.969
 128593751.609 7 100202982.628 6  24470587.805                    24470599.289
 110097543.320 8  85790413.33346  20950839.891                    20950847.023
 118101526.134 7  92027234.23445  22473971.602                    22473982.930
 11  8 27  0 51  0.0000000  0  8G04G10G12G05G25G29G02G30
 123532208.379 6  96259016.62843  23507384.117                    23507396.465
 114053039.210 7  88872640.06445  21703546.695                    21703556.500
 109187088.407 7  85080913.958 7  20777608.289                    20777617.285
 107590671.332 8  83836997.388 8  20473798.172                    20473807.520
 117276811.011 7  91384583.603 7  22317035.281                    22317047.586
 128512734.080 6 100139852.173 5  24455170.133                    24455181.594
 110122059.796 8  85809517.08146  20955505.039                    20955512.430
 118041075.620 7  91980129.99745  22462468.836                    22462479.289
 11  8 27  0 51 30.0000000  0  8G04G10G12G05G25G29G02G30
 123612853.026 6  96321856.58144  23522730.367                    23522742.746
 114123097.452 7  88927230.89045  21716877.977                    21716888.535
 109188021.013 7  85081640.676 7  20777785.750                    20777794.219
 107554689.939 8  83808959.987 8  20466950.906                    20466960.398
 117215299.701 7  91336652.764 7  22305329.875                    22305342.086
 128431642.326 6 100076663.949 5  24439739.258                    24439750.203
 110146723.016 8  85828735.17646  20960198.039                    20960205.094
 117981136.125 7  91933423.93945  22451062.625                    22451072.820
 11  8 27  0 52  0.0000000  0  8G04G10G12G05G25G29G02G30
 123693465.300 6  96384671.27244  23538070.891                    23538082.938
 114193620.161 7  88982183.65845  21730298.297                    21730308.340
 109189537.940 8  85082822.709 7  20778074.508                    20778083.242
 107519266.039 8  83781356.992 8  20460209.570                    20460219.461
 117154258.129 7  91289087.950 7  22293714.133                    22293726.188
 128350477.453 6 100013418.743 6  24424293.398                    24424304.934
 110171532.695 8  85848067.40646  20964919.477                    20964926.918
 117921710.103 7  91887117.99544  22439753.742                    22439764.047
 11  8 27  0 52 30.0000000  0  8G04G10G12G05G25G29G02G30
 123774044.308 6  96447460.10244  23553404.539                    23553416.418
 114264604.721 7  89037496.29745  21743805.867                    21743816.352
 109191638.680 8  85084459.653 7  20778473.617                    20778483.148
 107484400.381 8  83754188.989 8  20453575.297                    20453584.520
 117093688.175 8  91241890.634 7  22282187.977                    22282200.219
 128269239.921 6  99950116.895 6  24408835.008                    24408845.977
 110196487.571 8  85867512.77046  20969667.945                    20969675.422
 117862799.299 7  91841213.51744  22428543.570                    22428554.297
 11  8 27  0 53  0.0000000  0  8G04G10G12G05G25G29G02G30
 123854589.358 7  96510222.43744  23568731.367                    23568743.387
 114336049.005 7  89093167.15345  21757401.289                    21757412.070
 109194323.678 8  85086551.871 7  20778984.930                    20778993.949
 107450094.098 8  83727456.865 8  20447047.125                    20447056.359
 117033592.262 8  91195062.693 7  22270751.828                    22270764.027
 128187930.973 6  99886759.434 6  24393361.313                    24393374.348
 110221587.151 8  85887070.89546  20974444.328                    20974451.207
 117804405.979 7  91795712.26245  22417431.961                    22417442.309
 11  8 27  0 53 30.0000000  0  8G04G10G12G05G25G29G02G30
 123935099.754 6  96572957.82143  23584052.063                    23584064.535
 114407950.035 7  89149193.91745  21771083.797                    21771093.961
 109197592.269 8  85089098.838 7  20779606.969                    20779615.980
 107416347.991 8  83701161.236 8  20440625.273                    20440634.793
 116973972.330 8  91148605.641 7  22259407.000                    22259418.844
 128106551.069 6  99823346.710 6  24377874.742                    24377888.039
 110246830.205 8  85906740.82046  20979247.773                    20979255.090
 117746531.998 7  91750615.69844  22406418.438                    22406428.801
 11  8 27  0 54  0.0000000  0  8G04G10G12G05G25G29G02G30
 124015574.425 7  96635665.32143  23599365.992                    23599377.871
 114480304.890 7  89205574.32745  21784852.711                    21784862.938
 109201444.187 8  85092100.346 7  20780339.594                    20780348.563
 107383162.651 8  83675302.573 8  20434310.328                    20434319.395
 116914829.870 7  91102520.648 7  22248152.414                    22248164.223
 128025100.418 6  99759878.820 6  24362375.953                    24362388.070
 110272215.235 8  85926521.36846  20984078.266                    20984085.738
 117689178.714 7  91705924.85745  22395504.375                    22395515.352
 11  8 27  0 54 30.0000000  0  8G04G10G12G05G25G29G02G30
 124096013.183 7  96698344.87643  23614673.602                    23614685.500
 114553111.541 7  89262306.77645  21798707.203                    21798717.691
 109205880.481 8  85095557.204 7  20781183.906                    20781193.328
 107350539.515 8  83649881.997 8  20428102.336                    20428111.797
 116856167.737 7  91056809.925 7  22236989.273                    22237001.363
 127943580.643 6  99696357.070 6  24346862.695                    24346875.313
 110297742.389 8  85946412.67446  20988936.164                    20988943.504
 117632348.846 6  91661641.88745  22384690.094                    22384700.367
 11  8 27  0 55  0.0000000  0  8G04G10G12G05G25G29G02G30
 124176414.926 6  96760995.58443  23629973.148                    23629985.379
 114626366.780 7  89319388.77445  21812647.070                    21812657.570
 109210900.345 8  85099468.804 7  20782139.008                    20782148.273
 107318478.960 7  83624899.788 8  20422001.320                    20422010.723
 116797987.264 7  91011474.535 7  22225918.031                    22225929.832
 127861991.927 6  99632781.593 6  24331337.305                    24331349.070
 110323409.954 8  85966413.38346  20993820.477                    20993828.035
 117576043.647 7  91617767.74745  22373975.391                    22373985.930
 11  8 27  0 55 30.0000000  0  8G04G10G12G05G25G29G02G30
 124256779.308 7  96823617.16143  23645265.633                    23645278.074
 114700068.571 8  89376818.72845  21826671.945                    21826682.250
 109216503.534 8  85103834.935 7  20783205.297                    20783214.539
 107286982.345 8  83600357.014 8  20416007.555                    20416017.051
 116740290.951 8  90966516.415 7  22214938.336                    22214950.563
 127780335.242 6  99569153.112 6  24315798.367                    24315810.344
 110349217.570 8  85986523.22146  20998731.633                    20998738.902
 117520265.522 7  91574304.32045  22363361.703                    22363371.828
 11  8 27  0 56  0.0000000  0  8G04G10G12G05G25G29G02G30
 124337105.423 7  96886208.95743  23660551.148                    23660563.465
 114774213.851 7  89434594.26345  21840781.555                    21840791.738
 109222689.760 8  85108655.372 7  20784382.648                    20784391.598
 107256049.618 8  83576253.630 8  20410121.242                    20410130.852
 116683080.294 7  90921936.716 7  22204051.672                    22204063.988
 127698610.974 6  99505471.959 6  24300246.578                    24300258.434
 110375163.686 8  86006740.98746  21003669.094                    21003676.195
 117465015.747 7  91531252.60545  22352848.102                    22352858.469
 11  8 27  0 56 30.0000000  0  8G04G10G12G05G25G29G02G30
 124417392.666 7  96948770.41943  23675829.445                    23675841.926
 114848800.404 7  89492713.65145  21854975.078                    21854985.215
 109229459.201 8  85113930.276 7  20785670.852                    20785679.633
 107225682.079 8  83552590.656 8  20404342.438                    20404351.879
 116626357.609 7  90877737.272 7  22193257.172                    22193269.961
 127616820.441 6  99441739.162 6  24284682.148                    24284694.145
 110401247.800 8  86027066.28446  21008632.563                    21008640.195
 117410296.568 7  91488614.34645  22342434.891                    22342445.180
 11  8 27  0 57  0.0000000  0  8G04G10G12G05G25G29G02G30
 124497640.239 7  97011301.01543  23691100.109                    23691112.199
 114923825.082 7  89551174.43445  21869251.859                    21869261.719
 109236811.663 8  85119659.462 7  20787069.914                    20787079.137
 107195880.579 8  83529368.753 8  20398671.320                    20398680.883
 116570124.858 7  90833919.574 7  22182556.602                    22182569.246
 127534964.595 6  99377955.447 6  24269106.242                    24269117.844
 110427469.233 8  86047498.58446  21013622.352                    21013629.754
 117356109.726 7  91446390.89145  22332123.383                    22332133.688
 11  8 27  0 57 30.0000000  0  8G04G10G12G05G25G29G02G30
 124577847.997 7  97073800.55143  23706363.438                    23706374.930
 114999285.521 7  89609974.77245  21883611.133                    21883621.531
 109244747.056 8  85125842.881 7  20788580.234                    20788589.145
 107166646.006 8  83506588.604 8  20393108.320                    20393117.879
 116514384.101 7  90790485.251 7  22171949.977                    22171962.285
 127453043.920 6  99314121.209 6  24253516.578                    24253527.922
 110453827.352 8  86068037.38546  21018638.141                    21018645.344
 117302457.267 7  91404583.84245  22321913.906                    22321924.535
 11  8 27  0 58  0.0000000  0  8G04G10G12G05G25G29G02G30
 124658014.391 7  97136267.86943  23721618.258                    23721630.465
 115075178.107 7  89669111.83445  21898053.391                    21898063.773
 109253264.180 8  85132479.600 7  20790200.641                    20790210.000
 107137978.131 8  83484250.043 8  20387653.086                    20387662.477
 116459136.255 8  90747435.009 7  22161436.094                    22161448.594
 127371058.937 6  99250236.875 6  24237915.172                    24237926.785
 110480319.952 8  86088680.98346  21023679.328                    21023686.695
 117249339.855 7  91363193.71345  22311806.086                    22311816.391
 11  8 27  0 58 30.0000000  0  8G04G10G12G05G25G29G02G30
 124738139.126 7  97198702.71643  23736865.492                    23736877.309
 115151501.212 7  89728584.37345  21912577.352                    21912587.293
 109262363.514 8  85139569.986 7  20791932.203                    20791941.289
 107109878.087 8  83462353.945 8  20382305.570                    20382315.090
 116404383.928 7  90704770.884 7  22151017.398                    22151029.793
 127289010.724 6  99186303.264 6  24222302.141                    24222313.488
 110506946.817 8  86109429.19746  21028746.516                    21028753.918
 117196759.974 7  91322222.44445  22301800.203                    22301810.805
 11  8 27  0 59  0.0000000  0  8G04G10G12G05G25G29G02G30
 124818221.852 7  97261104.83743  23752105.398                    23752116.813
 115228252.042 7  89788390.20045  21927182.484                    21927192.641
 109272044.271 8  85147113.427 7  20793774.469                    20793783.754
 107082346.747 8  83440900.992 8  20377066.555                    20377075.895
 116350129.133 7  90662494.437 7  22140692.969                    22140705.164
 127206900.281 6  99122321.150 6  24206677.172                    24206688.852
 110533707.454 8  86130281.65346  21033838.867                    21033845.910
 117144719.499 7  91281671.48845  22291896.984                    22291907.250
 11  8 27  0 59 30.0000000  0  8G04G10G12G05G25G29G02G30
 124898261.971 7  97323473.73443  23767335.805                    23767348.172
 115305427.654 7  89848527.02845  21941867.938                    21941878.563
 109282306.365 8  85155109.858 7  20795727.453                    20795736.563
 107055384.631 8  83419891.589 8  20371935.688                    20371945.320
 116296373.570 8  90620607.009 7  22130463.789                    22130475.625
 127124728.460 6  99058291.184 6  24191039.523                    24191051.480
 110560600.925 8  86151237.60646  21038956.492                    21038963.711
 117093220.005 7  91241542.06445  22282096.906                    22282107.320
 11  8 27  1  0  0.0000000  0  8G04G10G12G05G25G29G02G30
 124978258.304 7  97385808.50743  23782558.922                    23782571.422
 115383025.430 7  89908992.82945  21956634.656                    21956645.035
 109293149.274 8  85163558.873 8  20797790.836                    20797800.164
 107028992.116 8  83399326.031 8  20366913.352                    20366922.902
 116243118.857 8  90579109.833 7  22120329.445                    22120341.863
 127042496.284 6  98994214.232 6  24175392.313                    24175403.508
 110587626.045 8  86172296.14646  21044099.109                    21044106.547
 117042262.832 7  91201835.23045  22272400.102                    22272410.586
 11  8 27  1  0 30.0000000  0  8G04G10G12G05G25G29G02G30
 125058210.058 7  97448108.56843  23797773.023                    23797784.758
 115461041.783 7  89969784.76845  21971480.953                    21971490.973
 109304572.102 8  85172459.769 7  20799963.930                    20799973.484
 107003169.136 8  83379204.265 8  20361999.305                    20362009.156
 116190366.315 8  90538003.958 7  22110291.047                    22110303.324
 126960203.371 6  98930089.960 6  24159732.227                    24159743.344
 110614780.937 8  86193455.80246  21049266.484                    21049273.906
 116991849.228 7  91162551.95145  22262806.023                    22262816.965
 11  8 27  1  1  0.0000000  0  8G04G10G12G05G25G29G02G30
 125138117.936 6  97510374.36943  23812979.820                    23812991.328
 115539475.280 7  90030901.77245  21986406.500                    21986416.219
 109316575.419 8  85181812.997 7  20802248.250                    20802257.430
 106977917.682 8  83359527.847 8  20357194.164                    20357203.711
 116138119.092 7  90497291.840 7  22100348.633                    22100361.129
 126877852.109 6  98865920.235 6  24144060.867                    24144072.445
 110642066.919 8  86214717.60346  21054459.031                    21054466.137
 116941982.116 7  91123694.49345  22253316.906                    22253327.168
 11  8 27  1  1 30.0000000  0  8G04G10G12G05G25G29G02G30
 125217980.753 6  97572605.13643  23828176.297                    23828188.980
 115618322.770 7  90092341.35845  22001410.430                    22001420.531
 109329158.590 8  85191618.065 7  20804643.000                    20804652.223
 106953237.856 8  83340296.857 8  20352497.836                    20352507.086
 116086378.447 7  90456974.453 7  22090503.203                    22090515.043
 126795443.291 6  98801705.651 6  24128379.094                    24128390.770
 110669482.586 8  86236080.46646  21059675.883                    21059682.977
 116892662.638 7  91085263.76745  22243932.500                    22243942.043
 11  8 27  1  2  0.0000000  0  8G04G10G12G05G25G29G02G30
 125297797.750 6  97634800.15343  23843365.055                    23843377.543
 115697580.774 7  90154100.83045  22016492.664                    22016502.965
 109342320.515 8  85201874.096 7  20807147.539                    20807156.734
 106929129.521 8  83321511.181 8  20347910.227                    20347919.523
 116035145.785 8  90417052.896 7  22080753.570                    22080765.824
 126712977.218 6  98737446.430 6  24112686.227                    24112697.648
 110697026.402 8  86257543.17446  21064917.609                    21064924.563
 116843892.008 7  91047260.69245  22234651.438                    22234661.379
 11  8 27  1  2 30.0000000  0  8G04G10G12G05G25G29G02G30
 125377568.554 7  97696959.14943  23858545.805                    23858557.453
 115777247.220 7  90216178.56245  22031652.516                    22031663.250
 109356061.054 8  85212581.010 7  20809762.453                    20809771.387
 106905593.638 8  83303171.569 8  20343431.477                    20343440.746
 115984423.280 8  90377528.875 7  22071101.484                    22071113.391
 126630455.103 6  98673143.599 6  24096982.898                    24096994.805
 110724698.013 8  86279105.47246  21070183.070                    21070190.445
 116795672.204 7  91009686.83545  22225475.313                    22225485.453
 11  8 27  1  3  0.0000000  0  8G04G10G12G05G25G29G02G30
 125457292.574 6  97759081.72243  23873716.156                    23873728.680
 115857319.241 7  90278572.33645  22046890.250                    22046900.488
 109370379.419 8  85223738.176 7  20812486.789                    20812496.270
 106882630.456 8  83285278.222 8  20339061.680                    20339070.660
 115934212.291 7  90338403.429 7  22061546.703                    22061558.762
 126547877.447 6  98608797.452 6  24081268.328                    24081279.988
 110752496.192 8  86300766.39846  21075472.969                    21075480.508
 116748004.315 7  90972543.03845  22216404.305                    22216414.461
 11  8 27  1  3 30.0000000  0  8G04G10G12G05G25G29G02G30
 125536968.658 7  97821166.94943  23888878.492                    23888890.125
 115937793.634 7  90341279.63045  22062203.656                    22062214.141
 109385275.023 8  85235345.139 7  20815321.773                    20815331.074
 106860239.687 8  83267830.911 8  20334800.797                    20334810.129
 115884514.158 8  90299677.612 7  22052089.703                    22052101.590
 126465245.167 6  98544408.781 6  24065544.203                    24065555.754
 110780419.679 8  86322524.96346  21080786.859                    21080794.051
 116700889.684 7  90935830.33445  22207438.727                    22207448.742
 11  8 27  1  4  0.0000000  0  8G04G10G12G05G25G29G02G30
 125616596.504 7  97883214.57643  23904031.398                    23904042.746
 116018667.566 7  90404298.26045  22077593.203                    22077603.949
 109400747.495 8  85247401.600 7  20818265.641                    20818275.160
 106838422.573 8  83250830.594 8  20330649.016                    20330658.285
 115835330.867 8  90261352.977 7  22042730.203                    22042742.133
 126382559.570 6  98479978.536 6  24049809.445                    24049821.242
 110808468.202 8  86344380.94946  21086124.000                    21086131.305
 116654330.028 7  90899550.07645  22198578.508                    22198589.215
 11  8 27  1  4 30.0000000  0  8G04G10G12G05G25G29G02G30
 125696176.458 6  97945224.87943  23919175.016                    23919187.000
 116099939.282 7  90467626.84745  22093058.906                    22093069.184
 109416796.654 8  85259907.435 8  20821319.867                    20821329.227
 106817179.398 8  83234277.514 8  20326606.539                    20326615.727
 115786664.899 8  90223431.464 7  22033469.219                    22033481.352
 126299822.101 6  98415507.886 6  24034065.273                    24034077.047
 110836641.838 8  86366334.43246  21091485.117                    21091492.594
 116608327.634 7  90863704.03945  22189824.672                    22189835.066
 11  8 27  1  5  0.0000000  0  8G04G10G12G05G25G29G02G30
 125775707.570 6  98007197.15843  23934308.953                    23934321.633
 116181605.592 7  90531262.90445  22108599.266                    22108610.277
 109433420.895 8  85272861.379 7  20824483.563                    20824492.738
 106796510.553 8  83218171.955 8  20322673.328                    20322682.590
 115738517.475 7  90185914.016 7  22024306.969                    22024318.949
 126217033.192 6  98350997.127 6  24018310.773                    24018322.289
 110864939.136 8  86388384.28446  21096870.234                    21096877.344
 116562883.467 7  90828292.99245  22181177.211                    22181187.582
 11  8 27  1  5 30.0000000  0  8G04G10G12G05G25G29G02G30
 125855189.164 6  98069130.83843  23949433.680                    23949445.855
 116263663.156 7  90595203.84545  22124214.469                    22124224.676
 109450620.065 8  85286263.326 7  20827756.391                    20827765.523
 106776416.228 8  83202514.070 8  20318849.742                    20318859.031
 115690889.837 8  90148801.588 7  22015243.984                    22015255.898
 126134193.778 7  98286447.044 6  24002546.977                    24002558.590
 110893359.201 8  86410529.79346  21102278.109                    21102285.406
 116517998.676 7  90793317.81645  22172636.289                    22172646.094
 11  8 27  1  6  0.0000000  0  8G04G10G12G05G25G29G02G30
 125934620.876 6  98131025.63843  23964548.984                    23964561.309
 116346109.577 7  90659447.79345  22139903.469                    22139913.922
 109468393.512 8  85300112.763 7  20831138.539                    20831147.492
 106756896.880 8  83187304.228 8  20315135.313                    20315144.488
 115643783.987 8  90112095.756 7  22006279.992                    22006292.172
 126051305.084 7  98221858.555 6  23986773.750                    23986785.145
 110921901.546 8  86432770.58846  21107709.555                    21107717.188
 116473674.999 7  90758779.87745  22164201.180                    22164211.777
 11  8 27  1  6 30.0000000  0  8G04G10G12G05G25G29G02G30
 126014001.441 6  98192880.58943  23979654.289                    23979667.246
 116428941.186 7  90723991.86345  22155666.227                    22155676.621
 109486739.939 8  85314408.671 7  20834629.813                    20834638.875
 106737951.696 8  83172541.774 8  20311530.070                    20311539.422
 115597200.641 8  90075797.072 7  21997415.227                    21997427.719
 125968367.350 7  98157231.837 6  23970991.219                    23971002.496
 110950564.160 8  86455105.09346  21113163.820                    21113171.141
 116429912.979 7  90724679.60045  22155874.094                    22155884.555
 11  8 27  1  7  0.0000000  0  8G04G10G12G05G25G29G02G30
 126093330.993 7  98254695.78343  23994750.625                    23994763.000
 116512155.665 7  90788834.30245  22171500.922                    22171511.348
 109505658.832 8  85329150.660 7  20838230.000                    20838238.895
 106719581.834 8  83158227.629 8  20308034.031                    20308043.488
 115551142.041 8  90039907.289 7  21988650.453                    21988662.988
 125885382.044 7  98092568.034 6  23955199.172                    23955210.879
 110979347.072 8  86477533.34046  21118640.977                    21118648.488
 116386714.648 7  90691018.56245  22147653.359                    22147664.043
 11  8 27  1  7 30.0000000  0  8G04G10G12G05G25G29G02G30
 126172609.405 6  98316471.16043  24009836.766                    24009848.816
 116595750.809 7  90853973.35045  22187409.117                    22187419.570
 109525149.632 8  85344338.294 7  20841939.328                    20841948.250
 106701787.657 8  83144362.065 8  20304647.953                    20304657.449
 115505609.914 8  90004427.749 7  21979986.375                    21979998.145
 125802350.285 6  98027868.060 6  23939398.805                    23939409.898
 111008249.975 8  86500055.08946  21124141.227                    21124149.020
 116344081.472 7  90657797.89745  22139541.008                    22139551.172
 11  8 27  1  8  0.0000000  0  8G04G10G12G05G25G29G02G30
 126251835.828 6  98378205.97943  24024913.195                    24024925.379
 116679723.231 7  90919406.37745  22203388.023                    22203398.457
 109545211.211 8  85359970.684 7  20845756.273                    20845765.652
 106684568.976 8  83130944.945 8  20301371.672                    20301380.699
 115460605.463 8  89969359.373 7  21971421.992                    21971434.051
 125719272.972 7  97963132.567 6  23923589.453                    23923601.020
 111037271.633 8  86522669.36046  21129663.633                    21129671.348
 116302014.554 7  90625018.47845  22131534.992                    22131546.227
 11  8 27  1  8 30.0000000  0  8G04G10G12G05G25G29G02G30
 126331009.944 6  98439900.06643  24039980.219                    24039991.813
 116764070.076 7  90985131.17745  22219438.992                    22219449.234
 109565843.314 8  85376047.638 7  20849682.688                    20849691.801
 106667926.190 8  83117976.569 8  20298204.352                    20298213.723
 115416130.493 7  89934703.595 7  21962958.625                    21962970.898
 125636151.261 7  97898362.477 6  23907772.258                    23907783.457
 111066411.667 8  86545375.87946  21135208.781                    21135216.492
 116260515.414 7  90592681.50245  22123638.531                    22123648.922
 11  8 27  1  9  0.0000000  0  8G04G10G12G05G25G29G02G30
 126410130.943 6  98501552.74843  24055036.281                    24055047.617
 116848788.560 7  91051145.54545  22235560.273                    22235570.855
 109587044.521 8  85392568.049 7  20853717.180                    20853726.566
 106651858.976 8  83105456.693 8  20295147.047                    20295156.137
 115372186.148 8  89900461.283 7  21954596.469                    21954608.547
 125552985.907 7  97833558.358 6  23891946.852                    23891957.848
 111095668.742 8  86568173.60146  21140776.195                    21140783.527
 116219584.966 7  90560787.66145  22115849.805                    22115860.125
 11  8 27  1  9 30.0000000  0  8G04G10G12G05G25G29G02G30
 126489198.506 6  98563163.78143  24070082.234                    24070094.449
 116933875.839 7  91117447.30845  22251751.938                    22251762.574
 109608814.145 8  85409531.383 7  20857859.742                    20857869.070
 106636367.623 8  83093385.538 8  20292198.719                    20292208.313
 115328773.829 8  89866633.531 7  21946335.414                    21946347.188
 125469778.115 7  97768721.196 6  23876111.438                    23876123.516
 111125042.358 8  86591062.13046  21146366.297                    21146373.469
 116179224.426 7  90529337.91245  22108169.195                    22108180.141
 11  8 27  1 10  0.0000000  0  8G04G10G12G05G25G29G02G30
 126568212.806 6  98624733.33943  24085117.367                    24085130.098
 117019329.328 7  91184034.40245  22268012.883                    22268023.820
 109631151.559 8  85426937.155 7  20862110.531                    20862119.516
 106621452.515 8  83081763.400 8  20289360.891                    20289370.051
 115285895.536 8  89833221.912 7  21938175.813                    21938187.621
 125386529.178 7  97703851.965 6  23860270.180                    23860281.363
 111154532.422 8  86614041.40746  21151977.992                    21151984.852
 116139435.470 7  90498333.54945  22100597.938                    22100608.352
 11  8 27  1 10 30.0000000  0  8G04G10G12G05G25G29G02G30
 126647173.011 6  98686260.72643  24100143.359                    24100155.793
 117105146.081 7  91250904.57545  22284343.375                    22284353.938
 109654055.474 8  85444784.354 7  20866469.023                    20866478.082
 106607113.806 8  83070590.410 8  20286632.234                    20286641.484
 115243552.472 8  89800227.353 7  21930118.055                    21930130.324
 125303240.255 6  97638951.559 6  23844420.719                    23844432.191
 111184137.797 8  86637110.52946  21157611.430                    21157618.965
 116100219.163 7  90467775.40845  22093134.828                    22093145.652
 11  8 27  1 11  0.0000000  0  8G04G10G12G05G25G29G02G30
 126726078.497 6  98747745.48443  24115159.555                    24115171.160
 117191322.779 7  91318055.23445  22300742.547                    22300753.039
 109677524.886 8  85463072.202 7  20870935.305                    20870944.297
 106593350.896 8  83059866.092 8  20284013.297                    20284022.637
 115201745.798 8  89767650.753 7  21922162.891                    21922174.965
 125219912.027 7  97574020.536 6  23828563.781                    23828575.348
 111213857.504 8  86660268.74246  21163267.086                    21163274.453
 116061576.532 7  90437664.28845  22085781.617                    22085791.957
 11  8 27  1 11 30.0000000  0  8G04G10G12G05G25G29G02G30
 126804929.219 6  98809187.51843  24130163.719                    24130176.230
 117277856.614 7  91385484.18345  22317209.945                    22317219.824
 109701558.905 8  85481800.003 7  20875508.516                    20875517.922
 106580164.060 8  83049590.668 8  20281503.781                    20281512.887
 115160477.010 8  89735493.278 7  21914309.188                    21914321.559
 125136545.767 7  97509059.873 6  23812700.219                    23812711.246
 111243691.051 8  86683515.66746  21168943.906                    21168951.492
 116023508.671 7  90408001.05445  22078537.109                    22078547.852
 11  8 27  1 12  0.0000000  0  8G04G10G12G05G25G29G02G30
 126883724.641 6  98870586.47043  24145156.625                    24145169.973
 117364745.214 7  91453189.57245  22333743.680                    22333754.227
 109726156.628 8  85500967.050 7  20880189.398                    20880198.281
 106567553.469 8  83039764.258 8  20279103.875                    20279113.152
 115119747.643 8  89703756.128 7  21906558.852                    21906571.316
 125053142.787 7  97444070.587 6  23796828.664                    23796840.156
 111273637.985 8  86706850.94746  21174642.664                    21174650.242
 115986016.898 7  90378786.73245  22071402.563                    22071413.277
 11  8 27  1 12 30.0000000  0  9G04G10G12G05G26G25G29G02G30
 126962464.295 6  98931941.97443  24160142.266                    24160154.063
 117451985.470 7  91521168.95944  22350344.672                    22350355.297
 109751317.123 8  85520572.612 7  20884977.070                    20884986.410
 106555519.069 8  83030386.839 8  20276813.883                    20276823.164
 130598328.88316 101765003.17653  24852040.227                    24852054.586
 115079558.914 7  89672440.255 7  21898911.258                    21898923.074
 124969703.859 7  97379053.316 6  23780950.953                    23780961.938
 111303697.428 8  86730273.89246  21180363.109                    21180369.953
 115949102.243 7  90350022.07945  22064378.203                    22064388.859
 11  8 27  1 13  0.0000000  0  9G04G10G12G05G26G25G29G02G30
 127041147.700 6  98993253.65343  24175114.258                    24175126.840
 117539574.260 7  91589419.95845  22367012.609                    22367022.895
 109777038.852 8  85540615.515 7  20889871.336                    20889880.941
 106544060.297 8  83021457.953 8  20274633.320                    20274642.699
 130506963.862 6 101693809.97143  24834654.289                    24834668.109
 115039911.939 7  89641546.527 7  21891366.586                    21891378.527
 124886230.375 7  97314009.092 6  23765066.078                    23765077.785
 111333868.478 8  86753783.80746  21186103.938                    21186111.539
 115912765.478 7  90321707.74745  22057463.570                    22057473.891
 11  8 27  1 13 30.0000000  0  9G04G10G12G05G26G25G29G02G30
 127119774.003 6  99054520.84143  24190076.922                    24190089.480
 117627508.350 7  91657940.01644  22383745.977                    22383756.570
 109803320.337 8  85561094.589 7  20894873.141                    20894882.492
 106533176.801 8  83012977.344 8  20272562.461                    20272571.625
 130415453.923 6 101622503.79443  24817240.008                    24817254.645
 115000807.409 8  89611075.488 7  21883925.328                    21883937.094
 124802722.624 7  97248938.173 6  23749175.234                    23749186.273
 111364149.738 8  86777379.59846  21191866.555                    21191874.297
 115877007.167 7  90293844.16045  22050658.945                    22050669.246
 11  8 27  1 14  0.0000000  0  9G04G10G12G05G26G25G29G02G30
 127198343.653 6  99115743.88143  24205028.445                    24205040.391
 117715785.511 7  91726727.40344  22400545.109                    22400554.852
 109830161.196 8  85582009.538 7  20899980.797                    20899989.828
 106522869.204 8  83004945.485 8  20270600.805                    20270609.953
 130323802.870 6 101551087.68143  24799799.172                    24799813.949
 114962247.649 8  89581028.931 7  21876587.609                    21876599.906
 124719182.487 7  97183842.038 6  23733278.172                    23733289.543
 111394541.566 8  86801061.54146  21197649.969                    21197657.512
 115841829.252 7  90266432.82045  22043965.063                    22043974.918
 11  8 27  1 14 30.0000000  0  9G04G10G12G05G26G25G29G02G30
 127276856.381 6  99176922.55543  24219968.945                    24219980.809
 117804402.980 7  91795779.96544  22417407.797                    22417418.230
 109857560.486 7  85603359.632 7  20905194.711                    20905203.996
 106513137.467 8  82997362.348 8  20268749.047                    20268758.297
 130232013.089 6 101479563.42743  24782331.703                    24782346.855
 114924233.786 8  89551407.751 7  21869353.555                    21869365.934
 124635611.248 7  97118721.643 6  23717374.461                    23717386.188
 111425043.419 8  86824829.22946  21203454.461                    21203461.551
 115807232.724 7  90239474.51145  22037381.383                    22037391.570
 11  8 27  1 15  0.0000000  0  9G04G10G12G05G26G25G29G02G30
 127355311.434 6  99238056.24843  24234897.797                    24234911.066
 117893357.549 7  91865095.21245  22434335.438                    22434345.813
 109885516.796 8  85625143.768 7  20910514.320                    20910523.629
 106503980.825 8  82990227.334 8  20267006.539                    20267015.957
 130140087.475 6 101407933.35943  24764838.719                    24764854.133
 114886766.800 8  89522212.717 7  21862224.156                    21862236.254
 124552009.951 7  97053577.824 6  23701466.008                    23701476.980
 111455654.230 8  86848681.81446  21209279.430                    21209286.738
 115773218.224 7  90212969.70045  22030908.844                    22030918.598
 11  8 27  1 15 30.0000000  0  9G04G10G12G05G26G25G29G02G30
 127433708.641 6  99299144.93843  24249816.813                    24249829.332
 117982646.418 7  91934670.92744  22451326.633                    22451337.598
 109914028.863 8  85647360.953 7  20915940.063                    20915949.777
 106495399.192 8  82983540.382 8  20265373.156                    20265382.684
 130048028.715 6 101336199.49843  24747320.375                    24747334.828
 114849847.923 8  89493444.778 7  21855198.602                    21855210.500
 124468379.607 7  96988411.382 6  23685552.016                    23685563.453
 111486373.493 8  86872618.89846  21215124.875                    21215132.098
 115739786.703 7  90186919.18345  22024546.992                    22024557.000
 11  8 27  1 16  0.0000000  0  9G04G10G12G05G26G25G29G02G30
 127512047.643 6  99360188.23443  24264724.070                    24264736.953
 118072266.817 7  92004504.98344  22468380.477                    22468391.395
 109943095.661 8  85670010.397 7  20921471.813                    20921480.527
 106487392.663 8  82977301.566 8  20263849.578                    20263858.766
 129955839.799 6 101264364.21642  24729777.461                    24729791.621
 114813478.607 7  89465105.051 7  21848277.719                    21848289.777
 124384721.745 7  96923223.497 6  23669631.734                    23669643.082
 111517200.574 8  86896639.99946  21220991.617                    21220998.633
 115706939.367 7  90161323.86145  22018296.305                    22018306.402
 11  8 27  1 16 30.0000000  0  9G04G10G12G05G26G25G29G02G30
 127590328.255 6  99421186.01443  24279620.336                    24279632.844
 118162216.084 7  92074595.30044  22485497.750                    22485508.336
 109972715.794 8  85693091.018 7  20927108.023                    20927117.508
 106479960.864 8  82971510.587 8  20262435.281                    20262444.668
 129863523.388 5 101192429.60642  24712208.922                    24712223.934
 114777659.813 8  89437194.314 7  21841461.500                    21841473.703
 124301037.464 7  96858015.040 6  23653708.109                    23653718.668
 111548134.872 8  86920744.65046  21226877.695                    21226885.379
 115674677.046 7  90136184.39245  22012156.742                    22012167.309
 11  8 27  1 17  0.0000000  0  9G04G10G12G05G26G25G29G02G30
 127668550.321 6  99482138.22143  24294506.008                    24294517.891
 118252491.028 7  92144939.39044  22502676.078                    22502686.859
 110002888.186 8  85716601.973 7  20932849.805                    20932858.859
 106473103.708 8  82966167.384 8  20261130.680                    20261139.801
 129771082.677 5 101120398.09942  24694618.242                    24694633.359
 114742392.921 8  89409713.627 7  21834750.656                    21834762.586
 124217327.994 7  96792786.925 6  23637778.313                    23637788.672
 111579176.012 8  86944932.55046  21232784.609                    21232792.563
 115643000.611 7  90111501.45945  22006128.547                    22006139.465
 11  8 27  1 17 30.0000000  0  9G04G10G12G05G26G25G29G02G30
 127746713.130 6  99543044.20343  24309379.930                    24309392.820
 118343088.500 7  92215534.80444  22519916.234                    22519926.750
 110033611.424 8  85740542.160 7  20938696.000                    20938705.203
 106466820.607 8  82961271.490 8  20259935.234                    20259944.371
 129678520.241 6 101048271.75343  24677004.086                    24677018.977
 114707678.678 7  89382663.583 7  21828144.625                    21828156.668
 124133594.270 7  96727539.931 6  23621844.047                    23621855.191
 111610322.889 7  86969202.84946  21238711.664                    21238719.414
 115611910.645 7  90087275.52845  22000212.500                    22000223.070
 11  8 27  1 18  0.0000000  0  9G04G10G12G05G26G25G29G02G30
 127824816.377 6  99603903.85443  24324242.133                    24324254.984
 118434005.834 7  92286379.45244  22537217.789                    22537227.734
 110064884.716 8  85764910.961 7  20944647.258                    20944656.434
 106461111.178 8  82956822.614 8  20258848.422                    20258857.961
 129585838.902 6 100976052.74643  24659367.531                    24659382.094
 114673518.327 8  89356045.148 7  21821644.047                    21821656.109
 124049837.630 7  96662275.093 6  23605905.727                    23605916.605
 111641575.047 8  86993555.17746  21244658.914                    21244666.711
 115581408.128 7  90063507.32445  21994408.289                    21994418.410
 11  8 27  1 18 30.0000000  0  9G04G10G12G05G26G25G29G02G30
 127902860.144 6  99664717.09343  24339093.469                    24339106.570
 118525240.287 7  92357471.19144  22554578.313                    22554589.555
 110096705.764 8  85789706.579 7  20950702.492                    20950711.852
 106455975.411 8  82952820.743 8  20257871.203                    20257880.230
 129493041.749 6 100903743.47842  24641708.141                    24641723.000
 114639912.997 8  89329859.192 7  21815249.227                    21815261.379
 123966059.209 7  96596993.272 6  23589962.977                    23589974.316
 111672932.061 8  87017989.21246  21250626.172                    21250633.250
 115551493.908 7  90040197.54445  21988716.336                    21988726.160
 11  8 27  1 19  0.0000000  0  9G04G10G12G05G26G25G29G02G30
 127980844.030 6  99725483.72343  24353933.453                    24353946.223
 118616788.739 7  92428807.61044  22572000.008                    22572010.586
 110129073.831 8  85814928.449 7  20956861.969                    20956871.004
 106451413.232 8  82949265.831 8  20257003.008                    20257012.145
 129400131.729 6 100831346.25843  24624027.734                    24624042.402
 114606863.924 8  89304106.693 7  21808959.695                    21808971.941
 123882261.000 7  96531696.021 6  23574016.813                    23574027.840
 111704393.552 8  87042504.64946  21256612.984                    21256620.367
 115522168.864 7  90017346.86945  21983135.031                    21983146.176
 11  8 27  1 19 30.0000000  0  9G04G10G12G05G26G25G29G02G30
 128058767.353 6  99786203.13443  24368762.086                    24368774.895
 118708647.950 7  92500386.17744  22589480.070                    22589490.801
 110161986.938 7  85840575.021 7  20963125.234                    20963134.398
 106447422.817 8  82946156.439 8  20256243.453                    20256252.824
 129307111.309 6 100758863.06642  24606326.555                    24606341.223
 114574371.447 7  89278787.897 7  21802776.867                    21802789.258
 123798443.245 7  96466383.565 6  23558066.531                    23558077.199
 111735957.899 8  87067100.24446  21262619.203                    21262626.660
 115493433.218 7  89994955.46545  21977666.852                    21977677.477
 11  8 27  1 20  0.0000000  0  9G04G10G12G05G26G25G29G02G30
 128136630.294 6  99846875.49843  24383578.273                    24383591.711
 118800815.867 7  92572205.29444  22607018.922                    22607029.641
 110195444.256 7  85866645.658 7  20969492.016                    20969501.063
 106444004.840 7  82943493.106 8  20255593.102                    20255602.234
 129213983.680 6 100686296.28742  24588604.742                    24588619.332
 114542437.176 7  89253904.082 7  21796700.094                    21796712.047
 123714607.810 6  96401057.322 6  23542113.273                    23542124.289
 111767625.586 7  87091776.35846  21268645.664                    21268652.820
 115465288.100 7  89973024.21845  21972311.367                    21972321.301
 11  8 27  1 20 30.0000000  0  9G04G10G12G05G26G25G29G02G30
 128214432.470 6  99907500.54743  24398383.992                    24398397.012
 118893289.053 7  92644262.29044  22624616.336                    22624626.723
 110229444.203 8  85893139.112 7  20975961.711                    20975970.781
 106441158.504 8  82941275.195 8  20255050.969                    20255060.656
 129120751.869 6 100613648.37742  24570862.789                    24570877.922
 114511061.805 8  89229455.763 7  21790729.508                    21790741.535
 123630755.749 7  96335718.130 6  23526156.539                    23526167.199
 111799395.712 7  87116532.29946  21274691.273                    21274698.820
 115437734.090 7  89951553.57745  21967068.000                    21967078.699
 11  8 27  1 21  0.0000000  0  9G04G10G12G05G26G25G29G02G30
 128292173.643 6  99968078.06142  24413178.117                    24413190.066
 118986064.478 7  92716554.79644  22642270.836                    22642281.605
 110263985.295 8  85920054.243 7  20982534.906                    20982543.898
 106438883.425 8  82939502.429 8  20254618.313                    20254627.777
 129027418.516 6 100540921.26543  24553102.484                    24553117.141
 114480246.341 8  89205443.735 7  21784865.891                    21784877.855
 123546888.438 7  96270367.052 6  23510197.219                    23510207.875
 111831267.527 7  87141367.47146  21280756.156                    21280763.602
 115410771.705 7  89930543.94445  21961937.133                    21961948.004
 11  8 27  1 21 30.0000000  0  9G04G10G12G05G26G25G29G02G30
 128369853.466 6 100028607.76143  24427959.570                    24427971.973
 119079139.317 6  92789080.59344  22659982.563                    22659993.305
 110299066.108 8  85947389.930 7  20989210.477                    20989219.684
 106437179.088 7  82938174.399 8  20254294.039                    20254303.328
 128933986.895 6 100468117.66943  24535323.133                    24535337.559
 114449991.728 8  89181868.734 7  21779108.461                    21779120.414
 123463007.256 7  96205005.175 6  23494235.156                    23494246.066
 111863240.582 7  87166281.53546  21286840.258                    21286848.141
 115384401.715 7  89909995.92145  21956919.109                    21956929.480
 11  8 27  1 22  0.0000000  0  9G04G10G12G05G26G25G29G02G30
 128447472.055 6 100089089.75943  24442729.195                    24442742.320
 119172510.651 7  92861837.42744  22677750.977                    22677761.129
 110334685.101 8  85975144.980 7  20995988.672                    20995997.906
 106436044.997 7  82937290.705 8  20254078.516                    20254087.809
 128840459.717 6 100395239.58543  24517524.453                    24517539.371
 114420298.897 8  89158731.487 7  21773457.875                    21773469.449
 123379113.385 7  96139633.396 6  23478270.484                    23478281.559
 111895314.372 7  87191274.09346  21292943.852                    21292951.355
 115358624.794 7  89889910.02545  21952013.953                    21952024.254
 11  8 27  1 22 30.0000000  0  9G04G10G12G05G26G25G29G02G30
 128525028.938 6 100149523.68643  24457488.266                    24457500.652
 119266175.751 7  92934823.18044  22695574.297                    22695584.465
 110370840.450 8  86003317.973 7  21002868.727                    21002877.836
 106435480.396 8  82936850.779 8  20253970.773                    20253980.164
 128746840.051 6 100322289.41743  24499709.742                    24499723.883
 114391168.675 8  89136032.634 7  21767914.789                    21767926.211
 123295208.032 7  96074252.698 6  23462303.922                    23462315.324
 111927488.242 7  87216344.64546  21299066.383                    21299073.707
 115333441.356 7  89870286.59545  21947221.773                    21947232.094
 11  8 27  1 23  0.0000000  0  9G04G10G12G05G26G25G29G02G30
 128602523.808 6 100209909.23143  24472235.563                    24472247.770
 119360131.754 6  93008035.61744  22713453.953                    22713464.105
 110407531.181 8  86031908.141 7  21009850.594                    21009859.957
 106435484.919 7  82936854.320 8  20253971.586                    20253980.910
 128653131.019 6 100249269.63542  24481877.211                    24481891.492
 114362601.929 7  89113772.840 7  21762478.328                    21762490.215
 123211292.584 7  96008864.108 6  23446335.281                    23446346.734
 111959761.856 7  87241492.91546  21305207.859                    21305215.762
 115308852.050 7  89851126.13245  21942542.430                    21942553.020
 11  8 27  1 23 30.0000000  0  9G04G10G12G05G26G25G29G02G30
 128679956.360 6 100270246.26643  24486970.750                    24486983.203
 119454375.983 6  93081472.63144  22731387.789                    22731398.059
 110444755.507 8  86060914.096 7  21016934.109                    21016943.266
 106436058.026 8  82937300.918 8  20254080.719                    20254090.289
 128559335.507 6 100176182.45043  24464028.711                    24464042.484
 114334599.617 8  89091952.881 7  21757149.797                    21757162.066
 123127368.728 7  95943468.945 6  23430365.156                    23430375.816
 111992134.596 8  87266718.42046  21311368.031                    21311375.676
 115284857.506 7  89832429.10145  21937976.727                    21937986.625
 11  8 27  1 24  0.0000000  0  9G04G10G12G05G26G25G29G02G30
 128757326.707 6 100330534.82943  24501693.875                    24501706.031
 119548905.189 6  93155131.71844  22749376.273                    22749386.934
 110482511.902 8  86090334.653 7  21024118.977                    21024128.156
 106437199.192 7  82938190.157 8  20254297.813                    20254307.008
 128465456.464 6 100103030.17643  24446164.070                    24446177.766
 114307162.403 8  89070573.246 7  21751929.078                    21751940.727
 123043437.605 6  95878068.141 6  23414393.422                    23414404.422
 112024605.930 7  87292020.76246  21317547.094                    21317554.734
 115261458.050 7  89814195.78845  21933523.969                    21933533.984
 11  8 27  1 24 30.0000000  0  9G04G10G12G05G26G25G29G02G30
 128834634.627 6 100390774.77343  24516403.891                    24516417.594
 119643716.653 6  93229010.72444  22767418.320                    22767428.773
 110520798.960 8  86120168.709 7  21031404.844                    21031414.176
 106438908.017 7  82939521.733 8  20254622.805                    20254632.379
 128371497.022 7 100029815.27643  24428283.766                    24428297.184
 114280291.251 8  89049634.700 7  21746815.242                    21746827.176
 122959500.588 6  95812662.743 6  23398421.000                    23398431.863
 112057175.518 7  87317399.66746  21323744.719                    21323752.621
 115238654.290 7  89796426.64045  21929184.383                    21929194.734
 11  8 27  1 25  0.0000000  0  9G04G10G12G05G26G25G29G02G30
 128911879.701 6 100450965.69643  24531104.141                    24531116.574
 119738806.987 6  93303107.05944  22785512.758                    22785523.742
 110559614.568 8  86150414.621 7  21038791.469                    21038800.242
 106441183.003 8  82941294.471 8  20255055.953                    20255065.016
 128277460.009 6  99956539.91143  24410388.883                    24410403.121
 114253986.656 8  89029137.622 7  21741810.016                    21741821.578
 122875558.911 6  95747253.718 6  23382447.422                    23382457.914
 112089842.587 7  87342854.52746  21329961.211                    21329968.801
 115216446.475 7  89779121.87445  21924958.320                    21924968.633
 11  8 27  1 25 30.0000000  0  9G04G10G12G05G26G25G29G02G30
 128989061.749 6 100511107.52743  24545791.000                    24545803.273
 119834173.307 6  93377418.43544  22803660.766                    22803671.344
 110598956.943 8  86181070.995 7  21046277.594                    21046287.113
 106444023.455 8  82943507.821 8  20255596.305                    20255605.793
 128183348.392 6  99883206.41743  24392480.016                    24392493.762
 114228249.194 7  89009082.458 7  21736911.766                    21736923.934
 122791614.126 6  95681842.239 6  23366473.250                    23366483.563
 112122606.281 7  87368384.67546  21336195.875                    21336203.281
 115194834.851 7  89762281.66145  21920845.648                    21920855.715
 11  8 27  1 26  0.0000000  0  9G04G10G12G05G26G25G29G02G30
 129066181.070 6 100571200.45643  24560466.273                    24560479.070
 119929813.308 6  93451943.06844  22821860.516                    22821871.449
 110638825.381 8  86212137.302 7  21053864.836                    21053874.059
 106447429.797 7  82946162.131 8  20256244.602                    20256253.395
 128089165.860 6  99809817.63243  24374557.375                    24374571.348
 114203080.330 8  88989470.360 7  21732122.602                    21732134.473
 122707667.547 6  95616429.372 6  23350498.734                    23350509.066
 112155467.122 7  87393990.53246  21342449.383                    21342456.754
 115173820.484 7  89745906.85845  21916846.773                    21916856.645
 11  8 27  1 26 30.0000000  0  9G04G10G12G05G26G25G29G02G30
 129143236.968 6 100631243.98743  24575129.422                    24575143.008
 120025723.476 6  93526678.22044  22840111.992                    22840122.699
 110679217.196 8  86243611.429 7  21061551.117                    21061559.984
 106451400.126 8  82949255.912 8  20257000.109                    20257009.457
 127994914.975 6  99736375.59243  24356621.484                    24356634.953
 114178480.077 8  88970301.334 7  21727441.445                    21727453.492
 122623720.403 7  95551016.063 6  23334523.734                    23334534.488
 112188423.723 7  87419671.00646  21348720.445                    21348728.066
 115153403.126 7  89729997.24045  21912961.492                    21912971.738
 11  8 27  1 27  0.0000000  0  9G04G10G12G05G26G25G29G02G30
 129220229.663 6 100691238.26343  24589780.883                    24589794.242
 120121901.323 7  93601621.95344  22858413.969                    22858424.820
 110720131.096 8  86275492.362 7  21069336.836                    21069345.340
 106455934.315 8  82952789.063 8  20257862.898                    20257872.121
 127900598.932 6  99662882.74043  24338674.242                    24338687.184
 114154449.399 8  88951576.128 7  21722868.422                    21722880.348
 122539774.397 6  95485603.658 6  23318549.516                    23318560.004
 112221476.094 7  87445426.10046  21355010.273                    21355017.758
 115133583.476 8  89714553.38245  21909190.039                    21909200.457
 11  8 27  1 27 30.0000000  0  9G04G10G12G05G26G25G29G02G30
 129297158.714 6 100751182.92943  24604420.445                    24604433.332
 120218343.792 7  93676771.87844  22876766.461                    22876776.965
 110761565.247 8  86307778.704 7  21077221.234                    21077230.316
 106461030.981 8  82956760.504 8  20258832.820                    20258841.801
 127806220.704 6  99589341.45443  24320713.797                    24320727.449
 114130988.653 8  88933295.027 7  21718403.719                    21718415.875
 122455830.856 7  95420193.164 6  23302574.453                    23302585.828
 112254623.639 7  87471255.35946  21361317.930                    21361325.469
 115114361.500 7  89699575.22245  21905532.297                    21905542.609
 11  8 27  1 28  0.0000000  0  9G04G10G12G05G26G25G29G02G30
 129374024.082 6 100811077.99643  24619047.508                    24619060.293
 120315047.945 7  93752125.71444  22895168.688                    22895179.133
 110803517.878 8  86340469.031 7  21085204.688                    21085213.508
 106466689.555 8  82961169.793 8  20259909.547                    20259918.848
 127711783.299 6  99515754.06943  24302743.164                    24302756.945
 114108098.568 8  88915458.603 7  21714048.258                    21714059.945
 122371891.253 7  95354785.728 6  23286602.313                    23286612.988
 112287865.801 7  87497158.34846  21367643.758                    21367651.508
 115095737.554 8  89685063.07245  21901988.063                    21901998.191
 11  8 27  1 28 30.0000000  0  9G04G10G12G05G26G25G29G02G30
 129450825.612 6 100870923.33943  24633662.867                    24633675.336
 120412011.192 7  93827681.43544  22913620.617                    22913631.063
 110845987.370 8  86373562.121 7  21093286.219                    21093295.289
 106472909.454 8  82966016.490 8  20261093.141                    20261102.297
 127617290.048 6  99442123.16943  24284760.961                    24284775.148
 114085779.788 8  88898067.334 7  21709801.188                    21709812.914
 122287956.880 7  95289382.388 6  23270629.914                    23270640.691
 112321202.047 8  87523134.64346  21373987.891                    21373994.930
 115077711.990 8  89671017.18245  21898557.828                    21898568.137
 11  8 27  1 29  0.0000000  0  9G04G10G12G05G26G25G29G02G30
 129527563.418 6 100930718.98543  24648264.883                    24648277.762
 120509230.733 7  93903436.87844  22932120.445                    22932131.094
 110888971.810 8  86407056.465 7  21101466.250                    21101475.254
 106479690.013 8  82971300.048 8  20262383.492                    20262392.539
 127522744.012 6  99368451.15143  24266770.250                    24266783.500
 114064033.038 8  88881121.817 7  21705662.609                    21705674.840
 122204029.571 7  95223984.549 6  23254658.945                    23254669.645
 112354632.391 7  87549184.25746  21380349.336                    21380356.473
 115060285.242 8  89657437.90545  21895241.680                    21895251.605
 11  8 27  1 29 30.0000000  0  9G04G10G12G05G26G25G29G02G30
 129604237.067 6 100990464.68243  24662855.359                    24662868.324
 120606703.341 7  93979389.50744  22950668.516                    22950679.730
 110932469.374 8  86440950.649 7  21109743.133                    21109752.762
 106487029.837 8  82977019.405 8  20263780.648                    20263789.383
 127428148.241 6  99294740.33043  24248768.617                    24248782.484
 114042858.578 8  88864622.244 7  21701633.055                    21701645.602
 122120110.551 6  95158593.151 6  23238690.258                    23238700.297
 112388156.003 8  87575306.55046  21386728.484                    21386735.605
 115043457.098 7  89644325.06945  21892039.445                    21892049.504
 11  8 27  1 30  0.0000000  0  8G10G12G05G26G25G29G02G30
 120704426.682 7  94055537.52144  22969265.344                    22969276.305
 110976478.196 8  86475243.216 7  21118118.125                    21118127.137
 106494928.326 8  82983174.088 8  20265283.266                    20265292.438
 127333506.085 6  99220993.36943  24230758.102                    24230771.809
 114022257.252 8  88848569.263 7  21697712.875                    21697724.977
 122036201.667 7  95093209.666 6  23222722.617                    23222733.223
 112421772.851 8  87601501.49846  21393125.703                    21393132.820
 115027228.152 7  89631679.13045  21888951.055                    21888961.121
 11  8 27  1 30 30.0000000  0  8G10G12G05G26G25G29G02G30
 120802397.812 6  94131878.62044  22987908.336                    22987919.449
 111020996.959 8  86509933.140 7  21126589.336                    21126598.918
 106503385.277 8  82989763.937 8  20266892.914                    20266901.734
 127238821.237 6  99147213.14843  24212741.336                    24212754.020
 114002229.891 8  88832963.526 7  21693902.266                    21693913.508
 121952304.335 7  95027835.210 6  23206757.227                    23206768.262
 112455482.832 8  87627769.02046  21399540.445                    21399547.324
 115011598.903 7  89619500.48945  21885976.617                    21885987.297
 11  8 27  1 31  0.0000000  0  8G10G12G05G26G25G29G02G30
 120900613.155 6  94208410.02344  23006597.938                    23006608.871
 111066022.639 8  86545018.072 7  21135157.492                    21135166.957
 106512398.086 8  82996786.914 8  20268607.609                    20268616.383
 127144095.458 6  99073400.99343  24194715.000                    24194727.883
 113982775.794 8  88817804.493 7  21690200.031                    21690211.801
 121868419.316 6  94962470.297 6  23190794.016                    23190804.891
 112489284.226 8  87654107.76146  21405972.773                    21405979.637
 114996568.296 7  89607788.32245  21883116.828                    21883127.527
 11  8 27  1 31 30.0000000  0  8G10G12G05G26G25G29G02G30
 120999070.132 6  94285129.68944  23025333.719                    23025344.887
 111111553.952 8  86580497.003 7  21143822.078                    21143831.313
 106521966.521 8  83004242.860 8  20270428.445                    20270437.371
 127049332.667 6  98999560.03843  24176681.734                    24176695.035
 113963895.894 8  88803092.890 7  21686607.383                    21686619.430
 121784548.429 7  94897116.427 6  23174834.055                    23174844.875
 112523177.525 8  87680518.12546  21412422.578                    21412429.547
 114982136.845 8  89596543.03645  21880370.578                    21880380.734
 11  8 27  1 32  0.0000000  0  8G10G12G05G26G25G29G02G30
 121097765.895 6  94362035.44744  23044114.992                    23044125.523
 111157589.214 8  86616368.610 7  21152582.000                    21152591.645
 106532089.749 8  83012131.104 8  20272354.539                    20272363.953
 126954536.023 6  98925692.66043  24158642.461                    24158655.980
 113945590.834 8  88788829.218 7  21683123.883                    21683135.734
 121700693.530 7  94831775.010 6  23158877.359                    23158888.215
 112557162.166 8  87706999.66546  21418889.578                    21418896.887
 114968304.962 8  89585764.93445  21877738.766                    21877748.484
 11  8 27  1 32 30.0000000  0  8G10G12G05G26G25G29G02G30
 121196697.574 6  94439125.05244  23062940.836                    23062951.129
 111204125.829 8  86652630.892 7  21161438.195                    21161447.027
 106542766.417 8  83020450.605 8  20274386.508                    20274395.500
 126859708.451 6  98851801.24543  24140597.344                    24140611.406
 113927860.709 8  88775013.551 7  21679750.008                    21679761.633
 121616855.794 7  94766446.983 6  23142923.508                    23142933.742
 112591237.620 8  87733551.97346  21425373.547                    21425380.730
 114955072.342 8  89575453.80745  21875220.539                    21875230.570
 11  8 27  1 33  0.0000000  0  8G10G12G05G26G25G29G02G30
 121295862.447 6  94516396.34244  23081811.430                    23081822.688
 111251162.764 8  86689283.030 7  21170388.563                    21170397.973
 106553996.133 8  83029201.053 8  20276523.414                    20276532.324
 126764853.607 6  98777888.58243  24122547.289                    24122560.086
 113910706.216 8  88761646.414 7  21676485.344                    21676497.074
 121533037.037 7  94701133.740 6  23126972.922                    23126983.105
 112625403.992 8  87760175.12046  21431875.320                    21431882.727
 114942439.290 7  89565609.87245  21872816.203                    21872826.379
 11  8 27  1 33 30.0000000  0  8G10G12G05G26G25G29G02G30
 121395257.359 6  94593846.89644  23100725.734                    23100736.762
 111298697.843 8  86726323.334 7  21179434.289                    21179443.285
 106565777.421 8  83038381.301 8  20278765.781                    20278774.238
 126669974.616 7  98703957.06643  24104492.383                    24104504.922
 113894127.471 8  88748727.936 7  21673330.867                    21673342.699
 121449238.786 7  94635836.450 6  23111026.867                    23111036.988
 112659660.633 8  87786868.61346  21438394.445                    21438401.820
 114930405.645 8  89556233.00745  21870526.500                    21870536.813
 11  8 27  1 34  0.0000000  0  8G10G12G05G26G25G29G02G30
 121494879.533 6  94671474.52444  23119683.141                    23119693.801
 111346728.057 8  86763749.453 7  21188574.477                    21188583.332
 106578109.030 8  83047990.368 8  20281111.820                    20281120.945
 126575074.380 7  98630009.00943  24086432.875                    24086446.359
 113878124.553 8  88736258.141 7  21670285.469                    21670297.672
 121365462.308 7  94570556.130 6  23095084.539                    23095095.305
 112694006.741 8  87813631.81646  21444929.836                    21444937.191
 114918971.100 8  89547322.97445  21868350.367                    21868360.555
 11  8 27  1 34 30.0000000  0  8G10G12G05G26G25G29G02G30
 121594726.214 6  94749277.08544  23138683.859                    23138695.055
 111395251.661 8  86801560.044 7  21197807.875                    21197817.316
 106590989.738 8  83058027.308 8  20283563.094                    20283571.781
 126480156.093 6  98556046.85343  24068369.977                    24068383.652
 113862697.815 8  88724237.318 7  21667350.102                    21667361.684
 121281709.319 7  94505294.122 6  23079146.859                    23079157.430
 112728442.128 8  87840464.59346  21451482.805                    21451490.141
 114908135.639 8  89538879.76545  21866288.594                    21866298.566
 11  8 27  1 35  0.0000000  0  8G10G12G05G26G25G29G02G30
 121694794.508 7  94827252.33744  23157725.789                    23157736.719
 111444267.169 8  86839753.932 7  21207135.148                    21207144.539
 106604419.015 8  83068491.698 8  20286118.578                    20286127.469
 126385223.263 7  98482073.39843  24050305.656                    24050317.895
 113847847.809 8  88712665.895 7  21664523.938                    21664535.762
 121197981.691 7  94440051.865 6  23063214.070                    23063224.039
 112762966.695 8  87867366.86446  21458052.734                    21458059.695
 114897899.401 7  89530903.48545  21864340.570                    21864351.125
 11  8 27  1 35 30.0000000  0  8G10G12G05G26G25G29G02G30
 121795081.712 7  94905398.18644  23176809.727                    23176820.852
 111493772.629 8  86878329.593 7  21216555.695                    21216565.152
 106618395.364 8  83079382.376 8  20288778.164                    20288786.957
 126290279.035 7  98408091.06543  24032237.539                    24032251.125
 113833574.589 8  88701543.924 7  21661807.977                    21661819.582
 121114280.708 7  94374830.351 6  23047286.391                    23047296.570
 112797580.333 8  87894338.53446  21464639.617                    21464646.973
 114888262.102 7  89523393.90845  21862506.570                    21862516.941
 11  8 27  1 36  0.0000000  0  8G10G12G05G26G25G29G02G30
 121895584.995 7  94983712.40444  23195935.656                    23195946.309
 111543765.502 8  86917285.057 7  21226069.297                    21226078.645
 106632917.643 8  83090698.456 8  20291541.492                    20291550.367
 126195326.632 6  98334102.35544  24014168.844                    24014181.594
 113819878.355 8  88690871.548 7  21659201.352                    21659213.617
 121030607.936 7  94309630.876 6  23031363.211                    23031374.164
 112832282.279 8  87921379.00746  21471242.922                    21471250.660
 114879223.641 7  89516350.96545  21860786.500                    21860797.230
 11  8 27  1 36 30.0000000  0  8G10G12G05G26G25G29G02G30
 121996301.386 7  95062192.67844  23215101.070                    23215111.703
 111594243.724 8  86956618.724 7  21235674.781                    21235684.242
 106647984.803 8  83102439.112 8  20294408.742                    20294417.836
 126100369.700 6  98260110.08843  23996099.227                    23996111.242
 113806759.275 8  88680648.892 7  21656704.828                    21656717.184
 120946965.091 7  94244454.658 6  23015446.961                    23015457.266
 112867072.282 8  87948488.11146  21477863.250                    21477870.648
 114870783.787 7  89509774.46345  21859180.797                    21859190.988
 11  8 27  1 37  0.0000000  0  8G10G12G05G26G25G29G02G30
 122097227.977 7  95140836.76144  23234306.117                    23234317.152
 111645205.309 8  86996329.026 7  21245372.359                    21245382.199
 106663595.173 8  83114603.058 8  20297379.586                    20297388.266
 126005410.863 6  98186116.36743  23978029.273                    23978041.637
 113794217.370 8  88670875.993 7  21654318.445                    21654330.281
 120863353.754 7  94179303.035 6  22999535.602                    22999546.473
 112901949.819 8  87975665.41846  21484500.148                    21484507.777
 114862942.168 7  89503664.12845  21857688.773                    21857698.949
 11  8 27  1 37 30.0000000  0  8G10G12G05G26G25G29G02G30
 122198361.919 7  95219642.39644  23253551.359                    23253562.473
 111696647.901 8  87036414.148 7  21255162.234                    21255171.168
 106679747.562 8  83127189.346 8  20300452.953                    20300461.895
 125910453.732 6  98112123.95843  23959958.984                    23959971.332
 113782252.803 8  88661552.964 7  21652041.500                    21652053.863
 120779775.544 7  94114177.233 7  22983631.789                    22983642.949
 112936914.857 8  88002910.91146  21491154.086                    21491161.559
 114855698.619 7  89498019.82445  21856309.836                    21856320.316
 11  8 27  1 38  0.0000000  0  8G10G12G05G26G25G29G02G30
 122299700.712 7  95298607.63944  23272835.984                    23272846.527
 111748569.563 8  87076872.559 7  21265042.367                    21265051.477
 106696441.169 8  83140197.364 8  20303629.438                    20303638.813
 125815501.658 6  98038135.50243  23941890.164                    23941902.922
 113770865.718 8  88652679.919 7  21649874.914                    21649886.625
 120696232.234 7  94049078.611 6  22967733.641                    22967744.191
 112971967.001 8  88030224.27046  21497823.875                    21497831.086
 114849052.837 7  89492841.29445  21855045.523                    21855055.465
 11  8 27  1 38 30.0000000  0  8G10G12G05G26G25G29G02G30
 122401241.305 7  95377730.18344  23292158.602                    23292169.246
 111800967.868 7  87117702.392 7  21275013.117                    21275022.633
 106713674.289 8  83153625.779 8  20306908.891                    20306917.801
 125720557.846 6  97964153.46643  23923822.586                    23923835.094
 113760056.098 8  88644256.841 7  21647817.656                    21647829.805
 120612725.275 7  93984008.316 7  22951843.070                    22951853.195
 113007106.081 8  88057605.36646  21504510.461                    21504518.301
 114843004.524 7  89488128.33945  21853894.273                    21853904.664
 11  8 27  1 39  0.0000000  0  8G10G12G05G26G25G29G02G30
 122502980.906 7  95457007.76043  23311518.664                    23311529.813
 111853841.020 8  87158902.229 7  21285074.789                    21285084.055
 106731445.965 8  83167473.848 8  20310290.930                    20310299.797
 125625625.649 6  97890180.49543  23905757.883                    23905770.313
 113749824.242 8  88636283.976 7  21645870.711                    21645882.883
 120529256.381 7  93918967.671 7  22935959.664                    22935969.734
 113042331.908 8  88085054.05646  21511213.727                    21511221.461
 114837553.604 7  89483880.88145  21852857.313                    21852867.473
 11  8 27  1 39 30.0000000  0  8G10G12G05G26G25G29G02G30
 122604916.740 7  95536438.26944  23330916.477                    23330927.215
 111907186.854 8  87200470.395 7  21295225.930                    21295234.918
 106749754.905 8  83181740.565 8  20313774.859                    20313783.965
 125530708.313 6  97816219.09843  23887695.078                    23887707.816
 113740170.106 8  88628761.264 7  21644033.313                    21644045.363
 120445827.523 7  93853958.242 6  22920083.516                    22920093.555
 113077643.992 8  88112569.95146  21517933.656                    21517940.770
 114832699.548 7  89480098.50045  21851933.375                    21851943.453
 11  8 27  1 40  0.0000000  0  8G10G12G05G26G25G29G02G30
 122707046.071 7  95616019.52044  23350351.492                    23350362.336
 111961002.996 7  87242405.022 7  21305466.758                    21305476.199
 106768599.763 8  83196424.872 8  20317361.094                    20317370.156
 125435809.362 6  97742272.03443  23869637.008                    23869648.992
 113731093.610 8  88621688.673 7  21642306.430                    21642318.438
 120362440.353 7  93788981.272 6  22904215.313                    22904225.504
 113113042.108 8  88140152.89346  21524669.672                    21524676.809
 114828442.013 7  89476780.94345  21851123.281                    21851133.348
 11  8 27  1 40 30.0000000  0  8G10G12G05G26G25G29G02G30
 122809365.956 7  95695749.28943  23369821.789                    23369832.238
 112015287.272 7  87284704.434 7  21315796.875                    21315806.469
 106787978.841 8  83211525.460 8  20321048.773                    20321057.684
 125340931.954 6  97668341.71343  23851582.492                    23851594.293
 113722594.521 8  88615066.004 7  21640689.023                    21640701.512
 120279096.022 7  93724037.710 7  22888355.820                    22888366.047
 113148525.827 8  88167802.52745  21531422.063                    21531429.777
 114824780.322 7  89473927.67645  21850426.586                    21850436.500
 11  8 27  1 41  0.0000000  0  8G10G12G05G26G25G29G02G30
 122911873.659 7  95775625.41343  23389328.563                    23389339.828
 112070037.002 7  87327366.535 7  21326215.633                    21326224.871
 106807890.965 8  83227041.407 8  20324837.688                    20324846.766
 125246079.540 6  97594430.93144  23833531.539                    23833544.375
 113714672.979 8  88608893.368 7  21639181.477                    21639193.473
 120195796.628 7  93659129.156 7  22872504.547                    22872514.176
 113184095.069 8  88195518.81045  21538190.727                    21538198.668
 114821714.217 7  89471538.51045  21849842.852                    21849853.121
 11  8 27  1 41 30.0000000  0  8G10G12G05G26G25G29G02G30
 123014566.595 7  95855645.85543  23408870.219                    23408881.453
 112125250.322 8  87370389.878 7  21336722.602                    21336731.852
 106828335.053 8  83242971.874 8  20328727.906                    20328736.883
 125151255.639 6  97520542.33843  23815487.188                    23815499.633
 113707329.126 8  88603170.866 7  21637784.461                    21637796.297
 120112544.009 7  93594257.057 7  22856661.430                    22856671.633
 113219749.872 8  88223301.75546  21544975.414                    21544983.250
 114819243.494 7  89469613.26645  21849372.836                    21849383.379
 11  8 27  1 42  0.0000000  0  8G10G12G05G26G25G29G02G30
 123117441.667 7  95935808.22343  23428446.609                    23428458.238
 112180924.600 7  87413772.410 7  21347316.906                    21347325.879
 106849309.026 8  83259315.234 8  20332719.406                    20332728.387
 125056463.266 6  97446678.27743  23797449.328                    23797461.406
 113700562.389 8  88597898.080 7  21636496.266                    21636508.445
 120029339.613 7  93529422.533 6  22840827.945                    22840838.309
 113255489.395 8  88251150.71046  21551776.500                    21551784.363
 114817367.204 8  89468151.21445  21849016.133                    21849026.137
 11  8 27  1 42 30.0000000  0  8G10G12G05G26G25G29G02G30
 123220496.561 7  96016110.71643  23448057.633                    23448068.391
 112237057.631 7  87457512.421 7  21357998.656                    21358007.688
 106870811.661 8  83276070.539 8  20336810.977                    20336820.328
 124961705.856 6  97372841.49643  23779416.766                    23779429.941
 113694372.724 8  88593074.943 7  21635318.586                    21635330.789
 119946185.189 7  93464626.955 7  22825004.227                    22825014.504
 113291313.914 8  88279065.89346  21558593.984                    21558601.512
 114816084.885 8  89467151.99945  21848771.883                    21848781.852
 11  8 27  1 43  0.0000000  0  8G10G12G05G26G25G29G02G30
 123323727.979 7  96096550.76443  23467702.344                    23467713.164
 112293647.052 7  87501608.051 7  21368767.336                    21368776.410
 106892841.362 8  83293236.550 8  20341003.109                    20341012.145
 124866986.699 6  97299034.48843  23761393.344                    23761405.227
 113688759.823 8  88588701.243 7  21634250.742                    21634262.383
 119863082.322 7  93399871.563 7  22809190.305                    22809201.027
 113327222.598 8  88307046.66646  21565426.695                    21565434.367
 114815395.928 8  89466615.13445  21848640.797                    21848650.832
 11  8 27  1 43 30.0000000  0  8G10G12G05G26G25G29G02G30
 123427133.436 7  96177126.42243  23487379.078                    23487390.465
 112350691.072 7  87546057.928 7  21379622.195                    21379632.227
 106915397.483 8  83310812.755 8  20345295.523                    20345304.770
 124772309.712 6  97225260.34843  23743376.320                    23743388.711
 113683724.125 8  88584777.306 7  21633292.398                    21633304.379
 119780033.345 7  93335158.143 7  22793386.797                    22793396.773
 113363216.059 8  88335093.48446  21572276.367                    21572284.113
 114815300.297 8  89466540.60645  21848622.719                    21848632.391
 11  8 27  1 44  0.0000000  0  8G10G12G05G26G25G29G02G30
 123530710.077 7  96257835.46744  23507089.211                    23507100.313
 112408187.210 7  87590860.098 7  21390563.594                    21390572.785
 106938478.181 8  83328797.721 8  20349687.477                    20349696.750
 124677678.085 6  97151521.54643  23725367.742                    23725380.043
 113679265.131 8  88581302.752 7  21632443.703                    21632455.824
 119697039.793 7  93270487.916 7  22777593.023                    22777603.125
 113399293.855 8  88363206.02546  21579141.391                    21579149.012
 114815797.099 7  89466927.70645  21848717.234                    21848727.273
 11  8 27  1 44 30.0000000  0  9G15G10G12G05G26G25G29G02G30
 129392317.05916 100825279.90116  24622547.406                    24622562.039
 123634455.303 7  96338675.86343  23526831.305                    23526842.305
 112466132.513 7  87636012.265 7  21401590.094                    21401599.707
 106962081.805 8  83347190.166 8  20354179.461                    20354188.602
 124583095.103 6  97077820.63843  23707369.258                    23707381.531
 113675382.399 8  88578277.227 7  21631704.430                    21631717.270
 119614103.307 7  93205862.132 7  22761811.086                    22761821.258
 113435455.280 8  88391383.73046  21586022.938                    21586030.574
 114816885.529 7  89467775.82245  21848924.320                    21848934.313
 11  8 27  1 45  0.0000000  0  9G15G10G12G05G26G25G29G02G30
 129299374.768 6 100752857.616 6  24604861.648                    24604876.512
 123738365.849 7  96419645.08843  23546605.414                    23546616.277
 112524524.550 7  87681512.542 7  21412702.102                    21412711.305
 106986206.113 8  83365988.335 8  20358769.984                    20358778.480
 124488563.622 6  97004159.88744  23689380.641                    23689393.184
 113672075.275 8  88575700.242 7  21631075.641                    21631087.508
 119531225.253 7  93141281.894 7  22746039.867                    22746049.727
 113471700.122 8  88419626.45046  21592920.383                    21592927.535
 114818564.561 7  89469084.15145  21849243.648                    21849254.313
 11  8 27  1 45 30.0000000  0  9G15G10G12G05G26G25G29G02G30
 129206298.970 6 100680331.291 6  24587148.977                    24587164.238
 123842439.158 6  96500741.14343  23566409.805                    23566420.508
 112583360.973 7  87727359.094 7  21423897.914                    21423907.398
 107010850.034 8  83385191.409 8  20363459.664                    20363468.441
 124394087.604 6  96930542.34043  23671402.547                    23671414.258
 113669343.720 8  88573571.743 7  21630555.781                    21630567.801
 119448407.501 7  93076748.632 6  22730280.039                    22730290.090
 113508028.134 7  88447933.96946  21599833.453                    21599840.973
 114820833.730 7  89470852.31745  21849675.617                    21849685.730
 11  8 27  1 46  0.0000000  0  9G15G10G12G05G26G25G29G02G30
 129113092.397 6 100607703.077 6  24569411.836                    24569427.602
 123946672.726 6  96581962.02243  23586244.180                    23586255.246
 112642639.652 7  87773550.249 7  21435178.484                    21435187.586
 107036012.055 8  83404798.183 8  20368247.539                    20368256.938
 124299670.315 6  96856970.54943  23653435.625                    23653447.426
 113667187.622 8  88571891.659 7  21630145.477                    21630157.469
 119365652.228 7  93012264.037 6  22714532.070                    22714541.664
 113544439.713 8  88476306.61146  21606761.992                    21606769.820
 114823692.540 7  89473079.94945  21850219.586                    21850229.867
 11  8 27  1 46 30.0000000  0  9G15G10G12G05G26G25G29G02G30
 129019757.577 6 100534974.967 6  24551650.969                    24551665.496
 124051063.984 6  96663305.83543  23606109.344                    23606120.371
 112702358.230 8  87820084.196 7  21446542.422                    21446552.398
 107061690.761 8  83424807.577 8  20373134.234                    20373143.344
 124205315.630 7  96783447.51844  23635480.055                    23635492.168
 113665606.576 7  88570659.670 7  21629844.438                    21629856.457
 119282961.103 7  92947829.448 7  22698796.352                    22698806.844
 113580934.361 8  88504743.98446  21613706.914                    21613714.301
 114827140.224 7  89475766.44145  21850875.344                    21850885.730
 11  8 27  1 47  0.0000000  0  9G15G10G12G05G26G25G29G02G30
 128926297.380 6 100462149.128 6  24533866.500                    24533880.578
 124155610.009 6  96744770.20643  23626003.609                    23626014.836
 112762514.172 8  87866958.938 7  21457989.734                    21457999.145
 107087884.848 8  83445218.565 8  20378118.688                    20378127.379
 124111027.040 7  96709975.98143  23617537.367                    23617549.410
 113664600.496 8  88569875.702 7  21629653.359                    21629665.488
 119200336.388 7  92883446.580 6  22683073.734                    22683083.359
 113617512.279 8  88533246.25046  21620667.305                    21620675.102
 114831176.247 7  89478911.38845  21851643.695                    21851653.961
 11  8 27  1 47 30.0000000  0  9G15G10G12G05G26G25G29G02G30
 128832713.840 6 100389227.199 6  24516057.063                    24516071.996
 124260308.260 7  96826353.22843  23645927.508                    23645937.805
 112823105.396 7  87914172.861 7  21469519.828                    21469529.496
 107114592.499 8  83466029.736 8  20383200.992                    20383209.891
 124016807.819 6  96636558.49743  23599608.367                    23599620.105
 113664168.870 8  88569539.363 7  21629571.070                    21629583.195
 119117779.788 7  92819116.794 6  22667363.766                    22667373.605
 113654173.302 8  88561813.26646  21627644.031                    21627650.988
 114835799.814 7  89482514.16345  21852523.742                    21852534.020
 11  8 27  1 48  0.0000000  0  9G15G10G12G05G26G25G29G02G30
 128739009.539 6 100316211.151 6  24498226.086                    24498240.105
 124365155.710 6  96908052.46743  23665879.070                    23665890.141
 112884128.587 8  87961723.386 7  21481132.063                    21481141.508
 107141811.429 7  83487239.307 8  20388380.703                    20388389.320
 123922660.890 7  96563197.37644  23581692.453                    23581704.945
 113664310.814 8  88569649.971 7  21629598.047                    21629610.344
 119035292.755 7  92754841.237 7  22651666.766                    22651677.105
 113690916.814 8  88590444.57345  21634635.953                    21634643.336
 114841009.528 7  89486573.67845  21853514.938                    21853525.316
 11  8 27  1 48 30.0000000  0  9G15G10G12G05G26G25G29G02G30
 128645186.865 6 100243102.884 6  24480371.828                    24480386.508
 124470150.013 6  96989866.17543  23685858.695                    23685870.105
 112945581.983 7  88009609.135 7  21492826.391                    21492835.574
 107169540.701 7  83508846.544 8  20393657.133                    20393666.027
 123828590.454 7  96489895.83644  23563791.008                    23563803.297
 113665026.294 8  88570207.487 7  21629734.164                    21629746.391
 118952877.474 7  92690621.571 7  22635983.609                    22635993.691
 113727742.739 8  88619140.09945  21641643.344                    21641651.188
 114846805.008 7  89491089.63145  21854618.016                    21854628.195
 11  8 27  1 49  0.0000000  0  9G15G10G12G05G26G25G29G02G30
 128551248.290 6 100169904.332 6  24462495.484                    24462510.191
 124575288.527 7  97071792.23343  23705866.609                    23705877.809
 113007462.565 8  88057827.746 7  21504601.883                    21504611.203
 107197778.393 8  83530849.959 8  20399030.656                    20399039.781
 123734599.629 7  96416656.32044  23545905.570                    23545917.281
 113666314.694 8  88571211.428 7  21629979.438                    21629991.180
 118870535.511 7  92626459.020 7  22620314.297                    22620324.578
 113764651.348 8  88647900.05445  21648667.023                    21648674.645
 114853185.259 7  89496061.25345  21855832.016                    21855842.219
 11  8 27  1 49 30.0000000  0  9G15G10G12G05G26G25G29G02G30
 128457196.822 6 100096617.809 5  24444597.984                    24444612.180
 124680568.460 7  97153828.49843  23725900.313                    23725911.824
 113069768.273 8  88106377.634 7  21516458.391                    21516467.574
 107226522.877 8  83553248.271 8  20404500.727                    20404509.855
 123640692.120 6  96343481.73344  23528035.203                    23528047.289
 113668175.551 8  88572661.452 7  21630333.531                    21630345.395
 118788268.712 7  92562355.065 7  22604659.328                    22604669.848
 113801642.407 8  88676724.25545  21655706.102                    21655713.703
 114860149.416 8  89501487.88245  21857157.508                    21857167.418
 11  8 27  1 50  0.0000000  0  9G15G10G12G05G26G25G29G02G30
 128363034.894 6 100023245.118 5  24426678.906                    24426693.238
 124785987.104 7  97235972.82843  23745961.555                    23745972.504
 113132495.999 7  88155256.357 7  21528395.383                    21528404.480
 107255772.357 7  83576040.095 8  20410066.461                    20410075.344
 123546871.283 6  96270374.68944  23510181.969                    23510193.789
 113670608.233 8  88574557.044 7  21630796.367                    21630808.313
 118706078.934 7  92498311.101 7  22589019.617                    22589029.793
 113838715.700 8  88705612.53345  21662761.117                    21662768.332
 114867696.422 7  89507368.66745  21858592.984                    21858603.090
 11  8 27  1 50 30.0000000  0  9G15G10G12G05G26G25G29G02G30
 128268764.542 6  99949787.996 5  24408740.133                    24408753.363
 124891542.004 7  97318223.35643  23766047.344                    23766058.406
 113195643.712 8  88204462.346 7  21540411.633                    21540421.297
 107285525.613 8  83599224.469 8  20415728.570                    20415737.688
 123453140.843 7  96197338.07544  23492345.023                    23492357.695
 113673612.417 8  88576897.975 7  21631368.117                    21631379.914
 118623968.714 7  92434329.141 7  22573394.484                    22573404.719
 113875871.484 8  88734565.08345  21669831.586                    21669839.363
 114875825.559 7  89513703.05645  21860140.578                    21860150.469
 11  8 27  1 51  0.0000000  0  9G15G10G12G05G26G25G29G02G30
 128174388.618 6  99876248.608 6  24390780.164                    24390794.582
 124997229.989 7  97400577.58743  23786159.156                    23786170.672
 113259208.529 8  88253993.354 7  21552507.906                    21552517.477
 107315780.157 8  83622799.450 8  20421485.852                    20421494.941
 123359504.004 7  96124374.41244  23474526.555                    23474539.230
 113677187.269 7  88579683.573 7  21632048.344                    21632060.328
 118541939.368 7  92370410.212 7  22557784.719                    22557794.488
 113913108.926 7  88763581.26345  21676917.453                    21676924.988
 114884535.519 7  89520490.04745  21861797.703                    21861807.902
 11  8 27  1 51 30.0000000  0  9G15G10G12G05G26G25G29G02G30
 128079909.392 6  99802628.736 6  24372801.188                    24372815.371
 125103048.554 6  97483033.54943  23806296.273                    23806307.375
 113323187.868 8  88303847.363 7  21564682.461                    21564692.121
 107346534.128 8  83646763.605 8  20427337.984                    20427346.980
 123265964.205 6  96051486.38044  23456726.570                    23456739.031
 113681331.990 8  88582913.235 7  21632836.930                    21632849.063
 118459992.774 7  92306555.750 7  22542190.641                    22542200.602
 113950427.871 7  88792660.96245  21684019.523                    21684026.988
 114893825.238 7  89527728.77645  21863565.227                    21863575.434
 11  8 27  1 52  0.0000000  0  9G15G10G12G05G26G25G29G02G30
 127985329.915 6  99728930.725 6  24354803.875                    24354818.375
 125208995.416 7  97565589.48143  23826457.531                    23826468.391
 113387579.500 7  88354022.641 7  21576936.078                    21576945.309
 107377786.590 8  83671116.183 8  20433285.133                    20433293.949
 123172525.418 6  95978677.03644  23438945.297                    23438957.648
 113686046.397 8  88586586.805 7  21633734.266                    21633746.281
 118378131.023 7  92242767.438 7  22526612.844                    22526623.137
 113987828.812 7  88821804.54245  21691136.375                    21691143.688
 114903694.072 7  89535418.78045  21865443.148                    21865453.641
 11  8 27  1 52 30.0000000  0  9G15G10G12G05G26G25G29G02G30
 127890652.519 6  99655156.445 6  24336787.055                    24336800.508
 125315067.809 6  97648243.25343  23846642.133                    23846653.344
 113452380.524 7  88404516.930 7  21589267.383                    21589277.004
 107409535.270 8  83695855.428 8  20439326.539                    20439335.352
 123079190.709 6  95905948.78344  23421185.086                    23421196.891
 113691329.481 8  88590703.497 7  21634739.641                    21634751.738
 118296355.843 7  92179046.550 7  22511051.539                    22511061.402
 114025311.430 7  88851011.77245  21698268.992                    21698276.609
 114914140.600 7  89543558.93145  21867430.859                    21867441.363
 11  8 27  1 53  0.0000000  0  9G15G10G12G05G26G25G29G02G30
 127795879.667 6  99581307.809 6  24318751.898                    24318765.488
 125421262.950 6  97730992.65843  23866849.805                    23866861.453
 113517588.218 8  88455328.103 7  21601675.820                    21601684.918
 107441778.062 7  83720979.696 8  20445462.227                    20445471.461
 122985963.633 7  95833304.41544  23403443.891                    23403456.379
 113697180.466 8  88595262.713 7  21635853.180                    21635864.930
 118214669.198 7  92115394.674 7  22495506.742                    22495516.977
 114062875.275 7  88880282.29145  21705417.398                    21705424.586
 114925163.679 8  89552148.33845  21869528.836                    21869538.961
 11  8 27  1 53 30.0000000  0  9G15G10G12G05G26G25G29G02G30
 127701014.212 6  99507386.983 6  24300698.711                    24300712.207
 125527578.076 6  97813835.56043  23887081.344                    23887092.637
 113583200.116 7  88506454.231 7  21614161.273                    21614170.953
 107474513.252 8  83746487.651 8  20451691.500                    20451700.434
 122892847.885 7  95760746.79144  23385724.695                    23385736.887
 113703598.766 8  88600263.999 7  21637074.461                    21637086.301
 118133072.953 7  92051813.234 7  22479979.445                    22479989.594
 114100520.854 7  88909616.49845  21712581.336                    21712588.480
 114936762.298 8  89561186.21645  21871735.703                    21871746.152
 11  8 27  1 54  0.0000000  0  9G15G10G12G05G26G25G29G02G30
 127606058.591 6  99433395.869 6  24282630.047                    24282643.129
 125634010.907 6  97896770.16343  23907335.172                    23907346.434
 113649213.467 7  88557893.186 7  21626723.164                    21626732.453
 107507739.291 7  83772378.085 8  20458014.156                    20458022.949
 122799846.975 7  95688278.67244  23368027.234                    23368038.625
 113710583.679 8  88605706.795 7  21638403.469                    21638415.402
 118051569.364 7  91988303.998 7  22464470.016                    22464479.879
 114138247.944 7  88939014.22245  21719760.125                    21719767.488
 114948935.375 7  89570671.74245  21874052.398                    21874062.551
 11  8 27  1 54 30.0000000  0  9G15G10G12G05G26G25G29G02G30
 127511015.372 6  99359336.540 6  24264543.383                    24264556.773
 125740558.741 6  97979794.38743  23927610.805                    23927622.141
 113715625.684 7  88609642.959 7  21639361.070                    21639370.805
 107541454.438 8  83798649.642 8  20464430.305                    20464438.934
 122706964.492 7  95615902.81944  23350351.477                    23350363.949
 113718134.512 8  88611590.568 7  21639839.984                    21639852.328
 117970160.220 7  91924868.352 7  22448978.555                    22448988.527
 114176056.547 7  88968475.46245  21726955.391                    21726962.586
 114961681.710 8  89580603.94745  21876478.359                    21876487.922
 11  8 27  1 55  0.0000000  0  9G15G10G12G05G26G25G29G02G30
 127415887.336 6  99285211.094 6  24246440.469                    24246454.195
 125847218.860 6  98062906.08543  23947907.148                    23947918.477
 113782434.282 7  88661701.585 7  21652074.352                    21652083.723
 107575656.617 8  83825300.704 8  20470938.109                    20470947.621
 122614204.161 7  95543622.13544  23332700.695                    23332712.418
 113726250.367 8  88617914.618 7  21641384.570                    21641396.582
 117888847.443 7  91861507.784 7  22433505.281                    22433514.891
 114213946.465 7  88998000.06145  21734165.070                    21734172.344
 114975000.140 8  89590981.94845  21879012.453                    21879022.793
 11  8 27  1 55 30.0000000  0  9G15G10G12G05G26G25G29G02G30
 127320676.949 6  99211021.500 6  24228323.023                    24228335.887
 125953988.752 6  98146103.36843  23968225.008                    23968236.238
 113849636.370 7  88714066.841 7  21664862.422                    21664872.152
 107610343.803 8  83852329.694 8  20477539.063                    20477548.027
 122521569.408 7  95471439.30644  23315072.617                    23315083.766
 113734930.459 8  88624678.338 7  21643036.320                    21643048.664
 117807632.974 7  91798223.850 7  22418050.719                    22418060.680
 114251917.781 7  89027588.09445  21741390.914                    21741398.301
 114988889.430 8  89601804.77645  21881655.617                    21881665.664
 11  8 27  1 56  0.0000000  0  9G15G10G12G05G26G25G29G02G30
 127225386.922 7  99136769.782 6  24210189.469                    24210202.934
 126060865.771 6  98229384.09743  23988563.070                    23988573.789
 113917229.132 7  88766736.510 7  21677724.750                    21677734.352
 107645514.296 8  83879735.283 8  20484231.766                    20484240.961
 122429063.690 7  95399357.04344  23297469.695                    23297480.875
 113744173.833 8  88631880.964 7  21644795.367                    21644807.270
 117726518.829 7  91735018.061 7  22402615.031                    22402625.180
 114289970.332 7  89057239.42945  21748631.961                    21748639.438
 115003348.267 8  89613071.40245  21884406.648                    21884417.168
 11  8 27  1 56 30.0000000  0  9G15G10G12G05G26G25G29G02G30
 127130020.068 6  99062458.213 6  24192041.453                    24192054.934
 126167847.609 6  98312746.52043  24008921.547                    24008932.078
 113985210.164 7  88819708.733 7  21690661.375                    21690670.523
 107681166.525 8  83907516.249 8  20491016.242                    20491025.461
 122336690.837 7  95327378.28244  23279891.328                    23279903.035
 113753979.880 8  88639522.039 7  21646661.570                    21646673.258
 117645507.329 7  91671892.286 7  22387198.602                    22387208.836
 114328104.085 7  89086954.03145  21755888.461                    21755896.184
 115018375.559 8  89624780.98245  21887266.586                    21887276.828
 11  8 27  1 57  0.0000000  0  9G15G10G12G05G26G25G29G02G30
 127034578.693 7  98988088.599 6  24173879.023                    24173892.555
 126274931.521 6  98396188.48543  24029298.102                    24029310.023
 114053576.505 7  88872981.185 7  21703671.320                    21703680.762
 107717297.912 7  83935670.587 8  20497891.938                    20497901.051
 122244454.001 7  95255505.50244  23262339.156                    23262350.547
 113764347.337 8  88647600.578 7  21648634.539                    21648646.801
 117564600.045 7  91608847.691 7  22371802.313                    22371812.621
 114366319.181 7  89116732.01545  21763160.586                    21763168.367
 115033969.805 8  89636932.35945  21890234.422                    21890243.992
 11  8 27  1 57 30.0000000  0  9G15G10G12G05G26G25G29G02G30
 126939065.722 7  98913663.174 6  24155703.867                    24155716.766
 126382114.837 6  98479707.90443  24049694.875                    24049706.363
 114122325.289 8  88926551.660 7  21716753.625                    21716763.520
 107753906.586 8  83964196.840 8  20504858.336                    20504867.422
 122152356.939 7  95183741.65244  23244813.680                    23244824.902
 113775275.329 8  88656115.897 7  21650713.898                    21650726.047
 117483798.874 7  91545885.795 7  22356426.609                    22356436.738
 114404615.272 7  89146573.12345  21770448.133                    21770455.637
 115050129.488 8  89649524.33345  21893309.000                    21893319.258
 11  8 27  1 58  0.0000000  0  9G15G10G12G05G26G25G29G02G30
 126843483.801 6  98839184.005 6  24137514.672                    24137527.789
 126489395.038 6  98563302.81343  24070109.617                    24070120.980
 114191453.779 7  88980417.999 7  21729908.289                    21729917.523
 107790990.510 8  83993093.419 8  20511915.219                    20511924.156
 122060403.072 7  95112089.38644  23227315.172                    23227326.984
 113786762.795 8  88665067.162 7  21652899.484                    21652912.055
 117403105.915 7  91483008.202 7  22341071.219                    22341080.863
 114442992.235 7  89176477.24745  21777750.922                    21777758.602
 115066853.241 8  89662555.83945  21896491.594                    21896502.035
 11  8 27  1 58 30.0000000  0  9G15G10G12G05G26G25G29G02G30
 126747835.412 6  98764653.024 6  24119312.445                    24119325.926
 126596769.578 6  98646971.24543  24090542.516                    24090553.367
 114260959.859 7  89034578.574 7  21743134.844                    21743144.605
 107828547.910 8  84022358.933 8  20519062.008                    20519071.059
 121968596.233 7  95040551.66544  23209844.852                    23209855.910
 113798809.065 8  88674453.854 7  21655192.305                    21655204.188
 117322523.491 7  91420216.752 7  22325736.844                    22325746.375
 114481450.742 7  89206444.92045  21785069.383                    21785077.211
 115084140.037 8  89676026.07245  21899780.945                    21899791.313
 11  8 27  1 59  0.0000000  0  9G15G10G12G05G26G25G29G02G30
 126652123.647 6  98690072.664 6  24101100.336                    24101112.773
 126704235.869 6  98730711.12443  24110991.695                    24111003.402
 114330840.607 7  89089031.096 7  21756432.547                    21756442.371
 107866577.019 8  84051992.019 8  20526298.844                    20526307.547
 121876940.339 7  94969131.58844  23192403.547                    23192415.004
 113811413.158 8  88684275.211 7  21657590.734                    21657602.859
 117242053.589 7  91357512.972 7  22310423.797                    22310433.875
 114519990.661 7  89236476.03045  21792403.758                    21792411.145
 115101988.505 8  89689933.97845  21903177.859                    21903187.648
 11  8 27  1 59 30.0000000  0  9G15G10G12G05G26G25G29G02G30
 126556351.149 7  98615445.011 6  24082874.602                    24082887.434
 126811791.652 6  98814520.80043  24131459.758                    24131470.844
 114401092.835 7  89143773.065 7  21769801.352                    21769811.117
 107905076.105 8  84081991.317 8  20533624.961                    20533633.895
 121785438.782 7  94897831.75744  23174991.242                    23175002.910
 113824574.133 8  88694530.508 7  21660095.055                    21660107.543
 117161698.307 7  91294898.512 7  22295132.688                    22295142.742
 114558612.024 7  89266570.59445  21799752.930                    21799760.664
 115120397.235 7  89704278.44645  21906680.250                    21906690.602
 11  8 27  2  0  0.0000000  0  9G15G10G12G05G26G25G29G02G30
 126460520.578 6  98540772.079 6  24064639.109                    24064651.660
 126919434.063 6  98898397.92343  24151943.359                    24151954.695
 114471713.911 7  89198802.454 7  21783239.930                    21783249.352
 107944042.469 8  84112354.727 8  20541039.828                    20541048.555
 121694094.847 7  94826654.77144  23157608.813                    23157620.270
 113838290.519 8  88705218.589 7  21662705.258                    21662717.313
 117081459.408 7  91232374.745 7  22279863.789                    22279873.762
 114597314.146 7  89296728.09545  21807117.547                    21807125.160
 115139364.356 8  89719058.02945  21910289.641                    21910300.348
 11  8 27  2  0 30.0000000  0  9G15G10G12G05G26G25G29G02G30
 126364634.534 6  98466055.910 6  24046392.227                    24046404.598
 127027160.949 6  98982340.90643  24172442.727                    24172454.566
 114542701.244 7  89254117.244 7  21796748.234                    21796757.590
 107983474.451 8  84143080.952 8  20548543.258                    20548552.316
 121602912.537 7  94755603.71444  23140256.953                    23140268.789
 113852561.506 8  88716338.830 7  21665420.875                    21665433.195
 117001339.013 7  91169943.323 7  22264617.391                    22264627.301
 114636097.802 7  89326949.12345  21814497.602                    21814505.113
 115158888.702 8  89734271.79945  21914005.109                    21914015.215
 11  8 27  2  1  0.0000000  0  9G15G10G12G05G26G25G29G02G30
 126268695.620 6  98391298.545 6  24028134.711                    24028147.613
 127134969.542 6  99066347.55542  24192958.523                    24192969.602
 114614051.432 7  89309714.766 7  21810326.156                    21810335.410
 108023369.586 8  84174168.078 8  20556135.352                    20556144.293
 121511894.939 7  94684681.01044  23122936.758                    23122948.449
 113867385.710 8  88727890.154 7  21668241.844                    21668254.297
 116921339.265 7  91107605.901 7  22249393.727                    22249403.699
 114674962.541 7  89357233.33945  21821893.203                    21821900.965
 115178968.437 8  89749918.34345  21917826.375                    21917836.531
 11  8 27  2  1 30.0000000  0  9G15G10G12G05G26G25G29G02G30
 126172706.641 6  98316502.168 6  24009869.203                    24009881.191
 127242857.801 6  99150416.27043  24213489.586                    24213500.164
 114685762.540 7  89365593.537 7  21823971.813                    21823981.805
 108063726.375 7  84205614.932 8  20563814.898                    20563823.547
 121421046.359 7  94613889.99144  23105649.375                    23105660.676
 113882762.419 8  88739872.009 7  21671168.281                    21671180.184
 116841461.976 7  91045363.921 7  22234193.445                    22234203.277
 114713908.704 7  89387580.99545  21829304.992                    21829312.715
 115199602.399 7  89765996.74545  21921753.133                    21921762.957
 11  8 27  2  2  0.0000000  0  9G15G10G12G05G26G25G29G02G30
 126076670.256 6  98241668.854 6  23991593.242                    23991606.203
 127350822.779 6  99234544.77743  24234034.094                    24234045.301
 114757831.293 7  89421750.983 7  21837686.070                    21837695.879
 108104542.250 7  84237419.516 8  20571581.820                    20571590.762
 121330369.842 7  94543233.07444  23088393.555                    23088405.500
 113898690.140 8  88752283.218 7  21674199.000                    21674211.324
 116761709.485 7  90983219.189 7  22219017.188                    22219027.566
 114752936.264 7  89417992.07445  21836731.375                    21836739.098
 115220788.782 7  89782505.60345  21925784.602                    21925794.551
 11  8 27  2  2 30.0000000  0  9G15G10G12G05G26G25G29G02G30
 125980589.471 6  98166800.948 6  23973309.461                    23973322.352
 127458862.349 6  99318731.39343  24254592.672                    24254604.789
 114830254.520 7  89478184.633 7  21851467.977                    21851477.570
 108145815.645 8  84269580.609 8  20579436.008                    20579445.145
 121239869.441 7  94472713.41244  23071171.469                    23071183.641
 113915167.978 8  88765123.093 7  21677334.586                    21677346.891
 116682083.912 7  90921173.342 7  22203864.914                    22203874.824
 114792045.357 7  89448466.69445  21844173.656                    21844180.977
 115242526.254 7  89799443.87645  21929920.898                    21929930.855
 11  8 27  2  3  0.0000000  0  9G15G10G12G05G26G25G29G02G30
 125884466.779 6  98091900.369 6  23955018.352                    23955030.547
 127566973.892 6  99402974.08743  24275165.977                    24275178.188
 114903029.808 8  89534892.636 7  21865316.602                    21865326.332
 108187544.109 8  84302096.308 8  20587376.695                    20587385.938
 121149548.587 7  94402333.63144  23053984.867                    23053996.344
 113932194.457 8  88778390.480 7  21680574.672                    21680586.703
 116602587.125 7  90859227.850 7  22188737.227                    22188747.367
 114831235.900 7  89479004.77645  21851631.344                    21851639.098
 115264813.024 8  89816810.18545  21934161.977                    21934172.555
 11  8 27  2  3 30.0000000  0  9G15G10G12G05G26G25G29G02G30
 125788305.102 7  98016969.374 6  23936719.328                    23936731.082
 127675154.787 6  99487270.84543  24295752.742                    24295764.207
 114976153.955 7  89591872.467 7  21879231.633                    21879241.555
 108229725.449 8  84334964.890 8  20595403.281                    20595412.109
 121059410.852 7  94332096.54944  23036831.148                    23036843.137
 113949768.365 8  88792084.452 7  21683918.750                    21683930.828
 116523221.226 7  90797384.346 7  22173634.555                    22173644.348
 114870507.849 7  89509606.29045  21859104.789                    21859112.207
 115287647.431 8  89834603.21445  21938507.625                    21938517.281
 11  8 27  2  4  0.0000000  0  9G15G10G12G05G26G25G29G02G30
 125692107.196 7  97942010.173 6  23918413.195                    23918425.449
 127783402.743 6  99571619.86743  24316352.250                    24316362.883
 115049624.395 7  89649122.140 7  21893212.758                    21893222.008
 108272357.838 8  84368184.945 8  20603515.992                    20603525.090
 120969460.062 7  94262005.13444  23019714.844                    23019726.297
 113967888.611 8  88806204.132 7  21687366.922                    21687379.457
 116443988.545 7  90735644.634 7  22158556.922                    22158566.727
 114909861.302 8  89540271.31145  21866593.898                    21866600.988
 115311027.927 7  89852821.77845  21942956.367                    21942966.281
 11  8 27  2  4 30.0000000  0  9G15G10G12G05G26G25G29G02G30
 125595876.110 7  97867025.124 6  23900101.227                    23900112.738
 127891715.473 6  99656019.33943  24336963.031                    24336974.117
 115123438.704 8  89706639.763 7  21907259.367                    21907268.750
 108315439.442 8  84401755.032 8  20611714.242                    20611723.387
 120879699.937 7  94192062.28544  23002633.391                    23002645.250
 113986553.947 8  88820748.563 7  21690919.047                    21690931.246
 116364891.191 7  90674010.384 7  22143505.094                    22143515.219
 114949296.938 7  89571000.37245  21874097.656                    21874104.934
 115334952.971 7  89871464.67345  21947509.086                    21947519.824
 11  8 27  2  5  0.0000000  0  9G15G10G12G05G26G25G29G02G30
 125499614.157 7  97792015.972 6  23881782.695                    23881794.824
 128000090.233 6  99740467.16943  24357586.516                    24357597.000
 115197593.228 8  89764422.495 7  21921370.539                    21921380.020
 108358967.461 8  84435672.974 8  20619997.625                    20620006.160
 120790133.721 7  94122270.55144  22985589.758                    22985600.844
 114005762.821 8  88835716.522 7  21694574.570                    21694586.348
 116285931.173 7  90612483.140 7  22128479.438                    22128489.188
 114988814.006 7  89601792.88145  21881617.789                    21881624.832
 115359420.568 8  89890530.32845  21952165.289                    21952175.508
 11  8 27  2  5 30.0000000  0  9G15G10G12G05G26G25G29G02G30
 125403324.262 6  97716985.088 6  23863458.836                    23863471.492
 128108524.690 6  99824961.49743  24378219.898                    24378231.617
 115272085.374 8  89822468.311 7  21935545.688                    21935555.469
 108402940.008 8  84469937.307 8  20628365.242                    20628374.043
 120700765.211 7  94052632.86444  22968583.633                    22968594.336
 114025514.046 8  88851107.107 7  21698332.766                    21698345.051
 116207110.614 7  90551064.568 7  22113480.242                    22113490.016
 115028412.829 7  89632649.10345  21889152.945                    21889160.473
 115384429.181 8  89910017.57145  21956924.406                    21956934.223
 11  8 27  2  6  0.0000000  0  9G15G10G12G05G26G25G29G02G30
 125307009.471 7  97641934.765 6  23845131.281                    23845143.258
 128217016.490 6  99909500.50743  24398865.500                    24398877.328
 115346912.482 8  89880775.126 7  21949785.180                    21949794.523
 108447355.098 8  84504546.470 8  20636816.797                    20636825.953
 120611598.440 7  93983152.38844  22951615.477                    22951626.266
 114045806.506 8  88866919.435 7  21702194.117                    21702206.156
 116128431.848 7  90489756.481 7  22098507.766                    22098518.305
 115068093.904 7  89663569.40745  21896704.141                    21896711.777
 115409977.206 7  89929925.13645  21961785.883                    21961796.398
 11  8 27  2  6 30.0000000  0  9G15G10G12G05G26G25G29G02G30
 125210672.694 6  97566867.319 6  23826798.930                    23826810.742
 128325563.275 6  99994082.40043  24419520.891                    24419533.078
 115422071.665 7  89939340.693 7  21964087.258                    21964096.613
 108492210.630 8  84539498.846 8  20645352.844                    20645361.664
 120522636.831 7  93913831.75144  22934686.563                    22934697.563
 114066638.692 8  88883152.313 7  21706158.477                    21706170.605
 116049896.886 7  90428560.428 7  22083563.297                    22083573.426
 115107857.128 8  89694553.71745  21904271.063                    21904278.574
 115436062.786 7  89950251.57245  21966749.672                    21966759.699
 11  8 27  2  7  0.0000000  0  9G15G10G12G05G26G25G29G02G30
 125114316.572 6  97491784.818 6  23808462.469                    23808475.105
 128434162.874 6 100078705.41443  24440187.281                    24440198.863
 115497559.981 8  89998162.756 7  21978451.992                    21978461.719
 108537504.379 8  84574792.685 8  20653971.664                    20653980.457
 120433883.976 7  93844673.78244  22917797.508                    22917808.383
 114088009.215 8  88899804.677 7  21710225.195                    21710237.281
 115971507.896 7  90367478.140 7  22068646.570                    22068656.691
 115147702.787 8  89725602.26645  21911853.352                    21911860.820
 115462684.177 7  89970995.52745  21971815.422                    21971825.617
 11  8 27  2  7 30.0000000  0  9G15G10G12G05G26G25G29G02G30
 125017943.649 6  97416689.197 6  23790122.961                    23790135.078
 128542812.635 6 100163367.53443  24460862.469                    24460874.563
 115573374.026 8  90057238.613 7  21992879.008                    21992888.449
 108583233.827 8  84610426.028 7  20662673.789                    20662682.641
 120345343.420 7  93775681.24444  22900948.547                    22900959.605
 114109916.363 8  88916875.193 7  21714394.031                    21714406.273
 115893266.794 7  90306511.076 7  22053757.719                    22053767.363
 115187630.512 8  89756714.77045  21919451.453                    21919458.617
 115489839.222 7  89992155.32545  21976983.234                    21976993.191
 11  8 27  2  8  0.0000000  0  9G15G10G12G05G26G25G29G02G30
 124921557.117 6  97341582.968 6  23771781.336                    23771793.184
 128651510.419 5 100248067.05443  24481547.164                    24481558.398
 115649511.208 8  90116566.267 7  22007367.438                    22007377.445
 108629397.031 8  84646397.363 7  20671458.367                    20671467.297
 120257018.869 7  93706857.01344  22884140.859                    22884151.875
 114132359.011 8  88934362.990 7  21718664.688                    21718676.820
 115815175.975 7  90245661.100 7  22038897.328                    22038907.168
 115227640.818 7  89787891.60745  21927064.844                    21927072.152
 115517526.413 7  90013729.77445  21982251.789                    21982262.254
 11  8 27  2  8 30.0000000  0  9G15G10G12G05G26G25G29G02G30
 124825159.296 6  97266467.967 6  23753437.141                    23753449.320
 128760253.697 6 100332802.00242  24502240.813                    24502252.230
 115725968.285 8  90176143.193 7  22021916.945                    22021926.109
 108675991.406 8  84682704.684 8  20680324.938                    20680333.949
 120168913.832 7  93638203.82644  22867374.938                    22867385.926
 114155335.308 8  88952266.605 7  21723037.148                    21723048.988
 115737237.389 7  90184929.764 7  22024066.203                    22024075.852
 115267733.495 8  89819132.63845  21934694.344                    21934701.477
 115545743.492 7  90035717.12245  21987621.320                    21987631.727
 11  8 27  2  9  0.0000000  0  9G15G10G12G05G26G25G29G02G30
 124728753.493 7  97191346.713 6  23735091.961                    23735103.352
 128869040.218 6 100417570.71842  24522941.789                    24522953.141
 115802742.871 7  90235967.528 7  22036526.633                    22036536.227
 108723015.164 8  84719346.573 7  20689273.367                    20689282.469
 120081032.435 7  93569724.91944  22850651.219                    22850662.266
 114178844.058 8  88970585.116 7  21727510.430                    21727522.531
 115659453.412 8  90124318.879 7  22009264.336                    22009274.059
 115307908.640 8  89850437.92945  21942339.039                    21942347.016
 115574488.882 7  90058116.13345  21993091.539                    21993101.645
 11  8 27  2  9 30.0000000  0  9G15G10G12G05G26G25G29G02G30
 124632342.461 7  97116221.422 6  23716745.211                    23716756.668
 128977867.391 6 100502371.06342  24543650.742                    24543662.215
 115879831.961 8  90296036.932 7  22051196.141                    22051205.848
 108770465.560 8  84756320.920 8  20698303.109                    20698311.805
 119993377.729 7  93501422.62844  22833971.352                    22833982.363
 114202883.576 8  88989317.220 7  21732085.031                    21732097.113
 115581825.988 7  90063830.009 7  21994492.359                    21994501.934
 115348166.702 7  89881807.83445  21950000.492                    21950007.852
 115603760.560 7  90080925.25745  21998661.633                    21998671.715
 11  8 27  2 10  0.0000000  0  9G15G10G12G05G26G25G29G02G30
 124535929.505 7  97041094.626 6  23698398.125                    23698409.816
 129086733.037 6 100587201.40042  24564367.289                    24564378.766
 115957232.654 8  90356349.149 7  22065924.805                    22065934.938
 108818341.095 8  84793626.530 8  20707413.070                    20707422.020
 119905954.087 7  93433300.42544  22817335.359                    22817346.355
 114227452.729 8  89008462.015 7  21736760.461                    21736772.293
 115504357.753 7  90003465.169 7  21979750.453                    21979760.617
 115388508.188 8  89913242.73145  21957677.203                    21957684.594
 115633557.000 7  90104143.27745  22004331.539                    22004341.957
 11  8 27  2 10 30.0000000  0  9G15G10G12G05G26G25G29G02G30
 124439517.702 6  96965968.725 6  23680052.031                    23680063.426
 129195635.261 6 100672060.27542  24585091.141                    24585102.199
 116034942.273 8  90416902.071 7  22080712.422                    22080722.469
 108866639.899 8  84831261.972 7  20716604.070                    20716613.230
 119818765.499 7  93365361.35544  22800743.570                    22800754.469
 114252550.352 8  89028018.607 7  21741536.203                    21741548.707
 115427051.514 8  89943226.572 7  21965039.945                    21965049.449
 115428933.421 8  89944742.90645  21965369.500                    21965377.137
 115663876.577 7  90127768.93145  22010101.438                    22010111.648
 11  8 27  2 11  0.0000000  0  8G15G12G05G26G25G29G02G30
 124343110.633 6  96890846.507 6  23661705.500                    23661716.898
 116112958.616 7  90477694.007 7  22095558.797                    22095568.516
 108915360.517 8  84869226.097 7  20725875.242                    20725884.391
 119731816.258 7  93297608.80444  22784197.367                    22784208.465
 114278175.588 8  89047986.315 7  21746412.820                    21746424.566
 115349910.210 7  89883116.498 7  21950360.336                    21950370.008
 115469443.286 7  89976309.01345  21973078.586                    21973086.051
 115694718.089 7  90151801.28345  22015969.789                    22015980.496
 11  8 27  2 11 30.0000000  0  8G15G12G05G26G25G29G02G30
 124246709.610 7  96815729.010 6  23643361.219                    23643372.367
 116191277.195 8  90538721.454 7  22110462.180                    22110472.250
 108964498.858 8  84907515.727 8  20735225.867                    20735235.047
 119645108.684 7  93230044.56144  22767698.047                    22767708.508
 114304325.261 8  89068362.677 7  21751388.594                    21751400.625
 115272934.153 7  89823135.191 7  21935712.133                    21935721.602
 115510036.511 7  90007940.08145  21980803.328                    21980810.578
 115726077.980 7  90176237.55545  22021937.813                    22021947.914
 11  8 27  2 12  0.0000000  0  8G15G12G05G26G25G29G02G30
 124150317.293 6  96740618.312 6  23625017.852                    23625029.000
 116269894.798 7  90599981.913 7  22125422.844                    22125432.668
 109014052.136 8  84946128.682 8  20744656.125                    20744664.695
 119558645.880 7  93162671.03744  22751244.391                    22751255.129
 114330997.353 8  89089146.128 7  21756464.563                    21756476.527
 115196125.344 8  89763284.200 7  21921095.680                    21921105.598
 115550712.849 7  90039635.91545  21988543.328                    21988550.930
 115757953.804 7  90201075.86445  22028003.594                    22028013.695
 11  8 27  2 12 30.0000000  0  9G15G21G12G05G26G25G29G02G30
 124053936.946 7  96665516.930 6  23606677.281                    23606688.563
 132343123.96216 103124598.38453  25184069.148                    25184080.910
 116348808.969 8  90661473.464 7  22140439.664                    22140449.707
 109064018.859 8  84985063.799 7  20754164.289                    20754172.867
 119472432.093 7  93095491.56244  22734838.445                    22734849.195
 114358190.647 8  89110335.704 7  21761639.102                    21761651.254
 115119486.763 8  89703565.889 7  21906512.281                    21906521.961
 115591472.835 7  90071396.94045  21996300.008                    21996307.605
 115790344.020 7  90226314.99745  22034167.172                    22034177.527
 11  8 27  2 13  0.0000000  0  9G15G21G12G05G26G25G29G02G30
 123957571.583 7  96590427.224 6  23588339.234                    23588350.340
 132287598.041 6 103081331.52943  25173502.469                    25173515.332
 116428016.406 7  90723193.539 7  22155512.047                    22155521.895
 109114396.512 8  85024319.124 7  20763750.547                    20763759.223
 119386470.793 7  93028508.82044  22718480.180                    22718491.289
 114385903.395 8  89131930.055 7  21766912.367                    21766924.570
 115043020.087 8  89643981.508 7  21891961.031                    21891970.637
 115632316.657 7  90103223.30445  22004071.883                    22004079.688
 115823246.527 7  90251953.31745  22040427.914                    22040438.453
 11  8 27  2 13 30.0000000  0  9G15G21G12G05G26G25G29G02G30
 123861223.894 7  96515351.303 6  23570004.969                    23570016.344
 132232073.378 6 103038065.75242  25162935.875                    25162948.656
 116507514.357 8  90785139.982 7  22170640.594                    22170650.105
 109165183.175 8  85063893.156 8  20773414.906                    20773423.758
 119300765.838 7  92961725.83744  22702171.461                    22702181.594
 114414134.226 8  89153928.099 7  21772284.359                    21772296.539
 114966727.874 8  89584533.093 7  21877443.070                    21877452.629
 115673244.767 7  90135115.33645  22011860.820                    22011868.410
 115856659.480 7  90277989.37645  22046786.383                    22046796.863
 11  8 27  2 14  0.0000000  0  9G15G21G12G05G26G25G29G02G30
 123764897.229 7  96440291.746 6  23551674.313                    23551686.000
 132176549.002 6 102994800.09743  25152370.695                    25152382.320
 116587299.904 7  90847310.540 7  22185822.992                    22185832.605
 109216376.910 8  85103784.388 7  20783156.828                    20783165.906
 119215321.317 7  92895145.78845  22685911.422                    22685922.641
 114442881.444 8  89176328.534 7  21777754.711                    21777766.953
 114890612.698 8  89525222.627 7  21862958.305                    21862967.961
 115714257.599 7  90167073.38945  22019665.266                    22019672.484
 115890580.931 7  90304421.67345  22053241.578                    22053252.121
 11  8 27  2 14 30.0000000  0  9G15G21G12G05G26G25G29G02G30
 123668594.259 6  96365250.651 6  23533348.672                    23533359.809
 132121024.090 6 102951534.08543  25141805.164                    25141816.961
 116667369.844 7  90909702.684 7  22201059.898                    22201069.496
 109267974.351 8  85143990.196 7  20792975.617                    20792984.508
 119130140.039 7  92828770.85745  22669701.945                    22669713.000
 114472142.919 8  89199129.674 7  21783323.117                    21783335.363
 114814676.169 8  89466051.371 7  21848508.352                    21848517.598
 115755354.824 7  90199097.19845  22027485.938                    22027493.055
 115925008.230 8  90331248.13945  22059792.578                    22059803.105
 11  8 27  2 15  0.0000000  0  9G15G21G12G05G26G25G29G02G30
 123572317.764 6  96290230.226 6  23515027.445                    23515038.852
 132065498.396 6 102908267.44443  25131238.484                    25131250.707
 116747721.404 7  90972314.288 7  22216350.344                    22216359.957
 109319973.762 8  85184509.229 7  20802870.930                    20802879.707
 119045226.236 7  92762604.35945  22653543.625                    22653554.543
 114501917.232 8  89222330.436 7  21788989.328                    21789001.070
 114738920.790 8  89407021.292 7  21834092.797                    21834102.512
 115796536.819 8  90231187.06945  22035322.805                    22035330.168
 115959939.654 8  90358467.42745  22066440.328                    22066450.320
 11  8 27  2 15 30.0000000  0  9G15G21G12G05G26G25G29G02G30
 123476070.621 6  96215232.626 6  23496711.586                    23496723.734
 132009970.853 6 102864999.41643  25120671.266                    25120683.289
 116828351.281 7  91035142.755 7  22231693.609                    22231703.270
 109372372.040 8  85225339.062 7  20812841.664                    20812850.465
 118960583.319 7  92696648.92645  22637435.961                    22637447.152
 114532202.130 8  89245929.066 7  21794752.063                    21794764.121
 114663348.797 8  89348134.112 7  21819711.656                    21819721.270
 115837803.582 7  90263342.99445  22043175.227                    22043183.082
 115995372.610 7  90386077.51645  22073182.945                    22073193.121
 11  8 27  2 16  0.0000000  0  9G15G21G12G05G26G25G29G02G30
 123379856.640 7  96140260.860 6  23478403.125                    23478414.934
 131954441.480 6 102821729.95843  25110104.984                    25110116.230
 116909257.264 7  91098186.365 7  22247089.414                    22247098.621
 109425168.578 8  85266479.229 7  20822888.570                    20822897.723
 118876215.526 7  92630907.87645  22621381.719                    22621392.488
 114562996.774 8  89269924.887 7  21800612.219                    21800624.059
 114587963.114 8  89289392.097 7  21805366.383                    21805375.785
 115879156.021 7  90295565.68645  22051044.398                    22051051.906
 116031305.816 7  90414077.41345  22080020.938                    22080030.813
 11  8 27  2 16 30.0000000  0  9G15G21G12G05G26G25G29G02G30
 123283678.029 7  96065316.670 6  23460100.742                    23460112.141
 131898909.448 6 102778458.42943  25099537.305                    25099549.027
 116990435.749 7  91161442.316 7  22262537.352                    22262546.754
 109478359.911 8  85307927.024 7  20833010.586                    20833019.020
 118792126.187 7  92565383.79745  22605380.148                    22605390.832
 114594298.680 8  89294315.973 7  21806569.023                    21806580.910
 114512765.488 8  89230796.616 7  21791056.477                    21791065.785
 115920593.892 7  90327854.94645  22058929.648                    22058937.238
 116067736.408 7  90442464.88545  22086953.391                    22086963.285
 11  8 27  2 17  0.0000000  0  9G15G21G12G05G26G25G29G02G30
 123187537.844 7  95990402.431 6  23441805.813                    23441816.883
 131843374.018 6 102735184.26843  25088968.766                    25088980.500
 117071883.556 7  91224908.136 7  22278035.898                    22278046.242
 109531943.648 8  85349680.590 7  20843206.961                    20843215.809
 118708318.882 7  92500079.48945  22589431.648                    22589442.469
 114626106.036 8  89319100.922 7  21812621.398                    21812633.609
 114437758.176 8  89172349.426 7  21776783.078                    21776792.563
 115962117.417 7  90360210.95045  22066831.609                    22066838.715
 116104662.322 7  90471238.32145  22093979.672                    22093990.148
 11  8 27  2 17 30.0000000  0  9G15G21G12G05G26G25G29G02G30
 123091439.396 7  95915520.698 6  23423518.438                    23423529.574
 131787834.712 6 102691907.09943  25078399.281                    25078411.836
 117153598.105 7  91288581.806 7  22293585.891                    22293595.809
 109585917.940 8  85391738.484 7  20853477.695                    20853486.750
 118624797.573 7  92434998.04145  22573538.328                    22573548.777
 114658417.227 8  89344278.478 7  21818769.977                    21818782.133
 114362943.621 8  89114052.439 7  21762545.883                    21762555.516
 116003727.136 8  90392634.11345  22074749.297                    22074756.684
 116142081.451 7  90500396.09145  22101100.297                    22101110.695
 11  8 27  2 18  0.0000000  0  9G15G21G12G05G26G25G29G02G30
 122995385.298 7  95840673.506 6  23405240.172                    23405251.535
 131732291.020 6 102648626.47543  25067830.461                    25067842.184
 117235576.286 7  91352460.894 7  22309185.516                    22309195.445
 109640280.367 8  85434098.820 7  20863823.109                    20863831.805
 118541565.860 7  92370142.23844  22557699.359                    22557710.336
 114691230.352 8  89369847.137 7  21825014.359                    21825026.676
 114288324.150 8  89055907.465 7  21748346.586                    21748356.074
 116045423.283 7  90425124.62745  22082683.703                    22082691.344
 116179991.621 8  90529936.47845  22108314.383                    22108324.633
 11  8 27  2 18 30.0000000  0  9G15G21G12G05G26G25G29G02G30
 122899378.616 7  95765863.272 6  23386971.023                    23386981.473
 131676742.075 6 102605341.78743  25057259.477                    25057271.863
 117317815.036 7  91416543.039 7  22324835.375                    22324845.285
 109695028.173 8  85476759.440 7  20874241.414                    20874250.012
 118458627.310 7  92305514.88344  22541916.875                    22541927.398
 114724543.393 8  89395805.342 7  21831353.594                    21831365.566
 114213901.902 8  88997916.170 7  21734184.445                    21734194.082
 116087205.897 7  90457682.49845  22090634.609                    22090642.277
 116218390.429 7  90559857.61445  22115621.586                    22115631.969
 11  8 27  2 19  0.0000000  0  9G15G21G12G05G26G25G29G02G30
 122803422.127 7  95691092.150 6  23368710.375                    23368721.449
 131621187.362 6 102562052.57143  25046687.570                    25046699.043
 117400310.728 7  91480825.382 7  22340533.539                    22340543.547
 109750158.897 8  85519718.457 7  20884732.344                    20884741.020
 118375985.303 7  92241118.59945  22526190.531                    22526201.313
 114758354.184 8  89422151.416 7  21837787.508                    21837799.758
 114139678.938 8  88940080.155 7  21720060.023                    21720069.738
 116129075.109 7  90490307.86845  22098602.016                    22098609.660
 116257275.294 7  90590157.49745  22123021.219                    22123031.113
 11  8 27  2 19 30.0000000  0  9G15G21G12G05G26G25G29G02G30
 122707519.060 7  95616362.652 6  23350460.766                    23350471.137
 131565626.420 6 102518758.48343  25036114.641                    25036125.883
 117483060.853 7  91545305.999 7  22356280.273                    22356290.453
 109805670.625 8  85562974.352 7  20895295.766                    20895304.492
 118293643.714 7  92176956.40745  22510521.375                    22510532.121
 114792661.039 8  89448884.018 7  21844315.898                    21844328.180
 114065657.828 8  88882401.417 7  21705974.531                    21705984.418
 116171031.433 7  90523001.11345  22106586.406                    22106593.789
 116296644.235 7  90620834.60245  22130513.250                    22130523.199
 11  8 27  2 20  0.0000000  0  9G15G21G12G05G26G25G29G02G30
 122611672.751 7  95541677.370 6  23332221.992                    23332232.473
 131510058.658 6 102475459.08543  25025540.875                    25025551.324
 117566062.441 7  91609982.556 7  22372075.117                    22372085.199
 109861560.887 8  85606525.204 7  20905931.336                    20905940.168
 118211606.504 7  92113031.39244  22494910.148                    22494920.941
 114827462.132 8  89476001.751 7  21850938.109                    21850950.098
 113991840.955 8  88824881.834 7  21691927.539                    21691937.109
 116213074.985 7  90555762.33245  22114586.656                    22114594.176
 116336495.026 7  90651887.15445  22138096.219                    22138106.129
 11  8 27  2 20 30.0000000  0  9G15G21G12G05G26G25G29G02G30
 122515885.640 7  95467038.215 6  23313994.117                    23314004.605
 131454483.256 6 102432153.65643  25014965.070                    25014975.352
 117649312.050 7  91674852.383 7  22387917.305                    22387926.617
 109917826.929 8  85650368.871 7  20916638.344                    20916647.027
 118129876.791 7  92049345.97945  22479357.453                    22479368.348
 114862755.101 8  89503502.759 7  21857654.305                    21857666.246
 113918230.665 8  88767523.205 7  21677920.055                    21677929.344
 116255205.843 7  90588591.57845  22122604.063                    22122611.508
 116376824.941 7  90683313.05745  22145770.750                    22145781.090
 11  8 27  2 21  0.0000000  0  9G15G21G12G05G26G25G29G02G30
 122420160.950 7  95392447.701 6  23295777.695                    23295788.145
 131398899.747 6 102388841.89242  25004387.398                    25004398.250
 117732807.044 7  91739913.409 7  22403805.773                    22403815.563
 109974466.776 8  85694503.822 7  20927416.766                    20927425.586
 118048458.572 7  91985903.29345  22463864.141                    22463875.406
 114898538.276 8  89531385.751 7  21864463.656                    21864476.250
 113844829.122 8  88710327.235 7  21663951.938                    21663961.527
 116297424.934 7  90621489.57145  22130638.320                    22130645.230
 116417631.910 7  90715110.68045  22153536.305                    22153546.750
 11  8 27  2 21 30.0000000  0  9G15G21G12G05G26G25G29G02G30
 122324501.692 7  95317908.162 6  23277574.086                    23277584.660
 131343307.418 6 102345523.33142  24993808.430                    24993820.215
 117816544.395 7  91805163.293 7  22419740.297                    22419750.258
 110031477.709 8  85738927.923 7  20938265.383                    20938274.117
 117967355.484 7  91922706.16944  22448430.586                    22448441.324
 114934809.441 8  89559649.004 7  21871365.633                    21871377.887
 113771638.814 8  88653295.864 7  21650024.383                    21650034.000
 116339732.210 7  90654456.27745  22138688.773                    22138696.449
 116458913.460 7  90747278.11845  22161391.453                    22161401.949
 11  8 27  2 22  0.0000000  0  9G15G21G12G05G26G25G29G02G30
 122228910.658 7  95243421.786 6  23259384.336                    23259394.578
 131287705.852 6 102302197.54642  24983227.203                    24983238.703
 117900520.958 7  91870599.563 7  22435720.305                    22435730.324
 110088857.375 8  85783639.358 7  20949184.313                    20949192.586
 117886571.262 7  91859757.50944  22433057.734                    22433068.480
 114971566.732 8  89588291.050 7  21878360.094                    21878372.387
 113698661.895 8  88596430.763 7  21636137.352                    21636146.566
 116382127.928 7  90687491.90945  22146756.445                    22146764.270
 116500667.349 7  90779813.61145  22169337.313                    22169347.457
 11  8 27  2 22 30.0000000  0  9G15G21G12G05G26G25G29G02G30
 122133391.246 7  95168991.219 6  23241206.906                    23241217.934
 131232094.824 5 102258864.41342  24972644.867                    24972656.664
 117984733.478 7  91936219.700 7  22451746.211                    22451755.555
 110146603.913 8  85828636.671 7  20960173.008                    20960181.789
 117806109.690 7  91797060.25945  22417746.453                    22417756.516
 115008808.319 8  89617310.468 7  21885447.109                    21885459.277
 113625900.936 8  88539733.947 7  21622291.758                    21622300.941
 116424612.565 7  90720596.81745  22154841.203                    22154848.621
 116542891.409 7  90812715.46345  22177372.500                    22177382.539
 11  8 27  2 23  0.0000000  0  9G15G21G12G05G26G25G29G02G30
 122037946.476 7  95094618.813 6  23223044.094                    23223054.547
 131176473.432 6 102215523.17242  24962059.672                    24962071.992
 118069179.132 7  92002021.501 7  22467815.094                    22467825.219
 110204714.549 8  85873917.686 7  20971231.414                    20971240.164
 117725973.860 7  91734616.84145  22402497.063                    22402507.324
 115046531.554 8  89646705.195 7  21892625.625                    21892637.824
 113553358.357 8  88483207.294 7  21608486.844                    21608495.992
 116467186.210 7  90753771.09345  22162942.695                    22162950.246
 116585582.605 7  90845981.33545  22185496.555                    22185506.324
 11  8 27  2 23 30.0000000  0  9G15G21G12G05G26G25G29G02G30
 121942578.875 7  95020306.529 6  23204896.438                    23204906.973
 131120841.112 6 102172173.48443  24951474.211                    24951485.402
 118153854.584 7  92068002.363 7  22483928.641                    22483938.418
 110263186.465 8  85919480.235 7  20982358.117                    20982366.730
 117646167.408 7  91672430.08945  22387310.398                    22387320.297
 115084734.239 8  89676473.523 7  21899895.336                    21899907.164
 113481035.580 8  88426851.900 7  21594724.453                    21594733.813
 116509848.810 7  90787014.67045  22171061.039                    22171068.617
 116628738.416 7  90879609.23845  22193708.297                    22193718.152
 11  8 27  2 24  0.0000000  0  9G15G21G12G05G26G25G29G02G30
 121847291.674 7  94946056.906 6  23186764.406                    23186774.297
 131065197.075 6 102128814.65043  24940885.141                    24940896.387
 118238756.918 7  92134160.020 7  22500084.930                    22500094.785
 110322017.500 8  85965322.604 7  20993553.328                    20993561.680
 117566694.193 7  91610502.98245  22372187.000                    22372197.152
 115123414.606 8  89706614.072 7  21907256.367                    21907268.406
 113408935.620 8  88370670.141 7  21581003.938                    21581013.676
 116552601.126 7  90820328.16345  22179196.500                    22179203.938
 116672356.731 7  90913597.54045  22202008.711                    22202019.266
 11  8 27  2 24 30.0000000  0  9G15G21G12G05G26G25G29G02G30
 121752088.321 7  94871872.603 6  23168646.898                    23168657.660
 131009541.282 6 102085446.61943  24930294.695                    24930305.289
 118323883.436 7  92200492.352 7  22516283.852                    22516293.617
 110381206.160 8  86011443.652 7  21004816.961                    21004825.500
 117487558.419 7  91548838.83645  22357127.758                    22357138.234
 115162570.944 8  89737125.501 7  21914707.367                    21914719.652
 113337061.421 8  88314664.304 7  21567326.625                    21567336.102
 116595443.663 7  90853711.94745  22187349.086                    22187356.777
 116716435.474 7  90947944.60645  22210396.703                    22210406.926
 11  8 27  2 25  0.0000000  0  9G15G21G12G05G26G25G29G02G30
 121656970.951 7  94797755.314 6  23150546.977                    23150557.035
 130953872.203 6 102042068.26143  24919700.789                    24919712.156
 118409229.934 7  92266996.113 7  22532524.773                    22532534.648
 110440747.976 8  86057839.876 7  21016147.109                    21016155.719
 117408762.304 7  91487439.35545  22342133.516                    22342143.723
 115202199.848 8  89768005.164 7  21922248.711                    21922260.422
 113265414.252 8  88258835.376 7  21553692.672                    21553702.293
 116638375.996 7  90887165.71545  22195518.969                    22195526.555
 116760970.995 7  90982647.60645  22218871.133                    22218881.188
 11  8 27  2 25 30.0000000  0  9G15G21G12G05G26G25G29G02G30
 121561943.235 7  94723707.858 6  23132463.445                    23132473.875
 130898189.803 6 101998679.51943  24909104.047                    24909115.039
 118494794.041 7  92333669.423 7  22548806.836                    22548817.184
 110500641.608 8  86104510.242 7  21027544.117                    21027553.320
 117330310.434 7  91426308.10545  22327204.852                    22327214.906
 115242299.956 8  89799252.005 7  21929879.203                    21929891.301
 113193996.816 8  88203185.453 7  21540102.523                    21540112.066
 116681398.759 7  90920689.93445  22203705.766                    22203713.465
 116805961.465 7  91017705.10245  22227432.953                    22227442.996
 11  8 27  2 26  0.0000000  0  9G15G21G12G05G26G25G29G02G30
 121467008.216 7  94649732.667 6  23114397.844                    23114408.078
 130842493.827 6 101955280.19443  24898505.680                    24898516.441
 118580573.033 7  92400510.200 7  22565130.516                    22565139.621
 110560884.895 8  86151453.067 7  21039008.578                    21039017.297
 117252206.299 7  91365447.82445  22312341.656                    22312352.066
 115282869.166 8  89830864.360 7  21937599.492                    21937611.438
 113122811.734 8  88147716.602 7  21526556.391                    21526565.715
 116724512.513 7  90954285.05045  22211909.875                    22211917.418
 116851404.502 7  91053115.26145  22236080.039                    22236090.602
 11  8 27  2 26 30.0000000  0  9G15G21G12G05G26G25G29G02G30
 121372168.971 7  94575832.067 6  23096350.156                    23096361.141
 130786783.531 6 101911869.73143  24887904.188                    24887914.785
 118666563.637 7  92467515.838 6  22581494.164                    22581503.715
 110621475.418 8  86198666.468 7  21050538.016                    21050547.195
 117174453.567 7  91304861.36445  22297546.109                    22297556.074
 115323905.158 8  89862840.451 7  21945408.609                    21945420.512
 113051861.300 8  88092430.589 7  21513055.016                    21513064.160
 116767717.649 7  90987951.39445  22220131.758                    22220139.258
 116897297.484 7  91088876.02545  22244813.383                    22244823.730
 11  8 27  2 27  0.0000000  0  9G15G21G12G05G26G25G29G02G30
 121277428.318 7  94502008.308 6  23078321.969                    23078332.168
 130731058.086 6 101868447.45143  24877299.469                    24877310.531
 118752762.385 7  92534683.673 7  22597897.250                    22597906.551
 110682410.053 8  86246148.007 7  21062133.805                    21062142.559
 117097055.597 7  91244551.33445  22282817.023                    22282827.445
 115365405.360 8  89895178.265 7  21953305.398                    21953317.848
 112981147.635 8  88037329.076 7  21499598.711                    21499608.445
 116811014.129 7  91021688.88945  22228370.984                    22228378.277
 116943637.463 7  91124985.09545  22253631.813                    22253641.988
 11  8 27  2 27 30.0000000  0  9G15G21G12G05G26G25G29G02G30
 121182789.898 7  94428264.195 6  23060313.000                    23060322.590
 130675317.444 6 101825013.32743  24866693.008                    24866703.977
 118839166.680 7  92602011.699 7  22614339.438                    22614348.414
 110743687.282 8  86293896.504 7  21073794.539                    21073803.262
 117020016.329 7  91184520.80745  22268156.867                    22268167.082
 115407368.242 8  89927876.601 7  21961291.055                    21961302.969
 112910673.719 8  87982414.388 7  21486187.688                    21486196.973
 116854402.677 7  91055498.14445  22236627.352                    22236634.906
 116990422.606 7  91161441.05345  22262534.594                    22262544.879
 11  8 27  2 28  0.0000000  0  9G15G21G12G05G26G25G29G02G30
 121088256.125 7  94354601.645 6  23042323.164                    23042333.461
 130619560.677 6 101781566.63243  24856083.000                    24856093.715
 118925773.221 7  92669497.312 6  22630820.352                    22630829.219
 110805303.955 8  86341909.486 7  21085519.563                    21085528.453
 116943338.907 7  91124772.24345  22253565.711                    22253576.105
 115449790.836 8  89960933.157 7  21969363.453                    21969375.504
 112840440.941 8  87927687.595 7  21472823.086                    21472832.367
 116897883.267 7  91089379.11145  22244901.320                    22244909.238
 117037649.593 7  91198241.29445  22271521.906                    22271531.879
 11  8 27  2 28 30.0000000  0  9G15G21G12G05G26G25G29G02G30
 120993830.458 7  94281023.325 6  23024354.859                    23024365.043
 130563787.247 6 101738106.92943  24845469.297                    24845480.289
 119012578.886 7  92737138.065 7  22647338.742                    22647347.988
 110867257.945 8  86390185.329 7  21097309.008                    21097317.465
 116867027.204 7  91065308.63545  22239044.242                    22239054.492
 115492671.193 8  89994346.421 7  21977523.422                    21977535.547
 112770452.436 8  87873151.153 7  21459504.484                    21459513.781
 116941456.563 7  91123332.31345  22253193.422                    22253200.578
 117085316.075 7  91235384.00245  22280592.125                    22280602.117
 11  8 27  2 29  0.0000000  0  9G15G21G12G05G26G25G29G02G30
 120899515.703 7  94207531.428 6  23006407.445                    23006416.867
 130507996.686 6 101694633.87843  24834852.836                    24834863.547
 119099580.742 7  92804931.727 6  22663894.508                    22663903.688
 110929546.743 8  86438722.051 7  21109162.336                    21109171.258
 116791084.753 7  91006132.76645  22224592.719                    22224603.270
 115536006.992 8  90028114.557 7  21985770.156                    21985782.164
 112700710.353 8  87818806.719 7  21446233.180                    21446242.461
 116985122.946 7  91157358.06545  22261502.898                    22261510.426
 117133419.502 7  91272867.19445  22289746.203                    22289755.938
 11  8 27  2 29 30.0000000  0  9G15G21G12G05G26G25G29G02G30
 120805315.165 7  94134128.527 6  22988481.266                    22988491.238
 130452188.344 6 101651146.99143  24824232.484                    24824243.609
 119186775.603 7  92872875.761 7  22680486.906                    22680496.344
 110992167.719 8  86487517.606 7  21121078.359                    21121087.520
 116715515.404 7  90947247.63345  22210212.406                    22210222.574
 115579795.918 8  90062235.795 7  21994102.648                    21994114.891
 112631217.197 8  87764656.251 7  21433008.930                    21433018.207
 117028882.458 7  91191456.38145  22269830.047                    22269837.309
 117181957.290 7  91310688.84145  22298982.406                    22298992.414
 11  8 27  2 30  0.0000000  0  9G15G21G12G05G26G25G29G02G30
 120711231.664 7  94060816.815 6  22970578.070                    22970587.973
 130396361.658 6 101607645.80443  24813608.820                    24813619.488
 119274160.424 7  92940967.822 7  22697115.797                    22697125.734
 111055118.367 8  86536570.052 7  21133057.766                    21133066.402
 116640322.015 7  90888655.43745  22195903.438                    22195913.941
 115624035.459 8  90096708.167 7  22002521.164                    22002533.129
 112561975.132 8  87710701.455 7  21419832.609                    21419841.395
 117072735.653 7  91225627.71745  22278174.891                    22278182.762
 117230926.579 7  91348846.71145  22308301.367                    22308310.742
 11  8 27  2 30 30.0000000  0  9G15G21G12G05G26G25G29G02G30
 120617268.784 7  93987599.084 6  22952697.266                    22952707.023
 130340516.294 6 101564130.04943  24802981.656                    24802992.348
 119361732.720 7  93009205.973 7  22713780.422                    22713789.938
 111118396.789 8  86585877.919 7  21145099.203                    21145107.602
 116565509.014 7  90830359.66345  22181666.891                    22181677.543
 115668723.733 8  90131530.205 7  22011025.266                    22011037.168
 112492987.116 8  87656944.613 7  21406704.336                    21406713.621
 117116683.149 7  91259872.53345  22286538.086                    22286545.211
 117280325.061 7  91387339.03545  22317701.258                    22317711.207
 11  8 27  2 31  0.0000000  0  9G15G21G12G05G26G25G29G02G30
 120523429.159 7  93914477.411 6  22934839.984                    22934849.852
 130284651.579 6 101520599.21343  24792351.117                    24792361.727
 119449488.268 7  93077586.904 7  22730479.711                    22730489.430
 111182000.114 8  86635438.934 7  21157202.250                    21157211.035
 116491079.443 7  90772362.65945  22167503.344                    22167513.422
 115713857.935 8  90166699.705 7  22019614.008                    22019626.066
 112424254.678 8  87603386.897 7  21393624.984                    21393634.234
 117160725.026 7  91294190.88745  22294918.773                    22294926.270
 117330149.765 7  91426163.47645  22327182.742                    22327192.699
 11  8 27  2 31 30.0000000  0 10G15G21G12G05G26G25G29G02G30G18
 120429715.607 7  93841453.962 6  22917006.625                    22917016.867
 130228766.772 6 101477052.69643  24781716.367                    24781726.898
 119537424.256 7  93146108.444 7  22747213.055                    22747223.258
 111245925.382 8  86685250.824 7  21169367.086                    21169375.746
 116417036.447 7  90714666.89345  22153413.383                    22153423.605
 115759435.476 8  90202214.675 7  22028286.789                    22028299.238
 112355780.347 8  87550030.329 7  21380594.594                    21380603.980
 117204861.480 7  91328582.94445  22303317.500                    22303325.047
 117380397.648 7  91465317.65945  22336744.625                    22336754.109
 129699041.56116 101064265.69352  24680915.352                    24680927.070
 11  8 27  2 32  0.0000000  0 10G15G21G12G05G26G25G29G02G30G18
 120336131.672 7  93768531.501 6  22899198.063                    22899208.293
 130172861.475 6 101433490.28143  24771077.625                    24771088.438
 119625537.979 7  93214768.489 7  22763980.109                    22763990.500
 111310170.666 8  86735312.080 7  21181592.461                    21181601.051
 116343384.164 7  90657275.57045  22139398.086                    22139408.223
 115805454.252 8  90238073.475 7  22037044.148                    22037056.258
 112287566.948 8  87496877.063 7  21367613.969                    21367623.164
 117249093.061 7  91363049.13045  22311734.844                    22311742.051
 117431066.422 7  91504799.80945  22346386.383                    22346396.414
 129610161.245 6 100995008.59742  24664000.883                    24664014.059
 11  8 27  2 32 30.0000000  0 10G15G21G12G05G26G25G29G02G30G18
 120242679.427 7  93695711.674 6  22881414.898                    22881424.457
 130116934.529 6 101389910.95543  24760434.406                    24760445.832
 119713825.255 7  93283563.748 6  22780781.023                    22780790.602
 111374732.469 8  86785619.977 7  21193878.023                    21193887.203
 116270124.869 7  90600190.46945  22125457.375                    22125467.387
 115851910.946 8  90274273.510 7  22045884.570                    22045896.762
 112219615.628 8  87443928.026 7  21354683.766                    21354692.449
 117293419.493 7  91397589.22245  22320169.297                    22320177.273
 117482152.343 7  91544607.02445  22356107.758                    22356117.773
 129521447.614 6 100925881.43642  24647119.953                    24647132.148
 11  8 27  2 33  0.0000000  0 10G15G21G12G05G26G25G29G02G30G18
 120149363.759 7  93622998.252 7  22863657.227                    22863667.750
 130060986.822 6 101346315.43843  24749788.539                    24749798.988
 119802284.576 7  93352493.052 7  22797614.891                    22797624.000
 111439610.216 8  86836174.048 7  21206224.063                    21206232.762
 116197263.861 7  90543415.72945  22111592.078                    22111601.836
 115898804.741 8  90310814.140 7  22054807.859                    22054820.227
 112151930.594 8  87391186.481 7  21341803.484                    21341812.582
 117337842.073 7  91432204.24245  22328622.211                    22328630.082
 117533654.371 7  91584738.46945  22365908.359                    22365918.309
 129432902.994 6 100856886.00942  24630269.891                    24630282.090
 11  8 27  2 33 30.0000000  0 10G15G21G12G05G26G25G29G02G30G18
 120056186.875 7  93550392.985 7  22845926.094                    22845936.762
 130005017.162 6 101302702.79343  24739138.352                    24739148.387
 119890912.610 7  93421553.842 7  22814479.813                    22814489.457
 111504800.796 8  86886971.888 7  21218629.609                    21218638.102
 116124804.064 7  90486953.61845  22097803.602                    22097813.727
 115946132.685 8  90347693.072 7  22063814.461                    22063826.570
 112084513.826 8  87338653.960 7  21328974.359                    21328983.703
 117382361.340 7  91466894.60345  22337094.516                    22337102.801
 117585569.258 7  91625191.62145  22375787.180                    22375797.156
 129344528.237 6 100788022.78542  24613452.102                    24613464.906
 11  8 27  2 34  0.0000000  0 10G15G21G12G05G26G25G29G02G30G18
 119963152.029 7  93477898.389 7  22828222.234                    22828232.547
 129949024.915 6 101259072.61343  24728483.266                    24728493.707
 119979705.805 7  93490743.331 7  22831376.250                    22831386.598
 111570301.379 8  86938011.298 7  21231093.844                    21231102.453
 116052748.961 7  90430806.85845  22084091.672                    22084101.504
 115993891.981 8  90384908.122 7  22072902.547                    22072914.734
 112017367.155 8  87286331.922 7  21316196.914                    21316206.398
 117426977.436 7  91501660.41245  22345584.492                    22345592.141
 117637893.892 7  91665964.06145  22385744.031                    22385754.613
 129256324.300 6 100719292.76542  24596666.852                    24596679.895
 11  8 27  2 34 30.0000000  0 10G15G21G12G05G26G25G29G02G30G18
 119870262.303 7  93405516.878 7  22810545.992                    22810555.859
 129893009.528 6 101215424.39643  24717823.617                    24717833.914
 120068661.135 7  93560059.154 7  22848304.047                    22848314.023
 111636109.531 8  86989290.373 7  21243616.523                    21243625.762
 115981101.832 7  90374977.99045  22070457.539                    22070467.266
 116042080.280 8  90422457.444 7  22082072.625                    22082084.680
 111950493.072 8  87234222.281 7  21303471.102                    21303480.633
 117471690.671 7  91536501.91245  22354092.945                    22354101.109
 117690625.573 7  91707053.68845  22395778.789                    22395789.320
 129168292.682 6 100650696.98243  24579916.117                    24579927.449
 11  8 27  2 35  0.0000000  0 10G15G21G12G05G26G25G29G02G30G18
 119777520.675 7  93333250.768 6  22792897.875                    22792907.457
 129836970.871 6 101171757.99643  24707159.547                    24707169.848
 120157775.800 7  93629499.138 7  22865261.969                    22865271.719
 111702223.011 8  87040807.367 7  21256197.867                    21256206.633
 115909866.327 7  90319469.86945  22056901.563                    22056911.625
 116090695.189 8  90460339.203 7  22091323.523                    22091335.500
 111883894.427 8  87182327.262 7  21290797.516                    21290806.785
 117516501.422 7  91571419.39945  22362620.617                    22362628.098
 117743761.693 7  91748458.46245  22405889.961                    22405900.398
 129080434.817 6 100582236.58143  24563196.430                    24563208.727
 11  8 27  2 35 30.0000000  0 10G15G21G12G05G26G25G29G02G30G18
 119684930.207 7  93261102.431 7  22775278.172                    22775288.242
 129780907.937 6 101128072.70243  24696491.141                    24696501.473
 120247046.990 7  93699061.088 7  22882249.828                    22882259.750
 111768639.117 8  87092560.170 7  21268836.266                    21268845.289
 115839045.850 7  90264285.14645  22043424.930                    22043434.809
 116139734.104 8  90498551.359 7  22100655.258                    22100667.336
 111817573.217 8  87130648.427 7  21278177.445                    21278186.371
 117561410.197 7  91606413.26445  22371166.500                    22371174.273
 117797299.346 7  91790176.12645  22416078.016                    22416088.246
 128992751.776 6 100513912.42643  24546511.000                    24546522.840
 11  8 27  2 36  0.0000000  0 10G15G21G12G05G26G25G29G02G30G18
 119592494.373 7  93189074.610 7  22757688.211                    22757698.375
 129724820.778 6 101084368.51443  24685818.109                    24685828.023
 120336471.125 7  93768742.199 6  22899266.641                    22899276.898
 111835355.776 7  87144547.171 7  21281531.750                    21281540.902
 115768643.830 7  90209426.49245  22030028.125                    22030037.715
 116189194.688 7  90537092.080 7  22110067.375                    22110079.395
 111751532.056 7  87079187.822 7  21265609.898                    21265619.047
 117606417.376 7  91641483.80245  22379731.211                    22379738.398
 117851235.892 7  91832204.60544  22426341.547                    22426352.039
 128905244.977 6 100445725.56343  24529858.938                    24529870.242
 11  8 27  2 36 30.0000000  0 10G15G21G12G05G26G25G29G02G30G18
 119500215.843 7  93117169.347 6  22740127.984                    22740137.672
 129668708.525 6 101040644.78043  24675139.906                    24675150.266
 120426045.020 7  93838540.029 6  22916312.336                    22916321.926
 111902370.152 8  87196766.158 7  21294284.383                    21294293.648
 115698663.779 7  90154896.64045  22016711.289                    22016721.434
 116239074.173 8  90575959.226 7  22119559.297                    22119571.180
 111685773.102 8  87027947.107 7  21253096.313                    21253105.566
 117651523.214 7  91676631.21145  22388314.273                    22388321.504
 117905568.195 7  91874541.46045  22436680.109                    22436691.348
 128817915.600 6 100377676.94943  24513240.625                    24513252.344
 11  8 27  2 37  0.0000000  0 10G15G21G12G05G26G25G29G02G30G18
 119408097.918 7  93045389.234 7  22722598.930                    22722608.070
 129612570.739 6 100996901.16243  24664456.836                    24664467.629
 120515765.856 7  93908452.352 7  22933385.500                    22933394.922
 111969679.730 8  87249215.178 7  21307093.008                    21307102.031
 115629109.021 7  90100698.19245  22003475.383                    22003485.145
 116289370.095 8  90615150.875 7  22129130.281                    22129142.180
 111620299.119 8  86976928.459 7  21240637.094                    21240646.457
 117696728.337 7  91711856.00045  22396916.281                    22396923.801
 117960293.640 7  91917184.66545  22447094.531                    22447105.059
 128730764.820 6 100309767.47142  24496655.508                    24496667.895
 11  8 27  2 37 30.0000000  0 10G15G21G12G05G26G25G29G02G30G18
 119316143.860 7  92973736.804 6  22705100.367                    22705110.180
 129556407.051 6 100953137.35843  24653770.156                    24653779.453
 120605630.360 7  93978476.638 6  22950486.422                    22950495.633
 112037282.098 8  87301892.349 7  21319957.172                    21319966.309
 115559983.107 7  90046833.89745  21990321.117                    21990330.883
 116340079.893 8  90654665.007 7  22138779.758                    22138791.547
 111555112.475 7  86926133.708 7  21228232.250                    21228241.637
 117742033.133 7  91747158.43645  22405538.305                    22405545.711
 118015409.382 7  91960132.01845  22457583.234                    22457593.305
 128643793.665 6 100241997.98542  24480104.867                    24480117.039
 11  8 27  2 38  0.0000000  0 10G15G21G12G05G26G25G29G02G30G18
 119224356.732 7  92902214.448 7  22687633.430                    22687643.488
 129500216.858 6 100909352.92543  24643077.016                    24643087.164
 120695635.822 7  94048610.757 6  22967613.656                    22967623.262
 112105175.093 8  87354795.986 7  21332876.805                    21332885.703
 115491289.478 7  89993306.45945  21977248.820                    21977258.711
 116391201.043 8  90694499.685 7  22148507.648                    22148519.930
 111490215.252 8  86875564.483 7  21215882.688                    21215892.090
 117787437.912 7  91782538.79945  22414177.703                    22414185.625
 118070912.497 7  92003381.20345  22468144.664                    22468155.324
 128557003.652 6 100174369.64242  24463589.484                    24463601.641
 11  8 27  2 38 30.0000000  0 10G15G21G12G05G26G25G29G02G30G18
 119132739.463 7  92830824.466 6  22670199.266                    22670209.602
 129443999.298 6 100865547.13543  24632379.547                    24632389.523
 120785778.498 7  94118851.795 6  22984767.344                    22984776.656
 112173355.618 8  87407923.675 7  21345851.359                    21345860.145
 115423031.008 7  89940118.08645  21964260.086                    21964269.738
 116442730.444 8  90734652.479 7  22158313.703                    22158325.527
 111425609.432 8  86825222.331 7  21203588.625                    21203598.078
 117832943.045 7  91817997.33345  22422837.430                    22422845.535
 118126799.658 7  92046929.64344  22478779.563                    22478790.316
 128470395.625 6 100106883.02843  24447108.016                    24447120.527
 11  8 27  2 39  0.0000000  0 10G15G21G12G05G26G25G29G02G30G18
 119041294.835 7  92759568.999 6  22652797.648                    22652807.848
 129387754.087 6 100821719.78543  24621675.719                    24621686.074
 120876055.491 7  94189197.486 6  23001946.938                    23001956.527
 112241821.370 8  87461273.622 7  21358879.859                    21358888.320
 115355211.376 7  89887271.67745  21951354.148                    21951364.102
 116494665.748 8  90775121.551 7  22168196.648                    22168208.664
 111361297.966 8  86775109.545 7  21191350.625                    21191359.645
 117878549.155 7  91853534.57845  22431515.641                    22431523.313
 118183068.326 7  92090775.36244  22489487.531                    22489497.414
 128383970.792 6 100039539.22042  24430662.336                    24430673.949
 11  8 27  2 39 30.0000000  0 10G15G21G12G05G26G25G29G02G30G18
 118950026.175 7  92688450.639 6  22635430.125                    22635440.199
 129331480.943 6 100777870.68543  24610967.797                    24610977.609
 120966464.012 7  94259645.688 6  23019150.469                    23019160.219
 112310570.036 8  87514844.027 7  21371962.188                    21371971.379
 115287834.111 7  89834769.96445  21938532.383                    21938542.375
 116547004.472 8  90815904.986 7  22178156.406                    22178168.039
 111297283.005 7  86725227.802 7  21179168.898                    21179177.824
 117924256.291 7  91889150.52445  22440213.695                    22440221.805
 118239715.577 7  92134916.08945  22500267.172                    22500277.191
 128297730.716 6  99972339.34642  24414251.367                    24414262.305
 11  8 27  2 40  0.0000000  0 10G15G21G12G05G26G25G29G02G30G18
 118858937.358 7  92617472.428 7  22618096.078                    22618105.996
 129275179.464 6 100733999.54443  24600253.523                    24600263.824
 121057001.386 7  94330194.272 6  23036379.633                    23036388.953
 112379599.520 8  87568633.233 7  21385098.164                    21385106.930
 115220902.677 7  89782615.65545  21925795.906                    21925805.867
 116599744.137 8  90857000.837 7  22188192.117                    22188204.074
 111233567.465 7  86675579.367 7  21167043.961                    21167053.160
 117970065.207 7  91924845.78145  22448930.977                    22448938.195
 118296738.824 7  92179349.80644  22511118.305                    22511128.203
 128211676.729 6  99905284.48243  24397876.055                    24397886.969
 11  8 27  2 40 30.0000000  0 10G15G21G12G05G26G25G29G02G30G18
 118768031.131 7  92546636.480 6  22600797.094                    22600807.180
 129218849.232 6 100690105.97443  24589534.023                    24589544.578
 121147664.339 7  94400840.721 7  23053631.344                    23053641.395
 112448907.071 8  87622639.120 7  21398287.156                    21398295.688
 115154420.454 7  89730811.37345  21913144.563                    21913154.988
 116652882.116 8  90898407.067 7  22198304.031                    22198316.141
 111170153.735 8  86626166.117 7  21154977.203                    21154985.898
 118015976.430 7  91960620.76545  22457667.289                    22457675.230
 118354135.033 7  92224074.12544  22522040.320                    22522050.285
 128125809.473 6  99838375.09043  24381535.570                    24381546.957
 11  8 27  2 41  0.0000000  0 10G15G21G12G05G26G25G29G02G30G18
 118677310.254 7  92475944.956 6  22583533.641                    22583543.246
 129162489.376 6 100646189.29943  24578808.984                    24578818.883
 121238449.219 7  94471582.169 6  23070907.516                    23070917.863
 112518489.778 8  87676859.425 7  21411527.813                    21411536.613
 115088390.485 7  89679359.50645  21900580.047                    21900589.297
 116706415.454 8  90940121.360 7  22208490.883                    22208503.000
 111107043.805 8  86576989.598 7  21142967.477                    21142976.699
 118061990.294 7  91996475.72545  22466423.539                    22466430.953
 118411901.097 7  92269086.65845  22533032.969                    22533043.379
 128040130.366 6  99771612.34143  24365231.445                    24365242.602
 11  8 27  2 41 30.0000000  0 10G15G21G12G05G26G25G29G02G30G18
 118586778.297 7  92405400.642 7  22566306.352                    22566315.711
 129106099.871 6 100602249.56543  24568078.094                    24568088.188
 121329353.335 7  94542416.526 7  23088206.297                    23088216.109
 112588345.853 8  87731292.736 7  21424820.992                    21424829.586
 115022816.464 7  89628262.91145  21888101.016                    21888111.438
 116760341.719 8  90982141.834 7  22218752.969                    22218764.820
 111044240.294 7  86528051.833 7  21131016.086                    21131025.184
 118108107.290 7  92032411.03445  22475199.078                    22475206.828
 118470034.306 7  92314385.27444  22544095.109                    22544105.508
 127954640.459 7  99704997.00443  24348963.109                    24348973.613
 11  8 27  2 42  0.0000000  0 10G15G21G12G05G26G25G29G02G30G18
 118496438.036 7  92335005.722 7  22549114.484                    22549124.211
 129049679.924 6 100558286.09143  24557341.820                    24557351.824
 121420373.700 7  94613341.484 6  23105526.711                    23105536.770
 112658472.516 8  87785936.911 7  21438165.852                    21438174.430
 114957701.311 7  89577523.89545  21875710.352                    21875720.145
 116814658.026 8  91024466.243 7  22229089.203                    22229100.660
 110981745.744 8  86479354.833 7  21119124.133                    21119133.234
 118154327.844 7  92068427.05245  22483994.883                    22484002.613
 118528531.510 7  92359967.50944  22555226.813                    22555237.230
 127869341.178 6  99638530.21343  24332731.023                    24332742.152
 11  8 27  2 42 30.0000000  0 10G15G21G12G05G26G25G29G02G30G18
 118406292.824 7  92264762.767 7  22531960.750                    22531970.035
 128993229.186 6 100514298.64943  24546599.719                    24546609.676
 121511507.693 7  94684354.966 6  23122868.922                    23122878.855
 112728867.316 8  87840790.010 7  21451561.414                    21451570.242
 114893048.475 7  89527145.10145  21863407.445                    21863416.934
 116869361.753 8  91067092.534 7  22239498.852                    22239510.852
 110919562.089 7  86430900.066 7  21107290.672                    21107299.809
 118200652.351 7  92104524.07945  22492810.469                    22492817.855
 118587389.725 7  92405831.05444  22566426.953                    22566437.063
 127784233.287 6  99572212.63143  24316535.531                    24316546.773
 11  8 27  2 43  0.0000000  0 10G15G21G12G05G26G25G29G02G30G18
 118316345.711 7  92194674.185 7  22514844.484                    22514854.043
 128936747.277 6 100470286.88243  24535851.328                    24535861.418
 121602751.493 7  94755454.003 6  23140232.156                    23140242.359
 112799527.969 8  87895850.268 7  21465007.969                    21465016.543
 114828861.371 7  89477129.22645  21851192.648                    21851202.391
 116924450.292 7  91110018.677 7  22249981.797                    22249993.617
 110857692.143 7  86382689.768 7  21095517.383                    21095526.508
 118247081.438 7  92140702.57645  22501645.781                    22501652.852
 118646606.205 7  92451973.78545  22577695.867                    22577706.125
 127699318.281 6  99506045.26643  24300375.977                    24300387.223
 11  8 27  2 43 30.0000000  0 10G15G21G12G05G26G25G29G02G30G18
 118226599.657 7  92124742.268 7  22497766.031                    22497775.680
 128880233.813 6 100426250.54143  24525097.242                    24525107.059
 121694102.273 7  94826636.424 6  23157615.711                    23157625.203
 112870451.990 8  87951115.757 7  21478504.055                    21478512.574
 114765143.386 7  89427478.90645  21839067.797                    21839077.383
 116979920.923 7  91153242.547 7  22260537.484                    22260549.332
 110796138.113 8  86334725.623 7  21083803.961                    21083813.207
 118293615.272 7  92176962.71745  22510500.719                    22510507.891
 118706177.985 7  92498393.36245  22589031.984                    22589041.773
 127614597.127 6  99440028.99343  24284254.289                    24284265.813
 11  8 27  2 44  0.0000000  0 10G15G21G12G05G26G25G29G02G30G18
 118137057.962 7  92054969.589 7  22480726.602                    22480736.254
 128823688.340 6 100382189.25543  24514337.180                    24514346.648
 121785557.652 7  94897900.327 6  23175018.898                    23175028.855
 112941636.757 8  88006584.418 7  21492050.156                    21492058.844
 114701897.634 7  89378196.54445  21827032.367                    21827042.098
 117035770.817 7  91196761.946 7  22271165.359                    22271177.305
 110734902.536 7  86287009.632 7  21072151.383                    21072160.395
 118340254.512 7  92213304.98245  22519375.297                    22519383.246
 118766101.958 7  92545087.39145  22600435.617                    22600445.191
 127530070.724 6  99374164.50343  24268168.531                    24268180.641
 11  8 27  2 44 30.0000000  0 10G15G21G12G05G26G25G29G02G30G18
 118047723.914 7  91985358.714 7  22463726.766                    22463736.555
 128767110.036 6 100338102.39243  24503569.852                    24503580.227
 121877113.644 6  94969242.653 6  23192441.516                    23192451.727
 113013079.755 8  88062254.307 7  21505645.234                    21505654.016
 114639127.099 7  89329284.49445  21815087.555                    21815097.176
 117091997.169 7  91240574.689 7  22281864.930                    22281876.773
 110673987.484 7  86239543.387 7  21060559.422                    21060568.395
 118386999.672 7  92249729.79545  22528270.773                    22528278.242
 118826375.095 7  92592053.48145  22611904.813                    22611915.078
 127445740.498 6  99308452.88442  24252121.383                    24252132.844
 11  8 27  2 45  0.0000000  0 10G15G21G12G05G26G25G29G02G30G18
 117958599.948 7  91915911.546 7  22446766.969                    22446776.797
 128710498.613 6 100293989.69143  24492796.961                    24492807.438
 121968767.247 7  95040661.033 6  23209881.852                    23209892.512
 113084778.542 8  88118123.507 7  21519289.289                    21519297.816
 114576834.965 7  89280745.21145  21803233.508                    21803243.375
 117148597.010 8  91284678.457 7  22292635.250                    22292647.441
 110613395.032 8  86192328.525 7  21049029.258                    21049037.930
 118433850.847 7  92286237.20645  22537186.273                    22537193.703
 118886994.167 7  92639289.13645  22623439.953                    22623450.121
 127361607.346 6  99242894.80343  24236111.156                    24236122.625
 11  8 27  2 45 30.0000000  0 10G15G21G12G05G26G25G29G02G30G18
 117869690.069 7  91846631.191 7  22429847.945                    22429858.020
 128653853.908 6 100249851.13843  24482017.984                    24482027.637
 122060516.146 7  95112153.637 6  23227342.078                    23227351.875
 113156730.884 8  88174190.279 7  21532981.266                    21532990.000
 114515025.193 7  89232581.80045  21791471.445                    21791480.824
 117205568.288 7  91329071.661 7  22303477.109                    22303488.734
 110553128.753 7  86145367.832 7  21037560.648                    21037569.711
 118480809.235 7  92322828.17045  22546122.328                    22546130.430
 118947956.850 7  92686792.54245  22635041.391                    22635051.293
 127277672.655 6  99177491.28543  24220138.969                    24220150.184
 11  8 27  2 46  0.0000000  0 10G15G21G12G05G26G25G29G02G30G18
 117780996.679 7  91777519.535 7  22412970.289                    22412980.371
 128597175.132 6 100205685.95143  24471232.867                    24471241.863
 122152356.807 7  95183717.766 6  23244818.914                    23244828.242
 113228933.774 8  88230452.289 7  21546721.055                    21546730.027
 114453700.286 7  89184796.20645  21779801.703                    21779811.449
 117262907.473 7  91373751.543 7  22314388.070                    22314400.332
 110493190.020 8  86098662.368 7  21026154.758                    21026163.535
 118527874.758 7  92359502.61245  22555078.297                    22555086.094
 119009259.404 7  92734560.77045  22646706.391                    22646717.227
 127193937.003 7  99112242.89643  24204204.211                    24204214.840
 11  8 27  2 46 30.0000000  0 10G15G21G12G05G26G25G29G02G30G18
 117692523.363 7  91708579.369 7  22396134.500                    22396144.500
 128540462.225 6 100161494.14843  24460440.516                    24460449.734
 122244286.564 7  95255351.312 6  23262312.367                    23262322.246
 113301385.782 8  88286908.418 7  21560508.164                    21560516.824
 114392863.616 7  89137391.05945  21768224.969                    21768234.480
 117320612.163 7  91418716.247 7  22325368.836                    22325380.563
 110433581.588 7  86052214.279 7  21014811.539                    21014820.641
 118575047.787 7  92396260.83145  22564054.797                    22564062.520
 119070899.131 7  92782591.73545  22658435.922                    22658446.285
 127110401.830 7  99047150.66843  24188308.352                    24188318.395
 11  8 27  2 47  0.0000000  0 10G15G21G12G05G26G25G29G02G30G18
 117604272.938 7  91639812.868 7  22379340.797                    22379350.309
 128483714.431 6 100117275.17243  24449641.008                    24449651.344
 122336301.699 6  95327051.407 6  23279822.188                    23279832.230
 113374083.811 8  88343556.252 7  21574341.820                    21574350.707
 114332518.365 7  89090368.84745  21756741.656                    21756751.563
 117378679.474 7  91463963.497 7  22336418.742                    22336430.746
 110374305.848 8  86006025.435 7  21003531.844                    21003540.660
 118622329.018 7  92433103.34945  22573052.477                    22573060.473
 119132873.051 7  92830883.12045  22670228.914                    22670239.473
 127027068.179 7  98982215.48243  24172450.398                    24172460.289
 11  8 27  2 47 30.0000000  0 10G15G21G12G05G26G25G29G02G30G18
 117516248.596 7  91571222.540 7  22362590.438                    22362600.051
 128426931.597 6 100073028.91143  24438835.844                    24438845.176
 122428399.536 7  95398815.929 6  23297348.086                    23297357.535
 113447025.222 8  88400393.734 7  21588222.539                    21588231.215
 114272667.648 7  89043731.97245  21745352.508                    21745361.973
 117437106.566 7  91509491.104 7  22347537.000                    22347549.113
 110315365.080 8  85960097.608 7  20992316.070                    20992324.961
 118669718.884 7  92470030.52445  22582070.422                    22582077.793
 119195177.973 7  92879432.41345  22682085.336                    22682095.844
 126943936.978 7  98917438.10543  24156631.375                    24156641.461
 11  8 27  2 48  0.0000000  0 10G15G21G12G05G26G25G29G02G30G18
 117428453.501 7  91502810.853 7  22345883.898                    22345893.301
 128370113.255 6 100028755.00943  24428023.258                    24428033.664
 122520577.464 6  95470642.864 6  23314888.922                    23314898.586
 113520207.959 8  88457419.258 7  21602148.492                    21602157.367
 114213314.744 7  88997483.00045  21734057.547                    21734067.301
 117495890.664 7  91555296.882 7  22358723.250                    22358735.219
 110256761.765 8  85914432.738 7  20981163.891                    20981172.922
 118717217.919 7  92507042.77245  22591109.344                    22591117.152
 119257810.974 7  92928237.34545  22694004.195                    22694014.324
 126861009.453 7  98852819.42043  24140850.273                    24140860.816
 11  8 27  2 48 30.0000000  0 10G15G21G12G05G26G25G29G02G30G18
 117340891.153 7  91434580.496 7  22329220.789                    22329230.215
 128313259.124 6  99984453.24043  24417204.305                    24417214.195
 122612832.583 7  95542529.956 6  23332444.625                    23332454.148
 113593629.764 8  88514631.067 7  21616120.297                    21616128.734
 114154462.814 7  88951624.41745  21722859.008                    21722868.453
 117555029.138 7  91601378.814 7  22369976.984                    22369988.848
 110198498.385 7  85869032.752 7  20970076.805                    20970085.504
 118764826.675 7  92544140.51545  22600168.867                    22600176.703
 119320769.141 7  92977295.67344  22705984.461                    22705994.508
 126778286.566 6  98788360.21643  24125108.195                    24125119.148
 11  8 27  2 49  0.0000000  0 10G15G21G12G05G26G25G29G02G30G18
 117253564.222 7  91366533.601 7  22312602.719                    22312612.754
 128256368.725 6  99940123.14443  24406378.984                    24406388.367
 122705161.080 7  95614474.217 6  23350014.453                    23350023.863
 113667287.702 8  88572026.878 7  21630137.070                    21630145.344
 114096114.691 7  88906158.39745  21711755.242                    21711765.344
 117614518.781 7  91647734.379 7  22381297.266                    22381309.516
 110140576.842 8  85823899.124 7  20959054.422                    20959063.504
 118812545.412 7  92581323.95345  22609249.203                    22609257.078
 119384049.106 7  93026604.73144  22718026.344                    22718036.602
 126695769.156 6  98724061.10043  24109405.320                    24109416.316
 11  8 27  2 49 30.0000000  0 10G15G21G12G05G26G25G29G02G30G18
 117166475.786 7  91298672.547 7  22296030.539                    22296039.898
 128199441.510 6  99895764.36343  24395545.805                    24395555.293
 122797560.361 7  95686473.600 6  23367596.609                    23367606.793
 113741179.720 8  88629605.094 7  21644197.766                    21644206.605
 114038273.550 7  88861087.43345  21700748.805                    21700757.926
 117674356.940 7  91694361.511 7  22392684.008                    22392696.113
 110082999.922 8  85779034.042 7  20948098.055                    20948106.816
 118860374.754 7  92618593.56545  22618351.086                    22618358.766
 119447647.908 7  93076162.24644  22730129.141                    22730138.742
 126613458.404 6  98659923.01943  24093742.516                    24093752.980
 11  8 27  2 50  0.0000000  0 10G15G21G12G05G26G25G29G02G30G18
 117079629.441 7  91231000.114 7  22279503.930                    22279513.293
 128142477.351 6  99851376.76543  24384705.328                    24384714.711
 122890027.745 7  95758526.098 6  23385193.063                    23385203.027
 113815303.257 8  88687363.703 7  21658303.055                    21658311.781
 113980942.787 7  88816414.16345  21689838.836                    21689848.133
 117734540.872 7  91741258.071 7  22404136.555                    22404148.703
 110025769.909 8  85734439.270 7  20937207.766                    20937216.250
 118908315.311 7  92655949.84545  22627473.617                    22627481.797
 119511562.606 7  93125965.92044  22742291.383                    22742301.512
 126531355.338 6  98595946.80343  24078117.781                    24078128.473
 11  8 27  2 50 30.0000000  0 10G15G21G12G05G26G25G29G02G30G18
 116993027.983 7  91163518.517 7  22263024.711                    22263033.820
 128085475.817 6  99806960.10543  24373858.445                    24373867.621
 122982560.138 6  95830629.214 6  23402801.469                    23402811.078
 113889656.576 8  88745301.372 7  21672452.203                    21672461.293
 113924125.405 7  88772140.92445  21679026.703                    21679035.988
 117795067.971 7  91788422.053 7  22415654.266                    22415666.844
 109968889.573 8  85690116.969 7  20926383.023                    20926392.488
 118956367.560 7  92693393.15745  22636617.875                    22636625.387
 119575790.418 7  93176013.57144  22754513.273                    22754523.930
 126449461.205 6  98532133.36443  24062534.344                    24062545.137
 11  8 27  2 51  0.0000000  0 10G15G21G12G05G26G25G29G02G30G18
 116906674.346 7  91096230.022 7  22246591.852                    22246601.664
 128028436.288 6  99762513.82643  24363003.578                    24363013.605
 123075153.859 7  95902780.156 6  23420421.000                    23420430.867
 113964236.409 8  88803415.533 7  21686644.086                    21686652.875
 113867824.308 7  88728269.98845  21668312.992                    21668322.418
 117855934.802 7  91835850.742 7  22427237.563                    22427249.602
 109912360.616 8  85646068.485 7  20915626.234                    20915635.367
 119004531.999 7  92730923.89145  22645782.633                    22645790.855
 119640327.710 7  93226302.37944  22766794.633                    22766805.121
 126367776.769 6  98468483.33843  24046989.844                    24047000.500
 11  8 27  2 51 30.0000000  0 10G15G21G12G05G26G25G29G02G30G18
 116820571.746 7  91029137.146 7  22230207.039                    22230215.867
 127971358.569 6  99718037.78943  24352142.000                    24352152.527
 123167806.888 7  95974977.277 6  23438052.914                    23438062.445
 114039040.625 8  88861704.550 7  21700879.242                    21700887.844
 113812042.240 7  88684803.49145  21657697.922                    21657707.648
 117917138.610 7  91883542.032 7  22438883.711                    22438895.969
 109856185.459 8  85602295.673 7  20904936.477                    20904945.504
 119052808.753 7  92768542.15245  22654969.938                    22654978.023
 119705171.447 7  93276829.95845  22779133.969                    22779144.133
 126286303.013 6  98404997.45343  24031485.773                    24031496.703
 11  8 27  2 52  0.0000000  0 10G15G21G12G05G26G25G29G02G30G18
 116734723.512 7  90962242.470 7  22213870.617                    22213879.840
 127914242.231 6  99673531.63443  24341273.508                    24341283.113
 123260515.621 6  96047217.817 6  23455694.234                    23455704.684
 114114066.669 8  88920166.411 7  21715155.922                    21715164.680
 113756782.393 7  88641743.91645  21647182.539                    21647191.758
 117978676.561 7  91931493.680 7  22450594.203                    22450606.191
 109800366.686 8  85558800.572 7  20894314.531                    20894323.324
 119101198.754 7  92806248.64445  22664177.914                    22664186.070
 119770318.683 7  93327594.04644  22791531.031                    22791541.535
 126205040.832 6  98341676.42543  24016022.484                    24016032.168
 11  8 27  2 52 30.0000000  0 10G15G21G12G05G26G25G29G02G30G18
 116649132.332 7  90895548.103 7  22197583.172                    22197592.398
 127857086.684 6  99628994.93843  24330397.172                    24330406.609
 123353277.064 6  96119499.427 6  23473346.367                    23473355.945
 114189312.208 8  88978799.314 7  21729474.555                    21729483.574
 113702047.663 7  88599093.52845  21636766.719                    21636775.949
 118040545.606 7  91979703.336 7  22462367.195                    22462379.219
 109744906.393 8  85515584.790 7  20883760.797                    20883769.660
 119149702.395 7  92844043.69045  22673408.383                    22673415.984
 119835766.045 7  93378591.98745  22803985.508                    22803995.805
 126123991.074 6  98278520.90143  24000599.281                    24000609.281
 11  8 27  2 53  0.0000000  0 10G15G21G12G05G26G25G29G02G30G18
 116563801.154 7  90829056.325 7  22181345.203                    22181354.441
 127799891.854 6  99584427.59543  24319513.352                    24319522.473
 123446088.239 6  96191819.776 6  23491008.117                    23491017.602
 114264774.557 7  89037601.150 7  21743834.859                    21743843.609
 113647840.949 7  88556854.58545  21626451.492                    21626460.984
 118102742.706 7  92028168.610 7  22474203.391                    22474215.543
 109689806.893 8  85472650.171 7  20873275.461                    20873284.648
 119198319.704 7  92881927.32245  22682659.797                    22682667.602
 119901510.368 7  93429821.33544  22816496.055                    22816505.770
 126043155.067 7  98215531.94243  23985216.359                    23985226.203
 11  8 27  2 53 30.0000000  0 10G15G21G12G05G26G25G29G02G30G18
 116478733.417 7  90762769.838 7  22165157.281                    22165167.332
 127742657.360 6  99539829.39143  24308621.703                    24308631.406
 123538946.274 6  96264176.654 6  23508678.063                    23508687.824
 114340451.571 8  89096570.257 7  21758235.617                    21758244.457
 113594165.005 7  88515029.21545  21616237.055                    21616246.758
 118165265.106 7  92076887.370 7  22486100.820                    22486113.172
 109635070.168 8  85429998.212 7  20862859.805                    20862868.551
 119247051.396 7  92919900.05845  22691933.422                    22691940.398
 119967548.726 7  93481279.80244  22829062.945                    22829072.738
 125962532.999 6  98152709.70943  23969873.938                    23969883.938
 11  8 27  2 54  0.0000000  0 10G15G21G12G05G26G25G29G02G30G18
 116393932.627 7  90696691.357 7  22149020.414                    22149029.340
 127685383.232 6  99495200.30743  24297722.813                    24297732.637
 123631848.624 6  96336568.048 6  23526357.148                    23526366.539
 114416341.375 8  89155705.183 7  21772676.469                    21772686.008
 113541023.753 7  88473620.50145  21606124.563                    21606134.039
 118228110.425 7  92125857.741 7  22498059.891                    22498072.133
 109580699.724 8  85387631.668 7  20852512.836                    20852522.004
 119295898.583 7  92957962.80945  22701228.609                    22701236.328
 120033878.515 7  93532965.32844  22841684.656                    22841695.348
 125882126.661 6  98090055.55543  23954572.758                    23954582.418
 11  8 27  2 54 30.0000000  0 10G15G21G12G05G26G25G29G02G30G18
 116309401.374 7  90630822.915 7  22132934.383                    22132943.934
 127628068.673 6  99450539.71643  24286816.016                    24286825.586
 123724792.130 6  96408991.530 6  23544043.594                    23544053.129
 114492441.509 8  89215003.979 7  21787158.609                    21787167.090
 113488419.384 7  88432630.12745  21596114.047                    21596123.461
 118291275.223 7  92175077.060 7  22510079.789                    22510092.320
 109526697.258 8  85345551.877 7  20842236.711                    20842245.633
 119344861.290 7  92996115.57645  22710546.008                    22710553.102
 120100496.157 7  93584875.17244  22854362.055                    22854372.141
 125801936.770 6  98027570.09643  23939313.578                    23939323.680
 11  8 27  2 55  0.0000000  0 10G15G21G12G05G26G25G29G02G30G18
 116225142.563 7  90565166.746 7  22116900.727                    22116909.910
 127570713.555 6  99405847.48243  24275902.078                    24275910.961
 123817773.173 6  96481444.257 6  23561737.023                    23561746.789
 114568748.618 8  89274464.084 7  21801678.977                    21801688.188
 113436354.685 7  88392060.27445  21586206.453                    21586216.301
 118354756.248 7  92224542.782 7  22522159.953                    22522172.563
 109473064.596 8  85303760.225 7  20832030.695                    20832039.410
 119393939.728 7  93034358.51844  22719885.141                    22719892.523
 120167398.178 7  93637006.60244  22867092.781                    22867103.262
 125721963.981 6  97965253.76143  23924094.484                    23924105.699
 11  8 27  2 55 30.0000000  0 10G15G21G12G05G26G25G29G02G30G18
 116141159.982 7  90499725.826 7  22100919.109                    22100928.336
 127513317.402 6  99361123.31543  24264979.125                    24264989.098
 123910789.931 7  96553924.816 6  23579437.773                    23579447.539
 114645261.371 8  89334084.411 7  21816238.945                    21816247.715
 113384833.018 7  88351913.56745  21576402.344                    21576411.922
 118418551.372 7  92274253.254 7  22534300.008                    22534311.938
 109419805.083 8  85262259.346 7  20821895.961                    20821904.848
 119443135.139 7  93072692.62644  22729246.648                    22729254.219
 120234582.173 7  93689357.75144  22879877.734                    22879887.652
 125642209.701 7  97903107.72643  23908919.078                    23908928.117
 11  8 27  2 56  0.0000000  0 10G15G21G12G05G26G25G29G02G30G18
 116057455.910 7  90434501.939 7  22084990.648                    22085000.023
 127455879.889 6  99316366.89643  24254049.711                    24254058.996
 124003838.653 7  96626430.306 6  23597144.484                    23597154.426
 114721976.598 8  89393862.529 7  21830837.461                    21830845.883
 113333856.575 7  88312191.70945  21566701.789                    21566711.547
 118482656.822 7  92324205.549 7  22546498.992                    22546510.555
 109366920.051 8  85221050.271 7  20811832.008                    20811840.914
 119492447.402 7  93111117.76744  22738630.742                    22738637.656
 120302044.332 7  93741925.66244  22892715.227                    22892725.328
 125562674.213 6  97841132.14943  23893782.984                    23893793.191
 11  8 27  2 56 30.0000000  0 10G15G21G12G05G26G25G29G02G30G18
 115974034.092 7  90369497.972 7  22069115.555                    22069125.117
 127398400.646 6  99271577.95043  24243111.930                    24243121.230
 124096917.019 6  96698958.857 6  23614856.547                    23614866.766
 114798892.679 8  89453797.133 7  21845474.094                    21845482.699
 113283428.680 8  88272897.29245  21557105.750                    21557115.027
 118547070.285 7  92374397.859 7  22558755.953                    22558768.160
 109314412.586 8  85180135.398 7  20801840.172                    20801848.895
 119541877.490 7  93149634.72644  22748036.727                    22748044.031
 120369782.090 7  93794708.33644  22905605.352                    22905615.125
 125483358.933 7  97779328.18543  23878689.750                    23878699.965
 11  8 27  2 57  0.0000000  0 10G15G21G12G05G26G25G29G02G30G18
 115890897.494 7  90304716.260 7  22053295.086                    22053304.836
 127340879.804 6  99226756.62443  24232165.406                    24232175.168
 124190022.130 7  96771508.266 6  23632574.133                    23632584.113
 114876007.153 8  89513886.339 7  21860148.625                    21860157.414
 113233552.532 7  88234032.80845  21547614.719                    21547623.887
 118611788.850 7  92424827.907 7  22571072.000                    22571083.613
 109262285.098 8  85139516.617 7  20791920.641                    20791929.391
 119591425.926 7  93188243.89944  22757465.516                    22757472.719
 120437792.275 7  93847703.30844  22918547.242                    22918556.375
 125404264.564 6  97717696.35243  23863638.297                    23863648.711
 11  8 27  2 57 30.0000000  0 10G15G21G12G05G26G25G29G02G30G18
 115808048.676 7  90240158.792 7  22037529.773                    22037539.031
 127283316.370 6  99181902.08343  24221211.516                    24221221.609
 124283150.086 7  96844075.468 6  23650295.688                    23650305.996
 114953317.366 8  89574128.069 7  21874860.234                    21874868.438
 113184229.856 7  88195599.59545  21538228.773                    21538237.980
 118676808.882 7  92475492.882 7  22583444.070                    22583456.645
 109210538.894 8  85099194.936 8  20782073.867                    20782082.285
 119641092.809 7  93226945.36544  22766917.148                    22766924.250
 120506071.211 7  93900907.68544  22931540.070                    22931550.000
 125325391.708 6  97656237.12643  23848629.406                    23848639.281
 11  8 27  2 58  0.0000000  0 10G15G21G12G05G26G25G29G02G30G18
 115725490.843 7  90175828.065 7  22021819.797                    22021828.633
 127225710.575 6  99137014.52843  24210249.648                    24210258.961
 124376298.389 6  96916658.511 6  23668020.953                    23668031.754
 115030820.830 8  89634520.389 7  21889608.070                    21889617.027
 113135463.913 8  88157600.19245  21528948.758                    21528958.453
 118742127.656 7  92526390.619 7  22595874.359                    22595886.410
 109159176.489 8  85059172.322 7  20772299.797                    20772308.453
 119690878.660 7  93265739.56644  22776390.430                    22776398.070
 120574615.889 7  93954319.13344  22944583.625                    22944593.453
 125246741.488 6  97594951.34243  23833662.234                    23833672.531
 11  8 27  2 58 30.0000000  0 10G15G21G12G05G26G25G29G02G30G18
 115643226.999 7  90111726.418 7  22006165.305                    22006174.453
 127168061.487 6  99092093.25643  24199278.984                    24199288.898
 124469463.927 6  96989254.982 6  23685750.031                    23685760.301
 115108515.229 8  89695061.474 7  21904392.750                    21904401.590
 113087257.074 7  88120036.47445  21519775.359                    21519785.137
 118807741.907 7  92577518.600 7  22608360.430                    22608372.242
 109108199.759 8  85019450.230 7  20762599.086                    20762607.824
 119740784.024 7  93304626.86444  22785887.258                    22785894.027
 120643423.005 7  94007935.07744  22957677.508                    22957687.109
 125168314.516 6  97533839.55143  23818738.203                    23818747.938
 11  8 27  2 59  0.0000000  0 10G15G21G12G05G26G25G29G02G30G18
 115561260.807 7  90047856.697 7  21990567.625                    21990576.738
 127110369.596 6  99047138.61243  24188300.609                    24188309.918
 124562644.566 6  97061863.235 6  23703481.773                    23703492.074
 115186398.797 8  89755749.978 7  21919213.734                    21919222.586
 113039612.604 8  88082910.94945  21510708.891                    21510717.949
 118873649.337 7  92628875.042 7  22620901.891                    22620913.805
 109057612.190 8  84980031.382 7  20752972.469                    20752981.352
 119790809.683 7  93343607.91044  22795406.781                    22795414.137
 120712489.980 6  94061753.48044  22970819.922                    22970830.391
 125090112.179 6  97472902.76243  23803856.953                    23803866.723
 11  8 27  2 59 30.0000000  0 10G15G21G12G05G26G25G29G02G30G18
 115479594.963 7  89984221.025 7  21975026.820                    21975036.301
 127052634.345 6  99002150.20143  24177313.633                    24177323.145
 124655837.015 6  97134480.666 6  23721215.328                    23721225.668
 115264468.776 8  89816583.732 7  21934070.641                    21934078.789
 112992533.396 8  88046225.89245  21501750.258                    21501759.340
 118939846.640 7  92680457.345 7  22633498.883                    22633511.047
 109007415.454 8  84940917.079 8  20743420.602                    20743429.273
 119840956.091 7  93382683.04344  22804949.305                    22804956.727
 120781813.373 6  94115771.69344  22984011.680                    22984022.320
 125012134.955 6  97412141.41543  23789018.305                    23789027.313
 11  8 27  3  0  0.0000000  0 10G15G21G12G05G26G25G29G02G30G18
 115398232.297 7  89920821.591 7  21959544.234                    21959553.109
 126994855.435 7  98957127.75843  24166319.203                    24166328.426
 124749038.370 6  97207105.048 6  23738951.289                    23738961.871
 115342722.818 8  89877560.903 7  21948961.617                    21948970.133
 112946021.528 8  88009982.92245  21492899.250                    21492908.859
 119006330.646 7  92732263.074 7  22646150.039                    22646162.430
 108957611.857 8  84902109.121 8  20733943.016                    20733951.520
 119891223.555 7  93421852.50144  22814515.000                    22814522.348
 120851389.878 7  94169987.11244  22997251.789                    22997262.266
 124934383.872 6  97351556.24243  23774222.906                    23774232.410
 11  8 27  3  0 30.0000000  0 10G15G21G12G05G26G25G29G02G30G18
 115317175.841 7  89857660.763 7  21944119.313                    21944128.590
 126937032.625 6  98912071.09343  24155315.328                    24155324.914
 124842245.811 7  97279734.172 6  23756688.609                    23756698.566
 115421158.993 8  89938680.005 7  21963887.742                    21963896.469
 112900079.896 8  87974184.28645  21484156.523                    21484166.039
 119073098.512 7  92784289.993 7  22658856.031                    22658867.777
 108908203.707 8  84863609.295 8  20724540.984                    20724549.715
 119941612.724 7  93461116.80744  22824103.680                    22824110.797
 120921216.510 7  94224397.47044  23010539.336                    23010550.199
 124856859.391 6  97291147.66043  23759470.094                    23759479.777
 11  8 27  3  1  0.0000000  0 10G15G21G12G05G26G25G29G02G30G18
 115236428.867 7  89794741.094 7  21928754.148                    21928763.172
 126879165.506 7  98866979.90543  24144303.609                    24144312.871
 124935456.339 7  97352365.697 6  23774425.797                    23774436.309
 115499774.679 8  89999938.994 7  21978847.273                    21978855.957
 112854711.203 7  87938832.09445  21475523.117                    21475532.270
 119140147.231 7  92836535.739 7  22671614.969                    22671626.766
 108859193.256 8  84825419.371 7  20715214.602                    20715223.098
 119992124.176 7  93500476.37344  22833715.602                    22833722.996
 120991290.066 7  94279000.21644  23023874.594                    23023884.875
 124779562.651 6  97230916.53944  23744761.242                    23744771.113
 11  8 27  3  1 30.0000000  0 10G15G21G12G05G26G25G29G02G30G18
 115155994.270 7  89732064.823 7  21913447.328                    21913457.238
 126821254.018 7  98821854.14143  24133283.422                    24133292.355
 125028667.176 7  97424997.480 6  23792163.367                    23792173.352
 115578567.502 8  90061335.999 7  21993841.141                    21993849.980
 112809917.825 7  87903928.21545  21466999.328                    21467008.859
 119207473.578 7  92888997.831 7  22684426.828                    22684438.609
 108810582.366 8  84787540.785 8  20705964.352                    20705972.863
 120042758.268 7  93539931.51744  22843350.789                    22843358.754
 121061607.175 7  94333792.75244  23037255.219                    23037265.535
 124702493.843 6  97170863.02544  23730095.773                    23730105.059
 11  8 27  3  2  0.0000000  0 10G15G21G12G05G26G25G29G02G30G18
 115075875.223 7  89669634.450 7  21898201.414                    21898210.813
 126763297.647 6  98776693.39643  24122254.531                    24122263.695
 125121875.504 7  97497627.288 6  23809900.250                    23809910.488
 115657535.457 7  90122869.468 7  22008868.281                    22008877.195
 112765702.570 8  87869474.80145  21458585.484                    21458594.480
 119275074.755 7  92941674.084 7  22697290.703                    22697302.531
 108762373.663 8  84749975.599 8  20696790.422                    20696799.066
 120093515.644 7  93579482.73144  22853009.828                    22853017.223
 121132164.883 7  94388772.78444  23050681.922                    23050692.281
 124625654.567 6  97110988.37444  23715473.094                    23715482.984
 11  8 27  3  2 30.0000000  0 10G15G21G12G05G26G25G29G02G30G18
 114996074.268 7  89607451.947 7  21883015.805                    21883025.527
 126705296.140 6  98731497.50143  24111217.266                    24111226.570
 125215078.026 7  97570252.613 6  23827636.422                    23827646.051
 115736675.958 7  90184537.395 7  22023928.359                    22023936.852
 112722067.711 7  87835473.64945  21450281.984                    21450291.160
 119342947.436 7  92994561.875 7  22710206.266                    22710218.250
 108714569.004 8  84712725.244 8  20687693.508                    20687702.141
 120144396.740 7  93619130.33044  22862692.102                    22862699.527
 121202959.716 7  94443937.58944  23064153.453                    23064164.309
 124549044.984 6  97051292.73343  23700894.586                    23700904.219
 11  8 27  3  3  0.0000000  0 10G15G21G12G05G26G25G29G02G30G18
 114916594.990 7  89545520.091 7  21867891.203                    21867900.570
 126647249.466 7  98686266.39643  24100171.914                    24100180.730
 125308272.509 7  97642871.655 6  23845370.625                    23845380.691
 115815986.775 7  90246338.025 7  22039020.508                    22039029.414
 112679016.155 7  87801927.02745  21442089.406                    21442098.660
 119411088.932 7  93047659.155 7  22723173.383                    22723185.055
 108667170.988 8  84675791.756 8  20678673.867                    20678682.559
 120195402.410 7  93658875.01944  22872398.102                    22872405.957
 121273988.862 7  94499284.97444  23077670.336                    23077681.125
 124472666.279 6  96991776.93943  23686360.695                    23686369.660
 11  8 27  3  3 30.0000000  0 10G15G21G12G05G26G25G29G02G30G18
 114837440.235 7  89483841.112 7  21852828.578                    21852837.766
 126589157.409 6  98640999.95343  24089117.109                    24089126.391
 125401455.834 7  97715481.984 6  23863102.688                    23863112.457
 115895465.674 7  90308269.639 7  22054144.773                    22054153.551
 112636550.233 8  87768836.73345  21434008.320                    21434017.902
 119479496.056 7  93100963.402 7  22736190.578                    22736203.016
 108620181.681 8  84639176.736 8  20669731.922                    20669741.000
 120246532.738 7  93698716.81144  22882127.922                    22882135.688
 121345248.984 7  94554812.33944  23091230.922                    23091240.535
 124396519.217 6  96932441.67743  23671869.789                    23671878.789
 11  8 27  3  4  0.0000000  0 10G15G21G12G05G26G25G29G02G30G18
 114758612.811 7  89422417.193 7  21837828.414                    21837837.512
 126531019.822 6  98595698.00343  24078053.977                    24078062.738
 125494625.329 7  97788081.564 6  23880832.797                    23880842.160
 115975110.847 7  90370330.812 7  22069300.844                    22069309.277
 112594672.513 7  87736204.77945  21426039.414                    21426048.598
 119548165.833 7  93154472.330 7  22749258.234                    22749270.340
 108573603.524 8  84602882.094 8  20660868.609                    20660877.066
 120297788.441 7  93738656.30944  22891881.758                    22891889.191
 121416736.952 7  94610517.24944  23104834.258                    23104843.973
 124320604.343 7  96873287.30643  23657423.344                    23657433.133
 11  8 27  3  4 30.0000000  0 10G15G21G12G05G26G25G29G02G30G18
 114680115.386 7  89361250.404 7  21822890.781                    21822899.918
 126472836.222 6  98550360.22543  24066981.516                    24066990.582
 125587777.644 7  97860667.738 6  23898558.805                    23898568.129
 116054919.283 8  90432519.197 7  22084487.781                    22084496.609
 112553384.959 8  87704032.69145  21418182.406                    21418192.148
 119617094.723 7  93208183.146 7  22762375.391                    22762387.125
 108527437.828 8  84566908.849 8  20652083.305                    20652092.000
 120349169.678 7  93778693.62644  22901659.898                    22901666.629
 121488449.119 7  94666396.85244  23118480.813                    23118490.566
 124244921.927 6  96814314.08343  23643021.859                    23643030.758
 11  8 27  3  5  0.0000000  0 10G15G21G12G05G26G25G29G02G30G18
 114601951.642 7  89300343.637 7  21808016.336                    21808025.965
 126414606.585 7  98504986.56343  24055900.633                    24055909.609
 125680910.349 6  97933238.656 6  23916280.852                    23916291.254
 116134889.169 7  90494833.396 7  22099705.727                    22099714.313
 112512690.683 8  87672322.90645  21410438.734                    21410447.746
 119686280.274 7  93262093.959 7  22775540.766                    22775552.648
 108481687.581 8  84531259.327 8  20643377.547                    20643386.273
 120400677.376 7  93818829.49044  22911461.227                    22911467.652
 121560382.846 7  94722449.11944  23132168.555                    23132178.879
 124169473.539 7  96755523.20843  23628664.555                    23628673.254
 11  8 27  3  5 30.0000000  0 10G15G21G12G05G26G25G29G02G30G18
 114524124.068 7  89239698.824 7  21793206.492                    21793215.824
 126356330.689 7  98459576.85144  24044811.492                    24044820.117
 125774020.439 6  98005791.909 6  23933999.273                    23934009.793
 116215017.835 8  90557271.326 7  22114953.086                    22114962.289
 112472591.703 8  87641076.98145  21402808.164                    21402817.516
 119755719.127 7  93316202.143 7  22788754.664                    22788766.363
 108436354.611 8  84495934.955 8  20634750.680                    20634759.746
 120452311.928 7  93859064.17444  22921286.438                    22921294.199
 121632534.635 6  94778671.29444  23145899.484                    23145909.734
 124094259.423 7  96696914.89443  23614352.234                    23614360.605
 11  8 27  3  6  0.0000000  0 10G15G21G12G05G26G25G29G02G30G18
 114446636.085 7  89179318.627 7  21778460.734                    21778470.535
 126298008.460 7  98414131.04443  24033712.250                    24033721.938
 125867105.480 6  98078325.658 6  23951712.711                    23951723.281
 116295303.523 7  90619831.602 7  22130231.555                    22130240.215
 112433090.798 8  87610297.09745  21395291.172                    21395300.441
 119825408.562 7  93370505.589 7  22802015.891                    22802027.762
 108391441.462 8  84460937.720 8  20626204.289                    20626212.859
 120504074.125 7  93899398.37844  22931136.719                    22931144.230
 121704901.717 7  94835061.21344  23159670.477                    23159680.223
 124019280.452 7  96638489.81243  23600083.438                    23600092.625
 11  8 27  3  6 30.0000000  0 10G15G21G12G05G26G25G29G02G30G18
 114369490.145 7  89119204.951 7  21763780.359                    21763789.473
 126239639.188 7  98368648.57444  24022605.180                    24022614.531
 125960162.287 6  98150837.411 6  23969420.422                    23969430.910
 116375743.927 7  90682512.438 7  22145539.000                    22145547.441
 112394189.992 8  87579984.81045  21387888.734                    21387898.430
 119895345.145 7  93425001.612 7  22815324.391                    22815336.574
 108346949.875 8  84426268.969 8  20617737.578                    20617746.473
 120555964.176 7  93939832.16644  22941010.805                    22941018.324
 121777480.451 7  94891616.06544  23173481.281                    23173491.508
 123944537.310 6  96580248.51143  23585859.617                    23585869.828
 11  8 27  3  7  0.0000000  0 10G15G21G12G05G26G25G29G02G30G18
 114292689.651 7  89059360.450 7  21749165.789                    21749174.953
 126181223.022 7  98323129.58044  24011489.156                    24011498.590
 126053188.327 6  98223325.174 6  23987122.773                    23987133.734
 116456336.976 7  90745312.213 7  22160875.203                    22160883.684
 112355891.984 8  87550142.23845  21380600.820                    21380609.992
 119965526.098 7  93479688.037 7  22828679.539                    22828691.559
 108302882.295 8  84391930.616 8  20609352.148                    20609360.211
 120607982.724 7  93980366.07744  22950909.820                    22950917.316
 121850267.902 7  94948333.56644  23187332.758                    23187342.750
 123870031.072 7  96522191.81043  23571682.156                    23571691.750
 11  8 27  3  7 30.0000000  0 10G15G21G12G05G26G25G29G02G30G18
 114216237.135 7  88999787.109 7  21734617.281                    21734626.535
 126122759.841 7  98277573.95044  24000364.180                    24000372.777
 126146180.695 6  98295786.699 6  24004819.609                    24004829.848
 116537080.086 7  90808228.928 7  22176240.008                    22176248.582
 112318198.357 8  87520770.62145  21373428.047                    21373437.063
 120035947.964 7  93534562.195 7  22842080.133                    22842092.277
 108259240.549 8  84357924.086 8  20601046.977                    20601056.086
 120660130.077 7  94021000.35344  22960833.219                    22960840.648
 121923260.635 7  95005211.01344  23201222.617                    23201232.918
 123795761.636 7  96464319.64143  23557548.648                    23557558.121
 11  8 27  3  8  0.0000000  0 10G15G21G12G05G26G25G29G02G30G18
 114140135.580 7  88940487.240 7  21720135.672                    21720144.957
 126064249.363 6  98231981.45644  23989229.664                    23989238.758
 126239136.500 6  98368219.755 6  24022508.625                    24022518.777
 116617971.129 7  90871260.911 7  22191632.922                    22191641.727
 112281111.935 8  87491872.14545  21366370.648                    21366379.730
 120106607.939 7  93589621.910 7  22855526.508                    22855538.449
 108216026.829 8  84324251.073 8  20592823.766                    20592832.641
 120712406.973 7  94061735.59744  22970781.477                    22970788.309
 121996455.687 7  95062246.09344  23215151.242                    23215161.141
 123721730.083 6  96406632.79743  23543461.133                    23543470.695
 11  8 27  3  8 30.0000000  0 10G15G21G12G05G26G25G29G02G30G18
 114064388.144 7  88881463.296 7  21705721.195                    21705730.363
 126005691.392 7  98186351.92444  23978086.555                    23978095.465
 126332052.936 7  98440622.101 6  24040189.656                    24040199.742
 116699008.286 7  90934406.747 7  22207053.906                    22207062.973
 112244635.033 8  87463448.61345  21359429.055                    21359438.207
 120177503.101 7  93644864.879 7  22869017.398                    22869029.191
 108173243.756 8  84290913.640 8  20584682.313                    20584691.270
 120764814.119 7  94102572.34144  22980753.586                    22980761.117
 122069849.987 6  95119436.46544  23229117.469                    23229127.410
 123647937.240 7  96349131.95244  23529418.500                    23529428.191
 11  8 27  3  9  0.0000000  0 10G15G21G12G05G26G25G29G02G30G18
 113988997.750 7  88822717.587 7  21691375.031                    21691384.090
 125947086.118 7  98140685.57344  23966934.539                    23966943.453
 126424927.328 6  98512991.713 6  24057863.438                    24057873.809
 116780188.816 7  90997664.304 7  22222502.492                    22222510.809
 112208769.725 8  87435501.65845  21352604.406                    21352613.457
 120248630.162 7  93700288.547 7  22882552.063                    22882564.520
 108130893.017 8  84257913.088 8  20576623.102                    20576631.785
 120817351.785 7  94143510.73844  22990751.047                    22990758.777
 122143440.060 7  95176779.37844  23243121.063                    23243131.559
 123574383.671 6  96291817.55744  23515422.180                    23515431.641
 11  8 27  3  9 30.0000000  0 10G15G21G12G05G26G25G29G02G30G18
 113913967.283 7  88764252.327 7  21677096.852                    21677106.281
 125888432.953 7  98094981.87644  23955772.844                    23955781.668
 126517757.001 7  98585326.475 6  24075527.906                    24075538.445
 116861510.564 7  91061031.894 7  22237977.336                    22237985.910
 112173517.939 8  87408032.77045  21345895.891                    21345904.961
 120319985.835 7  93755890.341 7  22896131.078                    22896142.727
 108088976.291 8  84225250.731 8  20568646.594                    20568655.434
 120870020.308 7  94184551.15644  23000774.438                    23000780.840
 122217222.584 6  95234272.21644  23257161.781                    23257171.641
 123501069.683 7  96234689.84244  23501470.445                    23501480.008
 11  8 27  3 10  0.0000000  0 10G15G21G12G05G26G25G29G02G30G18
 113839299.347 7  88706069.559 7  21662888.375                    21662897.605
 125829731.937 7  98049240.92044  23944602.063                    23944611.145
 126610539.006 6  98657624.109 6  24093184.047                    24093194.090
 116942971.541 7  91124507.983 7  22253478.563                    22253487.273
 112138882.138 8  87381043.86945  21339304.727                    21339313.762
 120391567.159 7  93811667.993 7  22909752.523                    22909764.438
 108047495.726 8  84192928.232 8  20560753.367                    20560762.082
 120922820.141 7  94225693.86544  23010821.539                    23010828.996
 122291194.461 7  95291912.63744  23271237.563                    23271248.227
 123427995.966 6  96177749.36744  23487565.422                    23487574.047
 11  8 27  3 10 30.0000000  0 10G15G21G12G05G26G25G29G02G30G18
 113764996.963 7  88648171.629 7  21648749.133                    21648757.805
 125770982.692 7  98003462.35044  23933422.891                    23933431.113
 126703271.046 7  98729882.781 6  24110831.047                    24110840.609
 117024569.610 7  91188090.904 7  22269006.414                    22269014.914
 112104864.672 8  87354536.78945  21332831.672                    21332840.504
 120463371.205 7  93867619.152 7  22923416.203                    22923428.328
 108006453.965 8  84160947.670 8  20552943.047                    20552952.398
 120975752.250 7  94266939.66444  23020893.609                    23020901.461
 122365352.639 6  95349698.21744  23285349.875                    23285359.629
 123355163.274 6  96120996.69843  23473705.734                    23473714.660
 11  8 27  3 11  0.0000000  0 10G15G21G12G05G26G25G29G02G30G18
 113691063.425 7  88590561.121 7  21634680.086                    21634688.906
 125712185.661 7  97957646.56744  23922234.008                    23922242.738
 126795950.053 7  98802100.124 6  24128466.922                    24128476.969
 117106302.547 7  91251778.910 7  22284559.453                    22284567.828
 112071467.292 8  87328512.89745  21326476.398                    21326485.527
 120535394.885 7  93923741.490 7  22937121.742                    22937134.219
 107965853.180 8  84129310.716 8  20545217.406                    20545225.977
 121028817.190 7  94308288.97444  23030992.102                    23030999.496
 122439693.987 7  95407626.52044  23299496.609                    23299506.371
 123282572.445 6  96064432.51843  23459891.648                    23459901.129
 11  8 27  3 11 30.0000000  0 10G15G21G12G05G26G25G29G02G30G18
 113617500.935 7  88533239.733 7  21620681.656                    21620690.934
 125653339.909 7  97911792.80944  23911035.609                    23911044.410
 126888572.981 6  98874273.809 6  24146092.125                    24146102.215
 117188168.129 7  91315570.265 7  22300137.648                    22300146.285
 112038692.320 8  87302973.99245  21320239.234                    21320248.383
 120607634.822 7  93980032.350 7  22950868.586                    22950880.855
 107925694.416 8  84098018.195 8  20537575.430                    20537584.496
 121082015.004 7  94349741.79744  23041115.602                    23041122.293
 122514214.979 7  95465694.81644  23313676.938                    23313687.316
 123210223.879 7  96008057.11044  23446123.977                    23446134.137
 11  8 27  3 12  0.0000000  0 10G15G21G12G05G26G25G29G02G30G18
 113544312.727 8  88476210.013 7  21606754.398                    21606763.375
 125594445.965 7  97865901.49843  23899828.008                    23899837.027
 126981137.335 6  98946401.800 6  24163706.938                    24163717.063
 117270164.497 7  91379463.540 7  22315741.148                    22315750.039
 112006541.762 8  87277921.64845  21314121.352                    21314130.664
 120680088.360 7  94036489.631 7  22964656.109                    22964668.137
 107885980.597 8  84067072.387 8  20530017.898                    20530026.516
 121135346.544 7  94391298.83844  23051263.578                    23051270.754
 122588912.903 7  95523900.97244  23327892.055                    23327902.469
 123138118.210 7  95951870.97943  23432402.586                    23432412.707
 11  8 27  3 12 30.0000000  0 10G15G21G12G05G26G25G29G02G30G18
 113471501.542 7  88419474.057 7  21592898.477                    21592907.945
 125535503.566 7  97819972.41243  23888612.219                    23888620.773
 127073640.460 6  99018482.126 6  24181309.125                    24181319.430
 117352289.166 7  91443456.790 7  22331368.906                    22331377.727
 111975017.679 8  87253357.46345  21308122.477                    21308131.258
 120752751.983 7  94093110.606 7  22978483.930                    22978495.750
 107846713.135 8  84036474.382 8  20522545.570                    20522554.148
 121188811.953 7  94432960.20244  23061438.016                    23061445.473
 122663784.113 7  95582242.15044  23342139.289                    23342149.953
 123066255.762 7  95895874.37144  23418727.555                    23418737.340
 11  8 27  3 13  0.0000000  0 10G15G21G12G05G26G25G29G02G30G18
 113399070.038 7  88363033.953 7  21579115.563                    21579124.289
 125476512.719 7  97774005.59444  23877386.719                    23877395.066
 127166079.690 6  99090512.652 5  24198900.133                    24198909.875
 117434540.110 7  91507548.439 7  22347020.664                    22347029.598
 111944121.798 8  87229282.79545  21302243.313                    21302252.090
 120825622.625 7  94149892.921 7  22992350.266                    22992362.164
 107807894.354 8  84006226.006 8  20515158.336                    20515167.305
 121242411.921 7  94474726.38944  23071638.305                    23071645.207
 122738825.448 7  95640715.89144  23356419.477                    23356429.516
 122994637.162 7  95840067.73044  23405099.508                    23405108.531
 11  8 27  3 13 30.0000000  0 10G15G21G12G05G26G25G29G02G30G18
 113327021.661 8  88306892.408 7  21565405.133                    21565413.582
 125417473.435 7  97728001.04544  23866151.453                    23866160.063
 127258452.570 6  99162491.451 6  24216478.102                    24216488.777
 117516915.333 7  91571736.928 7  22362696.336                    22362705.277
 111913856.612 8  87205699.56145  21296483.852                    21296493.414
 120898697.638 7  94206834.465 7  23006256.641                    23006267.969
 107769526.977 8  83976329.372 8  20507857.313                    20507865.949
 121296147.323 7  94516598.13144  23081863.195                    23081870.621
 122814034.122 7  95699320.03944  23370731.375                    23370741.434
 122923263.375 7  95784451.87744  23391517.125                    23391525.953
 11  8 27  3 14  0.0000000  0 10G15G21G12G05G26G25G29G02G30G18
 113255358.247 8  88251050.822 7  21551768.055                    21551777.043
 125358384.754 7  97681957.99744  23854907.648                    23854915.531
 127350756.139 6  99234416.253 6  24234042.648                    24234052.992
 117599412.313 7  91636020.289 7  22378395.242                    22378403.871
 111884223.474 8  87182608.85045  21290844.758                    21290853.871
 120971973.228 7  94263932.315 7  23020200.250                    23020212.383
 107731611.456 7  83946784.839 8  20500642.500                    20500650.758
 121350018.024 6  94558575.29444  23092114.992                    23092122.215
 122889406.314 6  95758051.59444  23385073.844                    23385084.207
 122852134.326 7  95729026.71443  23377981.766                    23377990.813
